Darstellungsparameter: Aktuell verwendete Einstellungen:
Skalierung der Graphiken ... ?
xyx+y,   Skalierungsfaktor:      Skalierung: Modus: x, Faktor: 1
Darstellungszeitraum ... ?
Vom - - bis: - -   Zeitraum: 01.03.2019 - 28.03.2019
Min/Max/Avg-Anzeige ... ?
Zeige MMA aktuell
Zeige MMA Monat
Zeige MMA alles
Zeige --A aktuell
Zeige --A Monat
Zeige --A alles
Keine MMA-Anzeige
MMA:
Keine MMA-Graphiken
MMA-Basis: 01.03.2019 - 28.03.2019
Quicknavigation für Darstellung... ?
Tage:      1T, 2T, 3T, 5T -1T -2T -3T -5T +1T +2T +3T +5T
Wochen: 1W, 2W, 3W -1W -2W -3W +1W +2W +3W
Monate: 1M, 3M, 6M -1M -3M -6M +1M +3M +6M
Jahre:    1J, 3J, 5J, 10J -1J -3J -5J -10J +1J +3J +5J +10J
Nutze für die Darstellung ... ?
Originaldaten oder Mittelwerte auf ...
Stundenbasis Tagesbasis Wochenbasis
Monatsbasis Jahresbasis      Datenbasis: Original-Daten
Darstellen als:
Statistik (Auto) Statistik J:M      Darstellung:
Zur Graphik,    zurück zur Übersicht aller Sensoren.
 
Tabellarische Datenbersicht: ?
 
Sensor: Nr:Datum:Temp:Feuchte:
Aussen-T/F 1 01-03-2019 00:06:17 8.4 C 50 %
2 01-03-2019 00:18:17 8.3 C 50 %
3 01-03-2019 00:30:17 8.3 C 50 %
4 01-03-2019 00:42:18 7.8 C 50 %
5 01-03-2019 00:54:17 7.6 C 51 %
6 01-03-2019 01:06:18 8 C 52 %
7 01-03-2019 01:18:18 8 C 51 %
8 01-03-2019 01:30:18 8 C 50 %
9 01-03-2019 01:42:18 8 C 49 %
10 01-03-2019 01:54:17 7.9 C 49 %
11 01-03-2019 02:06:17 8 C 46 %
12 01-03-2019 02:18:17 8.3 C 43 %
13 01-03-2019 02:30:17 8.2 C 42 %
14 01-03-2019 02:42:17 8.2 C 43 %
15 01-03-2019 02:54:17 8.4 C 40 %
16 01-03-2019 03:06:17 8.4 C 39 %
17 01-03-2019 03:18:17 8.6 C 39 %
18 01-03-2019 03:30:17 8.5 C 39 %
19 01-03-2019 03:42:17 8.6 C 37 %
20 01-03-2019 03:54:17 8.4 C 37 %
21 01-03-2019 04:06:17 8.2 C 40 %
22 01-03-2019 04:18:17 8.2 C 40 %
23 01-03-2019 04:30:17 8.1 C 41 %
24 01-03-2019 04:42:17 8.2 C 40 %
25 01-03-2019 04:54:17 8.2 C 40 %
Sensor: Nr:Datum:Temp:Feuchte:
Aussen-T/F 26 01-03-2019 05:06:17 8.1 C 40 %
27 01-03-2019 05:18:17 7.7 C 43 %
28 01-03-2019 05:30:17 7.5 C 47 %
29 01-03-2019 05:42:17 7.5 C 50 %
30 01-03-2019 05:54:17 7.5 C 51 %
31 01-03-2019 06:06:17 7.5 C 52 %
32 01-03-2019 06:18:17 7.4 C 52 %
33 01-03-2019 06:30:17 7.1 C 52 %
34 01-03-2019 06:42:17 7.1 C 53 %
35 01-03-2019 06:54:18 7.2 C 53 %
36 01-03-2019 07:06:17 7.4 C 53 %
37 01-03-2019 07:18:18 7.4 C 53 %
38 01-03-2019 07:30:17 7.5 C 52 %
39 01-03-2019 07:42:17 7.6 C 52 %
40 01-03-2019 07:54:17 7.6 C 52 %
41 01-03-2019 08:06:17 7.7 C 52 %
42 01-03-2019 08:18:17 7.9 C 51 %
43 01-03-2019 08:30:17 7.9 C 51 %
44 01-03-2019 08:42:18 8 C 50 %
45 01-03-2019 08:54:17 8 C 50 %
46 01-03-2019 09:06:17 8 C 50 %
47 01-03-2019 09:18:17 8 C 50 %
48 01-03-2019 09:30:17 8.1 C 51 %
49 01-03-2019 09:42:17 7.9 C 51 %
50 01-03-2019 09:54:17 7.8 C 51 %
Sensor: Nr:Datum:Temp:Feuchte:
Aussen-T/F 51 01-03-2019 10:06:17 7.9 C 51 %
52 01-03-2019 10:18:18 7.9 C 51 %
53 01-03-2019 10:30:17 8.1 C 51 %
54 01-03-2019 10:42:17 8.2 C 50 %
55 01-03-2019 10:54:17 8.1 C 50 %
56 01-03-2019 11:06:17 8 C 49 %
57 01-03-2019 11:18:17 8 C 49 %
58 01-03-2019 11:30:18 7.9 C 49 %
59 01-03-2019 11:42:18 8.4 C 48 %
60 01-03-2019 11:54:18 8.7 C 45 %
61 01-03-2019 12:06:17 8.7 C 41 %
62 01-03-2019 12:18:17 8.6 C 38 %
63 01-03-2019 12:30:17 8.7 C 36 %
64 01-03-2019 12:42:17 8.5 C 36 %
65 01-03-2019 12:54:17 8.4 C 36 %
66 01-03-2019 13:06:17 8.2 C 38 %
67 01-03-2019 13:18:17 8.1 C 40 %
68 01-03-2019 13:30:17 7.9 C 40 %
69 01-03-2019 13:42:17 8 C 40 %
70 01-03-2019 13:54:17 7.9 C 40 %
71 01-03-2019 14:06:18 7.9 C 40 %
72 01-03-2019 14:18:18 8 C 39 %
73 01-03-2019 14:30:18 8 C 37 %
74 01-03-2019 14:42:18 8 C 36 %
75 01-03-2019 14:54:17 8 C 36 %
Sensor: Nr:Datum:Temp:Feuchte:
Aussen-T/F 76 01-03-2019 15:06:17 7.9 C 37 %
77 01-03-2019 15:18:17 7.9 C 37 %
78 01-03-2019 15:30:18 7.9 C 38 %
79 01-03-2019 15:42:18 7.8 C 39 %
80 01-03-2019 15:54:17 7.8 C 40 %
81 01-03-2019 16:06:17 7.9 C 39 %
82 01-03-2019 16:18:17 7.9 C 40 %
83 01-03-2019 16:30:17 7.8 C 41 %
84 01-03-2019 16:42:18 7.9 C 41 %
85 01-03-2019 16:54:17 7.8 C 42 %
86 01-03-2019 17:06:18 7.7 C 42 %
87 01-03-2019 17:18:17 7.6 C 42 %
88 01-03-2019 17:30:17 7.6 C 43 %
89 01-03-2019 17:42:17 7.7 C 42 %
90 01-03-2019 17:54:17 7.7 C 41 %
91 01-03-2019 18:06:17 7.3 C 40 %
92 01-03-2019 18:18:17 7.2 C 39 %
93 01-03-2019 18:30:17 7 C 39 %
94 01-03-2019 18:42:17 6.9 C 39 %
95 01-03-2019 18:54:17 6.7 C 40 %
96 01-03-2019 19:06:17 6.5 C 40 %
97 01-03-2019 19:18:17 6.3 C 40 %
98 01-03-2019 19:30:17 6.2 C 41 %
99 01-03-2019 19:42:17 6.2 C 41 %
100 01-03-2019 19:54:17 6.2 C 41 %
Sensor: Nr:Datum:Temp:Feuchte:
Aussen-T/F 101 01-03-2019 20:06:17 6.2 C 41 %
102 01-03-2019 20:18:17 6.1 C 41 %
103 01-03-2019 20:30:18 6.1 C 41 %
104 01-03-2019 20:42:18 6 C 42 %
105 01-03-2019 20:54:18 5.9 C 43 %
106 01-03-2019 21:06:18 5.8 C 44 %
107 01-03-2019 21:18:17 5.9 C 44 %
108 01-03-2019 21:30:17 6 C 41 %
109 01-03-2019 21:42:17 6 C 40 %
110 01-03-2019 21:54:17 5.8 C 41 %
111 01-03-2019 22:06:18 5.7 C 43 %
112 01-03-2019 22:18:17 5.7 C 44 %
113 01-03-2019 22:30:17 5.8 C 43 %
114 01-03-2019 22:42:17 6 C 38 %
115 01-03-2019 22:54:17 6 C 38 %
116 01-03-2019 23:06:17 6 C 36 %
117 01-03-2019 23:18:17 6 C 37 %
118 01-03-2019 23:30:17 5.8 C 38 %
119 01-03-2019 23:42:17 5.7 C 41 %
120 01-03-2019 23:54:17 5.6 C 43 %
121 02-03-2019 00:06:18 5.5 C 43 %
122 02-03-2019 00:18:18 5.4 C 44 %
123 02-03-2019 00:30:17 5.6 C 42 %
124 02-03-2019 00:42:17 5.6 C 38 %
125 02-03-2019 00:54:17 5.4 C 37 %
Sensor: Nr:Datum:Temp:Feuchte:
Aussen-T/F 126 02-03-2019 01:06:17 5.3 C 39 %
127 02-03-2019 01:18:17 5.2 C 40 %
128 02-03-2019 01:30:17 5.1 C 41 %
129 02-03-2019 01:42:17 5 C 42 %
130 02-03-2019 01:54:17 5.1 C 43 %
131 02-03-2019 02:06:18 5 C 45 %
132 02-03-2019 02:18:17 5 C 45 %
133 02-03-2019 02:30:17 5.1 C 42 %
134 02-03-2019 02:42:17 5 C 42 %
135 02-03-2019 02:54:17 5 C 43 %
136 02-03-2019 03:06:17 5 C 44 %
137 02-03-2019 03:18:17 5.1 C 41 %
138 02-03-2019 03:30:17 5.1 C 41 %
139 02-03-2019 03:42:17 5.1 C 41 %
140 02-03-2019 03:54:17 5.1 C 41 %
141 02-03-2019 04:06:17 5 C 41 %
142 02-03-2019 04:18:18 5 C 43 %
143 02-03-2019 04:30:18 5 C 44 %
144 02-03-2019 04:42:18 5.3 C 44 %
145 02-03-2019 04:54:18 5.3 C 43 %
146 02-03-2019 05:06:17 5.4 C 42 %
147 02-03-2019 05:18:17 5.7 C 43 %
148 02-03-2019 05:30:17 5.8 C 41 %
149 02-03-2019 05:42:17 5.8 C 41 %
150 02-03-2019 05:54:17 5.7 C 42 %
Sensor: Nr:Datum:Temp:Feuchte:
Aussen-T/F 151 02-03-2019 06:06:17 5.7 C 44 %
152 02-03-2019 06:18:17 5.6 C 45 %
153 02-03-2019 06:30:17 5.7 C 46 %
154 02-03-2019 06:42:18 5.7 C 45 %
155 02-03-2019 06:54:17 5.9 C 43 %
156 02-03-2019 07:06:18 6.2 C 40 %
157 02-03-2019 07:18:17 6.1 C 41 %
158 02-03-2019 07:30:17 6.1 C 41 %
159 02-03-2019 07:42:17 6.2 C 41 %
160 02-03-2019 07:54:17 6.3 C 41 %
161 02-03-2019 08:06:18 6.3 C 41 %
162 02-03-2019 08:18:17 6.5 C 40 %
163 02-03-2019 08:30:17 6.6 C 40 %
164 02-03-2019 08:42:17 6.9 C 40 %
165 02-03-2019 08:54:17 7 C 38 %
166 02-03-2019 09:06:17 7.1 C 37 %
167 02-03-2019 09:18:17 7.2 C 36 %
168 02-03-2019 09:30:17 7.4 C 36 %
169 02-03-2019 09:42:18 7.5 C 35 %
170 02-03-2019 09:54:17 7.5 C 35 %
171 02-03-2019 10:06:18 7.4 C 36 %
172 02-03-2019 10:18:17 7.6 C 36 %
173 02-03-2019 10:30:17 7.6 C 35 %
174 02-03-2019 10:42:17 7.8 C 35 %
175 02-03-2019 10:54:17 8.2 C 33 %
Sensor: Nr:Datum:Temp:Feuchte:
Aussen-T/F 176 02-03-2019 11:06:17 8.5 C 32 %
177 02-03-2019 11:18:18 8.8 C 31 %
178 02-03-2019 11:30:18 9.2 C 30 %
179 02-03-2019 11:42:18 9.4 C 30 %
180 02-03-2019 11:54:18 9.5 C 30 %
181 02-03-2019 12:06:18 10 C 28 %
182 02-03-2019 12:18:17 10.4 C 27 %
183 02-03-2019 12:30:17 10.5 C 26 %
184 02-03-2019 12:42:17 10.1 C 27 %
185 02-03-2019 12:54:17 10 C 28 %
186 02-03-2019 13:06:18 11 C 25 %
187 02-03-2019 13:18:17 11.1 C 24 %
188 02-03-2019 13:30:17 10.7 C 22 %
189 02-03-2019 13:42:17 11.3 C 23 %
190 02-03-2019 13:54:17 11.5 C 21 %
191 02-03-2019 14:06:17 11.5 C 21 %
192 02-03-2019 14:18:17 12 C 20 %
193 02-03-2019 14:30:18 11.8 C 20 %
194 02-03-2019 14:42:18 12.2 C 20 %
195 02-03-2019 14:54:17 11.7 C 20 %
196 02-03-2019 15:06:17 11.8 C 20 %
197 02-03-2019 15:18:17 11.7 C 20 %
198 02-03-2019 15:30:18 11.9 C 20 %
199 02-03-2019 15:42:18 12 C 20 %
200 02-03-2019 15:54:17 12.4 C 20 %
Sensor: Nr:Datum:Temp:Feuchte:
Aussen-T/F 201 02-03-2019 16:06:17 12.5 C 20 %
202 02-03-2019 16:18:18 12.5 C 20 %
203 02-03-2019 16:30:18 12.2 C 20 %
204 02-03-2019 16:42:18 11.9 C 20 %
205 02-03-2019 16:54:17 11.6 C 20 %
206 02-03-2019 17:06:17 11.2 C 20 %
207 02-03-2019 17:18:17 11 C 20 %
208 02-03-2019 17:30:18 10.8 C 22 %
209 02-03-2019 17:42:18 10.7 C 23 %
210 02-03-2019 17:54:18 10.4 C 25 %
211 02-03-2019 18:06:17 10.2 C 26 %
212 02-03-2019 18:18:17 10 C 27 %
213 02-03-2019 18:30:18 10.1 C 28 %
214 02-03-2019 18:42:18 10 C 29 %
215 02-03-2019 18:54:18 9.8 C 31 %
216 02-03-2019 19:06:18 9.4 C 36 %
217 02-03-2019 19:18:17 9.4 C 37 %
218 02-03-2019 19:30:17 9.1 C 38 %
219 02-03-2019 19:42:17 9.1 C 38 %
220 02-03-2019 19:54:17 8.9 C 39 %
221 02-03-2019 20:06:17 8.9 C 39 %
222 02-03-2019 20:18:17 9.1 C 38 %
223 02-03-2019 20:30:17 9 C 38 %
224 02-03-2019 20:42:17 9.1 C 38 %
225 02-03-2019 20:54:17 8.9 C 40 %
Sensor: Nr:Datum:Temp:Feuchte:
Aussen-T/F 226 02-03-2019 21:06:17 8.9 C 40 %
227 02-03-2019 21:18:18 9.3 C 38 %
228 02-03-2019 21:30:17 9.7 C 36 %
229 02-03-2019 21:42:17 9.7 C 36 %
230 02-03-2019 21:54:17 9.7 C 36 %
231 02-03-2019 22:06:17 9.8 C 35 %
232 02-03-2019 22:18:17 9.6 C 35 %
233 02-03-2019 22:30:18 9.8 C 34 %
234 02-03-2019 22:42:18 9.9 C 34 %
235 02-03-2019 22:54:17 9.8 C 34 %
236 02-03-2019 23:06:18 9.6 C 34 %
237 02-03-2019 23:18:17 9.3 C 34 %
238 02-03-2019 23:30:17 9.2 C 33 %
239 02-03-2019 23:42:17 9.3 C 32 %
240 02-03-2019 23:54:18 9 C 31 %
241 03-03-2019 00:06:18 9 C 30 %
242 03-03-2019 00:18:17 8.6 C 31 %
243 03-03-2019 00:30:17 7.8 C 34 %
244 03-03-2019 00:42:17 7.2 C 38 %
245 03-03-2019 00:54:17 7 C 40 %
246 03-03-2019 01:06:18 7.9 C 40 %
247 03-03-2019 01:18:17 8.6 C 36 %
248 03-03-2019 01:30:17 9.3 C 33 %
249 03-03-2019 01:42:17 9.6 C 31 %
250 03-03-2019 01:54:17 9.6 C 31 %
Sensor: Nr:Datum:Temp:Feuchte:
Aussen-T/F 251 03-03-2019 02:06:17 9.6 C 30 %
252 03-03-2019 02:18:18 9.6 C 30 %
253 03-03-2019 02:30:17 9.5 C 30 %
254 03-03-2019 02:42:17 9.3 C 30 %
255 03-03-2019 02:54:17 9 C 31 %
256 03-03-2019 03:06:17 9.5 C 30 %
257 03-03-2019 03:18:17 9.5 C 30 %
258 03-03-2019 03:30:17 9.5 C 30 %
259 03-03-2019 03:42:17 9.6 C 30 %
260 03-03-2019 03:54:17 9.7 C 30 %
261 03-03-2019 04:06:18 9.7 C 30 %
262 03-03-2019 04:18:17 9.8 C 30 %
263 03-03-2019 04:30:17 9.8 C 30 %
264 03-03-2019 04:42:17 9.7 C 30 %
265 03-03-2019 04:54:17 9.8 C 29 %
266 03-03-2019 05:06:17 9.7 C 29 %
267 03-03-2019 05:18:17 9.8 C 28 %
268 03-03-2019 05:30:17 9.8 C 28 %
269 03-03-2019 05:42:18 9.7 C 28 %
270 03-03-2019 05:54:17 9.6 C 29 %
271 03-03-2019 06:06:17 9.6 C 30 %
272 03-03-2019 06:18:17 9.5 C 30 %
273 03-03-2019 06:30:17 9.7 C 30 %
274 03-03-2019 06:42:17 9.6 C 30 %
275 03-03-2019 06:54:17 9.6 C 30 %
Sensor: Nr:Datum:Temp:Feuchte:
Aussen-T/F 276 03-03-2019 07:06:18 9.6 C 30 %
277 03-03-2019 07:18:17 9.6 C 30 %
278 03-03-2019 07:30:17 9.7 C 30 %
279 03-03-2019 07:42:17 9.8 C 29 %
280 03-03-2019 07:54:17 9.8 C 30 %
281 03-03-2019 08:06:17 9.9 C 30 %
282 03-03-2019 08:18:17 9.9 C 30 %
283 03-03-2019 08:30:17 9.9 C 30 %
284 03-03-2019 08:42:17 10 C 29 %
285 03-03-2019 08:54:17 10.2 C 29 %
286 03-03-2019 09:06:17 10.7 C 28 %
287 03-03-2019 09:18:17 10.7 C 28 %
288 03-03-2019 09:30:17 10.7 C 28 %
289 03-03-2019 09:42:17 10.6 C 28 %
290 03-03-2019 09:54:17 10.9 C 28 %
291 03-03-2019 10:06:17 11 C 27 %
292 03-03-2019 10:18:17 10.9 C 28 %
293 03-03-2019 10:30:17 11 C 27 %
294 03-03-2019 10:42:17 11.1 C 27 %
295 03-03-2019 10:54:17 10.8 C 28 %
296 03-03-2019 11:06:17 10.7 C 30 %
297 03-03-2019 11:18:17 10.7 C 30 %
298 03-03-2019 11:30:17 10.8 C 30 %
299 03-03-2019 11:42:18 10.7 C 30 %
300 03-03-2019 11:54:18 10.8 C 30 %
Sensor: Nr:Datum:Temp:Feuchte:
Aussen-T/F 301 03-03-2019 12:06:18 10.8 C 30 %
302 03-03-2019 12:18:17 10.9 C 30 %
303 03-03-2019 12:30:17 11.1 C 29 %
304 03-03-2019 12:42:17 11.1 C 29 %
305 03-03-2019 12:54:17 11.2 C 28 %
306 03-03-2019 13:06:17 11.5 C 27 %
307 03-03-2019 13:18:17 11.7 C 27 %
308 03-03-2019 13:30:18 11.6 C 27 %
309 03-03-2019 13:42:18 11.7 C 27 %
310 03-03-2019 13:54:17 11.8 C 27 %
311 03-03-2019 14:06:17 11.7 C 27 %
312 03-03-2019 14:18:17 11.5 C 27 %
313 03-03-2019 14:30:17 11.4 C 28 %
314 03-03-2019 14:42:18 11.4 C 28 %
315 03-03-2019 14:54:17 11.4 C 28 %
316 03-03-2019 15:06:17 11.5 C 28 %
317 03-03-2019 15:18:17 11.4 C 28 %
318 03-03-2019 15:30:17 11.4 C 29 %
319 03-03-2019 15:42:17 11.2 C 30 %
320 03-03-2019 15:54:17 11.2 C 30 %
321 03-03-2019 16:06:17 11.2 C 30 %
322 03-03-2019 16:18:17 11.3 C 30 %
323 03-03-2019 16:30:18 11.4 C 29 %
324 03-03-2019 16:42:18 11.5 C 29 %
325 03-03-2019 16:54:18 11.5 C 29 %
Sensor: Nr:Datum:Temp:Feuchte:
Aussen-T/F 326 03-03-2019 17:06:17 11.4 C 28 %
327 03-03-2019 17:18:17 11.4 C 28 %
328 03-03-2019 17:30:17 11.5 C 27 %
329 03-03-2019 17:42:17 11.6 C 27 %
330 03-03-2019 17:54:17 11.8 C 26 %
331 03-03-2019 18:06:17 11.8 C 26 %
332 03-03-2019 18:18:17 11.8 C 26 %
333 03-03-2019 18:30:17 11.7 C 26 %
334 03-03-2019 18:42:17 11.7 C 26 %
335 03-03-2019 18:54:17 11.7 C 26 %
336 03-03-2019 19:06:17 11.7 C 25 %
337 03-03-2019 19:18:17 11.9 C 25 %
338 03-03-2019 19:30:17 11.8 C 25 %
339 03-03-2019 19:42:17 12 C 23 %
340 03-03-2019 19:54:17 11.9 C 24 %
341 03-03-2019 20:06:17 11.8 C 25 %
342 03-03-2019 20:18:18 12 C 23 %
343 03-03-2019 20:30:18 12 C 23 %
344 03-03-2019 20:42:18 11.8 C 25 %
345 03-03-2019 20:54:18 11.9 C 25 %
346 03-03-2019 21:06:18 11.8 C 25 %
347 03-03-2019 21:18:17 11.9 C 26 %
348 03-03-2019 21:30:17 12.1 C 25 %
349 03-03-2019 21:42:17 12.1 C 25 %
350 03-03-2019 21:54:18 12.1 C 25 %
Sensor: Nr:Datum:Temp:Feuchte:
Aussen-T/F 351 03-03-2019 22:06:18 12.1 C 25 %
352 03-03-2019 22:18:17 12.1 C 25 %
353 03-03-2019 22:30:17 12.2 C 25 %
354 03-03-2019 22:42:17 12.3 C 22 %
355 03-03-2019 22:54:17 12.3 C 21 %
356 03-03-2019 23:06:17 12.4 C 20 %
357 03-03-2019 23:18:18 12 C 22 %
358 03-03-2019 23:30:18 12.2 C 21 %
359 03-03-2019 23:42:18 12.2 C 20 %
360 03-03-2019 23:54:17 12.2 C 20 %
361 04-03-2019 00:06:17 12.1 C 20 %
362 04-03-2019 00:18:17 12.4 C 20 %
363 04-03-2019 00:30:18 12.5 C 20 %
364 04-03-2019 00:42:18 12.5 C 20 %
365 04-03-2019 00:54:17 12.8 C 20 %
366 04-03-2019 01:06:17 12.6 C 20 %
367 04-03-2019 01:18:17 12.5 C 20 %
368 04-03-2019 01:30:17 13.1 C 20 %
369 04-03-2019 01:42:18 13.5 C 20 %
370 04-03-2019 01:54:18 13.2 C 20 %
371 04-03-2019 02:06:18 12.7 C 20 %
372 04-03-2019 02:18:17 12.4 C 21 %
373 04-03-2019 02:30:17 12.1 C 24 %
374 04-03-2019 02:42:17 11.7 C 26 %
375 04-03-2019 02:54:17 11.7 C 27 %
Sensor: Nr:Datum:Temp:Feuchte:
Aussen-T/F 376 04-03-2019 03:06:17 11.3 C 29 %
377 04-03-2019 03:18:18 11.4 C 30 %
378 04-03-2019 03:30:18 11.3 C 30 %
379 04-03-2019 03:42:18 11.2 C 30 %
380 04-03-2019 03:54:17 11.2 C 30 %
381 04-03-2019 04:06:18 11 C 31 %
382 04-03-2019 04:18:18 11.2 C 31 %
383 04-03-2019 04:30:17 11.1 C 32 %
384 04-03-2019 04:42:17 11.3 C 31 %
385 04-03-2019 04:54:17 11.1 C 31 %
386 04-03-2019 05:06:17 11.2 C 30 %
387 04-03-2019 05:18:17 11.1 C 30 %
388 04-03-2019 05:30:18 10.8 C 30 %
389 04-03-2019 05:42:18 10.5 C 31 %
390 04-03-2019 05:54:17 10.1 C 32 %
391 04-03-2019 06:06:17 10 C 32 %
392 04-03-2019 06:18:17 10.1 C 33 %
393 04-03-2019 06:30:18 10.4 C 28 %
394 04-03-2019 06:42:18 9.7 C 34 %
395 04-03-2019 06:54:18 10.4 C 30 %
396 04-03-2019 07:06:17 11.1 C 26 %
397 04-03-2019 07:18:17 11.5 C 22 %
398 04-03-2019 07:30:17 11.5 C 21 %
399 04-03-2019 07:42:17 11.8 C 20 %
400 04-03-2019 07:54:17 11.8 C 20 %
Sensor: Nr:Datum:Temp:Feuchte:
Aussen-T/F 401 04-03-2019 08:06:18 12 C 20 %
402 04-03-2019 08:18:17 12.2 C 20 %
403 04-03-2019 08:30:17 12.2 C 20 %
404 04-03-2019 08:42:17 8.9 C 30 %
405 04-03-2019 08:54:17 8.4 C 30 %
406 04-03-2019 09:06:17 8.8 C 25 %
407 04-03-2019 09:18:17 9.4 C 20 %
408 04-03-2019 09:30:18 9.6 C 20 %
409 04-03-2019 09:42:18 8.4 C 30 %
410 04-03-2019 09:54:17 8.4 C 30 %
411 04-03-2019 10:06:17 9.1 C 27 %
412 04-03-2019 10:18:17 10.1 C 20 %
413 04-03-2019 10:30:17 10.1 C 20 %
414 04-03-2019 10:42:17 10.6 C 20 %
415 04-03-2019 10:54:17 10.8 C 20 %
416 04-03-2019 11:06:18 11.7 C 20 %
417 04-03-2019 11:18:17 11.9 C 20 %
418 04-03-2019 11:30:17 11.2 C 20 %
419 04-03-2019 11:42:17 10.6 C 20 %
420 04-03-2019 11:54:17 10.8 C 20 %
421 04-03-2019 12:06:17 11 C 20 %
422 04-03-2019 12:18:17 11.7 C 20 %
423 04-03-2019 12:30:17 11.1 C 20 %
424 04-03-2019 12:42:17 8.7 C 33 %
425 04-03-2019 12:54:17 8.3 C 37 %
Sensor: Nr:Datum:Temp:Feuchte:
Aussen-T/F 426 04-03-2019 13:06:17 8.4 C 43 %
427 04-03-2019 13:18:17 9 C 38 %
428 04-03-2019 13:30:17 9.8 C 31 %
429 04-03-2019 13:42:17 10 C 27 %
430 04-03-2019 13:54:17 9.8 C 29 %
431 04-03-2019 14:06:17 9.4 C 31 %
432 04-03-2019 14:18:18 9.4 C 31 %
433 04-03-2019 14:30:18 9.3 C 30 %
434 04-03-2019 14:42:18 8 C 36 %
435 04-03-2019 14:54:17 7 C 39 %
436 04-03-2019 15:06:17 6.5 C 38 %
437 04-03-2019 15:18:17 6.6 C 36 %
438 04-03-2019 15:30:17 6.5 C 35 %
439 04-03-2019 15:42:17 6.6 C 31 %
440 04-03-2019 15:54:17 7.1 C 26 %
441 04-03-2019 16:06:17 7.1 C 26 %
442 04-03-2019 16:18:18 7.3 C 27 %
443 04-03-2019 16:30:17 7.1 C 25 %
444 04-03-2019 16:42:17 7.3 C 25 %
445 04-03-2019 16:54:17 7.2 C 25 %
446 04-03-2019 17:06:17 7.1 C 25 %
447 04-03-2019 17:18:17 6.9 C 27 %
448 04-03-2019 17:30:17 6.9 C 26 %
449 04-03-2019 17:42:17 6.8 C 27 %
450 04-03-2019 17:54:17 6.7 C 27 %
Sensor: Nr:Datum:Temp:Feuchte:
Aussen-T/F 451 04-03-2019 18:06:17 6.5 C 27 %
452 04-03-2019 18:18:18 6.5 C 29 %
453 04-03-2019 18:30:17 6.2 C 30 %
454 04-03-2019 18:42:17 6.2 C 31 %
455 04-03-2019 18:54:17 6.4 C 30 %
456 04-03-2019 19:06:17 6.3 C 30 %
457 04-03-2019 19:18:17 6.3 C 30 %
458 04-03-2019 19:30:18 6.3 C 30 %
459 04-03-2019 19:42:18 6.2 C 31 %
460 04-03-2019 19:54:17 6.4 C 30 %
461 04-03-2019 20:06:17 6.4 C 30 %
462 04-03-2019 20:18:17 6.6 C 30 %
463 04-03-2019 20:30:18 6.5 C 30 %
464 04-03-2019 20:42:18 6.3 C 31 %
465 04-03-2019 20:54:18 5.8 C 34 %
466 04-03-2019 21:06:18 6 C 32 %
467 04-03-2019 21:18:17 6 C 33 %
468 04-03-2019 21:30:17 5.8 C 35 %
469 04-03-2019 21:42:17 5.9 C 36 %
470 04-03-2019 21:54:17 6.3 C 34 %
471 04-03-2019 22:06:18 6.3 C 35 %
472 04-03-2019 22:18:17 6.6 C 30 %
473 04-03-2019 22:30:17 6.5 C 31 %
474 04-03-2019 22:42:17 6.6 C 30 %
475 04-03-2019 22:54:17 6.5 C 31 %
Sensor: Nr:Datum:Temp:Feuchte:
Aussen-T/F 476 04-03-2019 23:06:17 6.4 C 30 %
477 04-03-2019 23:18:17 5.9 C 35 %
478 04-03-2019 23:30:18 5.8 C 36 %
479 04-03-2019 23:42:18 5.7 C 37 %
480 04-03-2019 23:54:17 6 C 35 %
481 05-03-2019 00:06:17 6.1 C 33 %
482 05-03-2019 00:18:18 6.3 C 30 %
483 05-03-2019 00:30:18 6.4 C 28 %
484 05-03-2019 00:42:18 6.4 C 27 %
485 05-03-2019 00:54:18 6.3 C 27 %
486 05-03-2019 01:06:18 6.3 C 29 %
487 05-03-2019 01:18:18 6.3 C 29 %
488 05-03-2019 01:30:18 6.3 C 30 %
489 05-03-2019 01:42:18 6.3 C 30 %
490 05-03-2019 01:54:17 6.2 C 29 %
491 05-03-2019 02:06:17 6.3 C 28 %
492 05-03-2019 02:18:17 6.3 C 28 %
493 05-03-2019 02:30:17 6.2 C 27 %
494 05-03-2019 02:42:17 6.3 C 27 %
495 05-03-2019 02:54:17 6.3 C 27 %
496 05-03-2019 03:06:17 6.3 C 27 %
497 05-03-2019 03:18:17 6.3 C 27 %
498 05-03-2019 03:30:17 6.1 C 29 %
499 05-03-2019 03:42:17 5.9 C 30 %
500 05-03-2019 03:54:17 5.9 C 30 %
Sensor: Nr:Datum:Temp:Feuchte:
Aussen-T/F 501 05-03-2019 04:06:17 5.8 C 29 %
502 05-03-2019 04:18:17 5.9 C 29 %
503 05-03-2019 04:30:17 5.8 C 30 %
504 05-03-2019 04:42:17 5.9 C 29 %
505 05-03-2019 04:54:17 6 C 27 %
506 05-03-2019 05:06:17 5.8 C 29 %
507 05-03-2019 05:18:18 5.7 C 30 %
508 05-03-2019 05:30:18 5.7 C 30 %
509 05-03-2019 05:42:18 5.8 C 30 %
510 05-03-2019 05:54:18 5.6 C 30 %
511 05-03-2019 06:06:17 5.7 C 27 %
512 05-03-2019 06:18:17 5.3 C 29 %
513 05-03-2019 06:30:17 5.6 C 27 %
514 05-03-2019 06:42:18 5.6 C 27 %
515 05-03-2019 06:54:18 5.7 C 26 %
516 05-03-2019 07:06:18 5.7 C 26 %
517 05-03-2019 07:18:17 5.9 C 26 %
518 05-03-2019 07:30:17 6 C 26 %
519 05-03-2019 07:42:17 6 C 25 %
520 05-03-2019 07:54:17 6.2 C 25 %
521 05-03-2019 08:06:18 6.1 C 26 %
522 05-03-2019 08:18:17 6 C 27 %
523 05-03-2019 08:30:17 6.2 C 27 %
524 05-03-2019 08:42:17 6.2 C 27 %
525 05-03-2019 08:54:17 5.8 C 30 %
Sensor: Nr:Datum:Temp:Feuchte:
Aussen-T/F 526 05-03-2019 09:06:17 5.8 C 32 %
527 05-03-2019 09:18:17 6 C 30 %
528 05-03-2019 09:30:17 5.8 C 32 %
529 05-03-2019 09:42:17 5.6 C 35 %
530 05-03-2019 09:54:17 5.7 C 36 %
531 05-03-2019 10:06:18 5.9 C 36 %
532 05-03-2019 10:18:17 6.2 C 35 %
533 05-03-2019 10:30:18 6.2 C 35 %
534 05-03-2019 10:42:18 6.2 C 35 %
535 05-03-2019 10:54:17 6.4 C 35 %
536 05-03-2019 11:06:17 6.4 C 34 %
537 05-03-2019 11:18:17 6.6 C 34 %
538 05-03-2019 11:30:17 6.6 C 34 %
539 05-03-2019 11:42:17 6.7 C 32 %
540 05-03-2019 11:54:17 6.7 C 31 %
541 05-03-2019 12:06:17 6.9 C 30 %
542 05-03-2019 12:18:17 7 C 27 %
543 05-03-2019 12:30:18 6.9 C 28 %
544 05-03-2019 12:42:18 7 C 28 %
545 05-03-2019 12:54:17 7.1 C 27 %
546 05-03-2019 13:06:17 7.6 C 26 %
547 05-03-2019 13:18:17 7.7 C 25 %
548 05-03-2019 13:30:17 7.8 C 25 %
549 05-03-2019 13:42:17 8.1 C 25 %
550 05-03-2019 13:54:17 7.9 C 21 %
Sensor: Nr:Datum:Temp:Feuchte:
Aussen-T/F 551 05-03-2019 14:06:17 8.3 C 23 %
552 05-03-2019 14:18:17 8.5 C 20 %
553 05-03-2019 14:30:17 8.4 C 20 %
554 05-03-2019 14:42:17 8.6 C 20 %
555 05-03-2019 14:54:17 8.5 C 20 %
556 05-03-2019 15:06:18 8.6 C 20 %
557 05-03-2019 15:18:17 8.6 C 20 %
558 05-03-2019 15:30:17 8.9 C 20 %
559 05-03-2019 15:42:17 8.7 C 20 %
560 05-03-2019 15:54:18 8.7 C 20 %
561 05-03-2019 16:06:17 8.6 C 20 %
562 05-03-2019 16:18:16 10.7 C 20 %
563 05-03-2019 16:30:17 10.5 C 20 %
564 05-03-2019 16:42:17 10.6 C 20 %
565 05-03-2019 16:54:17 10.5 C 20 %
566 05-03-2019 17:06:18 9.7 C 20 %
567 05-03-2019 17:18:17 10.1 C 20 %
568 05-03-2019 17:30:17 8.5 C 20 %
569 05-03-2019 17:42:17 7.9 C 25 %
570 05-03-2019 17:54:17 7.2 C 28 %
571 05-03-2019 18:06:18 6.7 C 31 %
572 05-03-2019 18:18:17 6.2 C 33 %
573 05-03-2019 18:30:17 6 C 33 %
574 05-03-2019 18:42:17 6 C 32 %
575 05-03-2019 18:54:17 6 C 31 %
Sensor: Nr:Datum:Temp:Feuchte:
Aussen-T/F 576 05-03-2019 19:06:17 6.3 C 30 %
577 05-03-2019 19:18:17 6.1 C 31 %
578 05-03-2019 19:30:17 6.2 C 31 %
579 05-03-2019 19:42:17 6 C 31 %
580 05-03-2019 19:54:17 5.8 C 32 %
581 05-03-2019 20:06:18 5.1 C 35 %
582 05-03-2019 20:18:17 4.4 C 39 %
583 05-03-2019 20:30:17 4 C 40 %
584 05-03-2019 20:42:17 3.5 C 45 %
585 05-03-2019 20:54:17 3.2 C 46 %
586 05-03-2019 21:06:17 2.8 C 47 %
587 05-03-2019 21:18:17 2.7 C 50 %
588 05-03-2019 21:30:17 2.9 C 52 %
589 05-03-2019 21:42:17 3.2 C 52 %
590 05-03-2019 21:54:18 3.4 C 53 %
591 05-03-2019 22:06:17 3.8 C 54 %
592 05-03-2019 22:18:17 4.1 C 52 %
593 05-03-2019 22:30:18 4.2 C 51 %
594 05-03-2019 22:42:18 4.2 C 51 %
595 05-03-2019 22:54:17 4.4 C 47 %
596 05-03-2019 23:06:17 4.4 C 46 %
597 05-03-2019 23:18:18 4.7 C 46 %
598 05-03-2019 23:30:17 4.8 C 46 %
599 05-03-2019 23:42:17 4.9 C 45 %
600 05-03-2019 23:54:17 4.9 C 45 %
Sensor: Nr:Datum:Temp:Feuchte:
Aussen-T/F 601 06-03-2019 00:06:18 5 C 45 %
602 06-03-2019 00:18:17 5 C 45 %
603 06-03-2019 00:30:17 5.2 C 44 %
604 06-03-2019 00:42:17 5.2 C 43 %
605 06-03-2019 00:54:17 5.5 C 44 %
606 06-03-2019 01:06:18 5.6 C 44 %
607 06-03-2019 01:18:17 5.5 C 42 %
608 06-03-2019 01:30:17 5.5 C 43 %
609 06-03-2019 01:42:17 5.6 C 44 %
610 06-03-2019 01:54:17 6.2 C 44 %
611 06-03-2019 02:06:17 6.4 C 41 %
612 06-03-2019 02:18:17 6.5 C 40 %
613 06-03-2019 02:30:17 6.6 C 39 %
614 06-03-2019 02:42:17 6.7 C 38 %
615 06-03-2019 02:54:17 6.5 C 39 %
616 06-03-2019 03:06:18 6.4 C 40 %
617 06-03-2019 03:18:17 6.2 C 41 %
618 06-03-2019 03:30:17 6.1 C 42 %
619 06-03-2019 03:42:17 6.1 C 43 %
620 06-03-2019 03:54:17 6.1 C 44 %
621 06-03-2019 04:06:18 6 C 44 %
622 06-03-2019 04:18:17 5.8 C 45 %
623 06-03-2019 04:30:17 5.8 C 46 %
624 06-03-2019 04:42:17 6.4 C 46 %
625 06-03-2019 04:54:17 6.4 C 43 %
Sensor: Nr:Datum:Temp:Feuchte:
Aussen-T/F 626 06-03-2019 05:06:17 6.5 C 42 %
627 06-03-2019 05:18:17 6.6 C 41 %
628 06-03-2019 05:30:17 6.5 C 41 %
629 06-03-2019 05:42:17 6.2 C 41 %
630 06-03-2019 05:54:17 5.8 C 43 %
631 06-03-2019 06:06:17 6.1 C 43 %
632 06-03-2019 06:18:17 5.6 C 42 %
633 06-03-2019 06:30:18 5.2 C 42 %
634 06-03-2019 06:42:18 4.5 C 45 %
635 06-03-2019 06:54:17 5.2 C 47 %
636 06-03-2019 07:06:17 4.5 C 46 %
637 06-03-2019 07:18:17 4.1 C 47 %
638 06-03-2019 07:30:17 4.2 C 50 %
639 06-03-2019 07:42:17 4.4 C 51 %
640 06-03-2019 07:54:17 4.6 C 51 %
641 06-03-2019 08:06:17 5 C 50 %
642 06-03-2019 08:18:17 5.6 C 49 %
643 06-03-2019 08:30:17 6.4 C 42 %
644 06-03-2019 08:42:17 6.8 C 38 %
645 06-03-2019 08:54:17 7.3 C 32 %
646 06-03-2019 09:06:17 7.6 C 31 %
647 06-03-2019 09:18:17 7.8 C 31 %
648 06-03-2019 09:30:17 8.2 C 30 %
649 06-03-2019 09:42:17 8.4 C 28 %
650 06-03-2019 09:54:17 8.9 C 28 %
Sensor: Nr:Datum:Temp:Feuchte:
Aussen-T/F 651 06-03-2019 10:06:17 9.8 C 26 %
652 06-03-2019 10:18:17 10.4 C 20 %
653 06-03-2019 10:30:17 10.8 C 20 %
654 06-03-2019 10:42:17 10.8 C 20 %
655 06-03-2019 10:54:17 10.9 C 20 %
656 06-03-2019 11:06:17 11.7 C 20 %
657 06-03-2019 11:18:18 12.4 C 20 %
658 06-03-2019 11:30:17 14.1 C 20 %
659 06-03-2019 11:42:17 13.7 C 20 %
660 06-03-2019 11:54:17 14.2 C 20 %
661 06-03-2019 12:06:18 13.5 C 20 %
662 06-03-2019 12:18:17 13.5 C 20 %
663 06-03-2019 12:30:17 13.2 C 20 %
664 06-03-2019 12:42:17 13.2 C 20 %
665 06-03-2019 12:54:17 13.4 C 20 %
666 06-03-2019 13:06:18 13.6 C 20 %
667 06-03-2019 13:18:17 13.8 C 20 %
668 06-03-2019 13:30:17 13.7 C 20 %
669 06-03-2019 13:42:17 13.7 C 20 %
670 06-03-2019 13:54:17 13.7 C 20 %
671 06-03-2019 14:06:18 13.7 C 20 %
672 06-03-2019 14:18:17 13.6 C 20 %
673 06-03-2019 14:30:17 13.7 C 20 %
674 06-03-2019 14:42:17 14.3 C 20 %
675 06-03-2019 14:54:17 14.5 C 20 %
Sensor: Nr:Datum:Temp:Feuchte:
Aussen-T/F 676 06-03-2019 15:06:17 14.5 C 20 %
677 06-03-2019 15:18:17 14.5 C 20 %
678 06-03-2019 15:30:17 14.6 C 20 %
679 06-03-2019 15:42:17 14.5 C 20 %
680 06-03-2019 15:54:17 14.6 C 20 %
681 06-03-2019 16:06:17 14.8 C 20 %
682 06-03-2019 16:18:17 15.1 C 20 %
683 06-03-2019 16:30:17 15.3 C 20 %
684 06-03-2019 16:42:17 14.6 C 20 %
685 06-03-2019 16:54:17 12.4 C 20 %
686 06-03-2019 17:06:17 12.2 C 25 %
687 06-03-2019 17:18:17 12.3 C 26 %
688 06-03-2019 17:30:17 13.1 C 20 %
689 06-03-2019 17:42:17 13.1 C 20 %
690 06-03-2019 17:54:17 12.8 C 20 %
691 06-03-2019 18:06:17 12.1 C 20 %
692 06-03-2019 18:18:17 12.2 C 20 %
693 06-03-2019 18:30:17 11.7 C 25 %
694 06-03-2019 18:42:17 11.7 C 25 %
695 06-03-2019 18:54:17 11.2 C 25 %
696 06-03-2019 19:06:17 10.7 C 29 %
697 06-03-2019 19:18:17 10.5 C 31 %
698 06-03-2019 19:30:17 10.1 C 33 %
699 06-03-2019 19:42:17 10.2 C 34 %
700 06-03-2019 19:54:17 9.9 C 36 %
Sensor: Nr:Datum:Temp:Feuchte:
Aussen-T/F 701 06-03-2019 20:06:17 10 C 35 %
702 06-03-2019 20:18:17 9.8 C 37 %
703 06-03-2019 20:30:17 9.6 C 37 %
704 06-03-2019 20:42:17 9.5 C 38 %
705 06-03-2019 20:54:17 10 C 36 %
706 06-03-2019 21:06:17 10.1 C 33 %
707 06-03-2019 21:18:17 10.1 C 33 %
708 06-03-2019 21:30:17 10.1 C 34 %
709 06-03-2019 21:42:17 10.1 C 34 %
710 06-03-2019 21:54:17 9.9 C 35 %
711 06-03-2019 22:06:18 10 C 35 %
712 06-03-2019 22:18:17 10.1 C 34 %
713 06-03-2019 22:30:17 10 C 34 %
714 06-03-2019 22:42:17 10 C 33 %
715 06-03-2019 22:54:17 9.9 C 34 %
716 06-03-2019 23:06:17 9.7 C 36 %
717 06-03-2019 23:18:17 9.6 C 36 %
718 06-03-2019 23:30:17 10.2 C 31 %
719 06-03-2019 23:42:17 10.1 C 31 %
720 06-03-2019 23:54:17 9.8 C 33 %
721 07-03-2019 00:06:17 9.5 C 38 %
722 07-03-2019 00:18:17 9.8 C 36 %
723 07-03-2019 00:30:17 9.6 C 37 %
724 07-03-2019 00:42:18 9.3 C 40 %
725 07-03-2019 00:54:17 9.8 C 39 %
Sensor: Nr:Datum:Temp:Feuchte:
Aussen-T/F 726 07-03-2019 01:06:17 9.8 C 40 %
727 07-03-2019 01:18:17 9.8 C 41 %
728 07-03-2019 01:30:17 9.9 C 41 %
729 07-03-2019 01:42:17 9.9 C 43 %
730 07-03-2019 01:54:17 9.7 C 45 %
731 07-03-2019 02:06:17 9.5 C 48 %
732 07-03-2019 02:18:17 9 C 49 %
733 07-03-2019 02:30:17 8.5 C 51 %
734 07-03-2019 02:42:17 8.7 C 52 %
735 07-03-2019 02:54:17 8.8 C 53 %
736 07-03-2019 03:06:17 8.7 C 52 %
737 07-03-2019 03:18:17 8.6 C 52 %
738 07-03-2019 03:30:18 8.6 C 51 %
739 07-03-2019 03:42:18 8.7 C 50 %
740 07-03-2019 03:54:17 8.6 C 49 %
741 07-03-2019 04:06:17 9 C 44 %
742 07-03-2019 04:18:17 9.5 C 42 %
743 07-03-2019 04:30:17 9.5 C 38 %
744 07-03-2019 04:42:17 9.5 C 37 %
745 07-03-2019 04:54:17 9.1 C 37 %
746 07-03-2019 05:06:17 9.8 C 35 %
747 07-03-2019 05:19:17 10 C 32 %
748 07-03-2019 05:30:17 10.6 C 29 %
749 07-03-2019 05:42:17 11 C 28 %
750 07-03-2019 05:54:17 11.5 C 26 %
Sensor: Nr:Datum:Temp:Feuchte:
Aussen-T/F 751 07-03-2019 06:06:17 11.4 C 26 %
752 07-03-2019 06:18:17 11.6 C 24 %
753 07-03-2019 06:30:18 11.2 C 24 %
754 07-03-2019 06:42:18 11.2 C 23 %
755 07-03-2019 06:55:17 11.2 C 23 %
756 07-03-2019 07:06:17 11 C 24 %
757 07-03-2019 07:18:18 11 C 22 %
758 07-03-2019 07:31:17 10.8 C 22 %
759 07-03-2019 07:42:17 10.5 C 20 %
760 07-03-2019 07:54:17 10.4 C 20 %
761 07-03-2019 08:06:17 10.3 C 20 %
762 07-03-2019 08:19:17 10.2 C 21 %
763 07-03-2019 08:30:17 10.2 C 22 %
764 07-03-2019 08:42:17 10.1 C 25 %
765 07-03-2019 08:54:17 10.4 C 25 %
766 07-03-2019 09:06:17 10 C 26 %
767 07-03-2019 09:19:17 10 C 26 %
768 07-03-2019 09:30:17 9.1 C 34 %
769 07-03-2019 09:42:17 9.5 C 31 %
770 07-03-2019 09:54:17 9.6 C 30 %
771 07-03-2019 10:07:17 9.8 C 29 %
772 07-03-2019 10:19:17 9.7 C 30 %
773 07-03-2019 10:30:17 10 C 28 %
774 07-03-2019 10:42:17 10.5 C 28 %
775 07-03-2019 10:54:17 10.2 C 28 %
Sensor: Nr:Datum:Temp:Feuchte:
Aussen-T/F 776 07-03-2019 11:07:17 8.8 C 37 %
777 07-03-2019 11:19:17 9.2 C 34 %
778 07-03-2019 11:30:17 9.7 C 30 %
779 07-03-2019 11:42:17 9.7 C 28 %
780 07-03-2019 11:55:17 10 C 25 %
781 07-03-2019 12:07:17 10 C 22 %
782 07-03-2019 12:18:17 10.2 C 20 %
783 07-03-2019 12:30:18 10.4 C 20 %
784 07-03-2019 12:42:18 10.5 C 20 %
785 07-03-2019 12:55:17 11.4 C 20 %
786 07-03-2019 13:07:17 11.5 C 20 %
787 07-03-2019 13:18:18 12.2 C 20 %
788 07-03-2019 13:31:17 12 C 20 %
789 07-03-2019 13:43:17 12.1 C 20 %
790 07-03-2019 13:55:17 10.8 C 20 %
791 07-03-2019 14:06:17 8.6 C 31 %
792 07-03-2019 14:19:17 9.1 C 29 %
793 07-03-2019 14:31:17 10 C 26 %
794 07-03-2019 14:43:17 10.5 C 22 %
795 07-03-2019 14:55:17 11.2 C 20 %
796 07-03-2019 15:06:17 11.4 C 20 %
797 07-03-2019 15:19:17 11.4 C 20 %
798 07-03-2019 15:31:17 9.7 C 20 %
799 07-03-2019 15:43:17 8.9 C 31 %
800 07-03-2019 15:55:17 8.4 C 32 %
Sensor: Nr:Datum:Temp:Feuchte:
Aussen-T/F 801 07-03-2019 16:07:17 9.1 C 32 %
802 07-03-2019 16:19:17 9.7 C 29 %
803 07-03-2019 16:31:17 9.9 C 25 %
804 07-03-2019 16:43:17 10.1 C 20 %
805 07-03-2019 16:55:17 9.5 C 26 %
806 07-03-2019 17:07:18 10.1 C 25 %
807 07-03-2019 17:19:17 10 C 20 %
808 07-03-2019 17:31:17 10.6 C 20 %
809 07-03-2019 17:43:18 9.5 C 20 %
810 07-03-2019 17:55:17 10.5 C 20 %
811 07-03-2019 18:06:18 10.4 C 20 %
812 07-03-2019 18:19:17 9.2 C 20 %
813 07-03-2019 18:31:17 9.1 C 20 %
814 07-03-2019 18:43:17 8.9 C 20 %
815 07-03-2019 18:55:17 8.5 C 20 %
816 07-03-2019 19:07:17 8.3 C 23 %
817 07-03-2019 19:19:17 7.8 C 28 %
818 07-03-2019 19:31:17 7.7 C 28 %
819 07-03-2019 19:43:17 7.3 C 32 %
820 07-03-2019 19:55:17 7.5 C 30 %
821 07-03-2019 20:06:18 8.1 C 25 %
822 07-03-2019 20:19:17 8.2 C 25 %
823 07-03-2019 20:31:17 8.5 C 21 %
824 07-03-2019 20:43:17 8.5 C 21 %
825 07-03-2019 20:55:18 8.6 C 21 %
Sensor: Nr:Datum:Temp:Feuchte:
Aussen-T/F 826 07-03-2019 21:07:17 8.6 C 20 %
827 07-03-2019 21:19:17 8.5 C 21 %
828 07-03-2019 21:31:17 8.9 C 20 %
829 07-03-2019 21:43:18 8.8 C 20 %
830 07-03-2019 21:55:17 8.8 C 20 %
831 07-03-2019 22:07:17 8.9 C 20 %
832 07-03-2019 22:19:18 8.9 C 20 %
833 07-03-2019 22:31:17 8.6 C 20 %
834 07-03-2019 22:43:17 8.5 C 21 %
835 07-03-2019 22:55:17 8.4 C 20 %
836 07-03-2019 23:07:17 8.1 C 21 %
837 07-03-2019 23:19:17 7.9 C 25 %
838 07-03-2019 23:31:17 8.1 C 23 %
839 07-03-2019 23:43:17 8.2 C 23 %
840 07-03-2019 23:55:18 7.6 C 28 %
841 08-03-2019 00:07:17 7.6 C 29 %
842 08-03-2019 00:19:17 7 C 35 %
843 08-03-2019 00:31:18 6.3 C 40 %
844 08-03-2019 00:43:18 5.9 C 42 %
845 08-03-2019 00:55:17 5.5 C 45 %
846 08-03-2019 01:07:17 5.7 C 45 %
847 08-03-2019 01:19:17 6 C 41 %
848 08-03-2019 01:31:17 6.1 C 40 %
849 08-03-2019 01:43:17 6.5 C 36 %
850 08-03-2019 01:55:17 7.2 C 32 %
Sensor: Nr:Datum:Temp:Feuchte:
Aussen-T/F 851 08-03-2019 02:07:17 7.4 C 27 %
852 08-03-2019 02:19:17 7.7 C 26 %
853 08-03-2019 02:31:17 7.8 C 25 %
854 08-03-2019 02:43:17 7.8 C 21 %
855 08-03-2019 02:55:18 7.8 C 21 %
856 08-03-2019 03:07:17 7.8 C 21 %
857 08-03-2019 03:19:17 7.8 C 20 %
858 08-03-2019 03:31:17 7.6 C 20 %
859 08-03-2019 03:43:17 7.8 C 20 %
860 08-03-2019 03:55:17 7.5 C 20 %
861 08-03-2019 04:07:17 7.4 C 21 %
862 08-03-2019 04:19:17 7.6 C 21 %
863 08-03-2019 04:31:17 7.5 C 21 %
864 08-03-2019 04:43:17 7.5 C 23 %
865 08-03-2019 04:55:17 7.5 C 23 %
866 08-03-2019 05:07:17 7.4 C 23 %
867 08-03-2019 05:19:17 7.2 C 25 %
868 08-03-2019 05:31:17 7.2 C 25 %
869 08-03-2019 05:43:18 7.2 C 26 %
870 08-03-2019 05:55:18 7.1 C 26 %
871 08-03-2019 06:07:17 7 C 26 %
872 08-03-2019 06:19:17 7 C 27 %
873 08-03-2019 06:31:17 7.1 C 26 %
874 08-03-2019 06:43:17 7.2 C 26 %
875 08-03-2019 06:55:17 7.1 C 27 %
Sensor: Nr:Datum:Temp:Feuchte:
Aussen-T/F 876 08-03-2019 07:07:17 7.1 C 27 %
877 08-03-2019 07:19:17 7.1 C 27 %
878 08-03-2019 07:31:17 7.3 C 27 %
879 08-03-2019 07:43:17 7.4 C 27 %
880 08-03-2019 07:55:17 7.4 C 27 %
881 08-03-2019 08:07:18 7.4 C 28 %
882 08-03-2019 08:19:17 7.4 C 28 %
883 08-03-2019 08:31:17 7.5 C 28 %
884 08-03-2019 08:43:17 7.5 C 29 %
885 08-03-2019 08:55:17 7.4 C 30 %
886 08-03-2019 09:07:18 7.4 C 31 %
887 08-03-2019 09:19:17 7.3 C 32 %
888 08-03-2019 09:31:17 6.9 C 36 %
889 08-03-2019 09:43:17 6.6 C 40 %
890 08-03-2019 09:55:17 6.5 C 41 %
891 08-03-2019 10:07:18 6.5 C 40 %
892 08-03-2019 10:19:17 7.4 C 35 %
893 08-03-2019 10:31:17 7.7 C 30 %
894 08-03-2019 10:43:17 8.2 C 27 %
895 08-03-2019 10:55:17 8.4 C 27 %
896 08-03-2019 11:07:18 8.1 C 27 %
897 08-03-2019 11:19:17 8.3 C 26 %
898 08-03-2019 11:31:17 8.9 C 25 %
899 08-03-2019 11:43:17 9 C 21 %
900 08-03-2019 11:55:17 9.5 C 20 %
Sensor: Nr:Datum:Temp:Feuchte:
Aussen-T/F 901 08-03-2019 12:07:18 9.9 C 20 %
902 08-03-2019 12:19:17 8.8 C 20 %
903 08-03-2019 12:31:17 8.9 C 20 %
904 08-03-2019 12:43:17 9.1 C 20 %
905 08-03-2019 12:55:17 9.5 C 20 %
906 08-03-2019 13:07:17 9.2 C 20 %
907 08-03-2019 13:19:17 9.2 C 20 %
908 08-03-2019 13:31:17 9.8 C 20 %
909 08-03-2019 13:43:17 9.9 C 20 %
910 08-03-2019 13:55:17 10 C 20 %
911 08-03-2019 14:07:17 10 C 20 %
912 08-03-2019 14:19:17 9.7 C 20 %
913 08-03-2019 14:31:17 10.1 C 20 %
914 08-03-2019 14:43:17 10.2 C 20 %
915 08-03-2019 14:55:17 10.8 C 20 %
916 08-03-2019 15:07:17 11 C 20 %
917 08-03-2019 15:19:17 11.2 C 20 %
918 08-03-2019 15:31:17 11.8 C 20 %
919 08-03-2019 15:43:17 11.8 C 20 %
920 08-03-2019 15:55:17 10.5 C 20 %
921 08-03-2019 16:07:17 10.1 C 20 %
922 08-03-2019 16:19:17 10 C 20 %
923 08-03-2019 16:31:17 11.1 C 20 %
924 08-03-2019 16:43:18 9.7 C 20 %
925 08-03-2019 16:55:17 9.8 C 20 %
Sensor: Nr:Datum:Temp:Feuchte:
Aussen-T/F 926 08-03-2019 17:07:17 9 C 20 %
927 08-03-2019 17:19:17 8.7 C 21 %
928 08-03-2019 17:31:17 8.4 C 27 %
929 08-03-2019 17:43:17 8.1 C 30 %
930 08-03-2019 17:55:17 7.4 C 33 %
931 08-03-2019 18:07:17 6.9 C 38 %
932 08-03-2019 18:19:17 6.9 C 37 %
933 08-03-2019 18:31:17 6.7 C 37 %
934 08-03-2019 18:43:17 6.5 C 37 %
935 08-03-2019 18:55:18 6.3 C 40 %
936 08-03-2019 19:07:17 6.4 C 41 %
937 08-03-2019 19:19:17 6.4 C 41 %
938 08-03-2019 19:31:18 6.1 C 41 %
939 08-03-2019 19:43:18 6 C 42 %
940 08-03-2019 19:55:17 5.9 C 43 %
941 08-03-2019 20:07:17 5.6 C 43 %
942 08-03-2019 20:19:18 5.5 C 45 %
943 08-03-2019 20:31:17 5.4 C 45 %
944 08-03-2019 20:43:17 5.4 C 45 %
945 08-03-2019 20:55:17 5.6 C 46 %
946 08-03-2019 21:07:17 5.9 C 45 %
947 08-03-2019 21:19:18 6 C 42 %
948 08-03-2019 21:31:17 6.2 C 40 %
949 08-03-2019 21:43:17 6.1 C 40 %
950 08-03-2019 21:55:17 6.5 C 36 %
Sensor: Nr:Datum:Temp:Feuchte:
Aussen-T/F 951 08-03-2019 22:07:17 6.4 C 36 %
952 08-03-2019 22:19:18 6.2 C 36 %
953 08-03-2019 22:31:17 6.5 C 35 %
954 08-03-2019 22:43:17 7.1 C 30 %
955 08-03-2019 22:55:17 7.5 C 28 %
956 08-03-2019 23:07:17 7.8 C 26 %
957 08-03-2019 23:19:17 7.4 C 27 %
958 08-03-2019 23:31:18 7.7 C 26 %
959 08-03-2019 23:43:18 7.5 C 27 %
960 08-03-2019 23:55:17 7.7 C 25 %
961 09-03-2019 00:07:17 7.7 C 25 %
962 09-03-2019 00:19:17 7.8 C 25 %
963 09-03-2019 00:31:18 8 C 23 %
964 09-03-2019 00:43:18 8.3 C 20 %
965 09-03-2019 00:55:17 8.2 C 20 %
966 09-03-2019 01:07:17 8.5 C 20 %
967 09-03-2019 01:19:17 8.5 C 20 %
968 09-03-2019 01:31:17 8.7 C 20 %
969 09-03-2019 01:43:17 8.8 C 20 %
970 09-03-2019 01:55:17 8.9 C 20 %
971 09-03-2019 02:07:17 8.9 C 20 %
972 09-03-2019 02:19:17 9 C 20 %
973 09-03-2019 02:31:17 9 C 20 %
974 09-03-2019 02:43:17 9 C 20 %
975 09-03-2019 02:55:17 9 C 20 %
Sensor: Nr:Datum:Temp:Feuchte:
Aussen-T/F 976 09-03-2019 03:07:17 8.8 C 20 %
977 09-03-2019 03:19:17 8.7 C 20 %
978 09-03-2019 03:31:17 8.6 C 23 %
979 09-03-2019 03:43:17 8.3 C 26 %
980 09-03-2019 03:55:17 7.9 C 30 %
981 09-03-2019 04:07:17 7.5 C 33 %
982 09-03-2019 04:19:17 7.3 C 35 %
983 09-03-2019 04:31:17 7.3 C 35 %
984 09-03-2019 04:43:17 7.4 C 35 %
985 09-03-2019 04:55:17 7.2 C 36 %
986 09-03-2019 05:07:17 7.3 C 37 %
987 09-03-2019 05:19:17 7.3 C 38 %
988 09-03-2019 05:31:17 7.1 C 39 %
989 09-03-2019 05:43:17 7.1 C 40 %
990 09-03-2019 05:55:17 7.2 C 40 %
991 09-03-2019 06:07:17 7.5 C 40 %
992 09-03-2019 06:19:17 7.5 C 40 %
993 09-03-2019 06:31:17 7.6 C 40 %
994 09-03-2019 06:43:17 7.7 C 40 %
995 09-03-2019 06:55:17 7.8 C 40 %
996 09-03-2019 07:07:18 8 C 39 %
997 09-03-2019 07:19:17 8.1 C 38 %
998 09-03-2019 07:31:17 8.3 C 37 %
999 09-03-2019 07:43:17 8.6 C 35 %
1000 09-03-2019 07:55:17 8.4 C 35 %
Sensor: Nr:Datum:Temp:Feuchte:
Aussen-T/F 1001 09-03-2019 08:07:17 8.9 C 34 %
1002 09-03-2019 08:19:17 9 C 33 %
1003 09-03-2019 08:31:17 9 C 33 %
1004 09-03-2019 08:43:17 9.5 C 32 %
1005 09-03-2019 08:55:17 9.8 C 31 %
1006 09-03-2019 09:07:17 9.8 C 31 %
1007 09-03-2019 09:19:17 9.8 C 31 %
1008 09-03-2019 09:31:17 9.8 C 32 %
1009 09-03-2019 09:43:18 9.9 C 31 %
1010 09-03-2019 09:55:17 9.9 C 31 %
1011 09-03-2019 10:07:17 10 C 30 %
1012 09-03-2019 10:19:17 10.2 C 28 %
1013 09-03-2019 10:31:18 10.2 C 27 %
1014 09-03-2019 10:43:18 10.2 C 28 %
1015 09-03-2019 10:55:17 10.1 C 28 %
1016 09-03-2019 11:07:17 10.3 C 27 %
1017 09-03-2019 11:19:17 10.5 C 27 %
1018 09-03-2019 11:31:18 10.6 C 27 %
1019 09-03-2019 11:43:18 11 C 25 %
1020 09-03-2019 11:55:17 11.2 C 25 %
1021 09-03-2019 12:07:17 11.2 C 23 %
1022 09-03-2019 12:19:17 11.3 C 24 %
1023 09-03-2019 12:31:17 11.5 C 23 %
1024 09-03-2019 12:43:18 12.1 C 20 %
1025 09-03-2019 12:55:17 11.8 C 21 %
Sensor: Nr:Datum:Temp:Feuchte:
Aussen-T/F 1026 09-03-2019 13:07:17 12.1 C 21 %
1027 09-03-2019 13:19:17 12.3 C 20 %
1028 09-03-2019 13:31:17 12.7 C 20 %
1029 09-03-2019 13:43:17 12.5 C 20 %
1030 09-03-2019 13:55:18 12.8 C 20 %
1031 09-03-2019 14:07:17 13.1 C 20 %
1032 09-03-2019 14:19:17 13.3 C 20 %
1033 09-03-2019 14:31:18 13.4 C 20 %
1034 09-03-2019 14:43:18 13.5 C 20 %
1035 09-03-2019 14:55:17 12.8 C 20 %
1036 09-03-2019 15:07:17 13 C 20 %
1037 09-03-2019 15:19:17 12.9 C 20 %
1038 09-03-2019 15:31:18 13.2 C 20 %
1039 09-03-2019 15:43:18 14.1 C 20 %
1040 09-03-2019 15:55:17 13.7 C 20 %
1041 09-03-2019 16:07:17 13.5 C 20 %
1042 09-03-2019 16:19:17 13 C 20 %
1043 09-03-2019 16:31:17 13.4 C 20 %
1044 09-03-2019 16:43:17 13.1 C 20 %
1045 09-03-2019 16:55:17 13.2 C 20 %
1046 09-03-2019 17:07:17 13.5 C 20 %
1047 09-03-2019 17:19:17 12.7 C 20 %
1048 09-03-2019 17:31:17 13.2 C 20 %
1049 09-03-2019 17:43:17 12.7 C 20 %
1050 09-03-2019 17:55:17 12.3 C 20 %
Sensor: Nr:Datum:Temp:Feuchte:
Aussen-T/F 1051 09-03-2019 18:07:17 11.8 C 20 %
1052 09-03-2019 18:19:17 11.7 C 20 %
1053 09-03-2019 18:31:17 11.6 C 20 %
1054 09-03-2019 18:43:17 11.7 C 20 %
1055 09-03-2019 18:55:17 11.7 C 20 %
1056 09-03-2019 19:07:18 10.7 C 20 %
1057 09-03-2019 19:19:17 10.2 C 20 %
1058 09-03-2019 19:31:17 9.6 C 27 %
1059 09-03-2019 19:43:17 9.5 C 28 %
1060 09-03-2019 19:55:17 9.2 C 30 %
1061 09-03-2019 20:07:18 9 C 30 %
1062 09-03-2019 20:19:17 9.1 C 31 %
1063 09-03-2019 20:31:17 9 C 32 %
1064 09-03-2019 20:43:17 9 C 32 %
1065 09-03-2019 20:55:17 9 C 32 %
1066 09-03-2019 21:07:17 9.3 C 28 %
1067 09-03-2019 21:19:17 9.7 C 26 %
1068 09-03-2019 21:31:18 9.2 C 32 %
1069 09-03-2019 21:43:18 8.9 C 35 %
1070 09-03-2019 21:55:17 8.7 C 35 %
1071 09-03-2019 22:07:17 8.7 C 36 %
1072 09-03-2019 22:19:17 8.8 C 36 %
1073 09-03-2019 22:31:17 9.6 C 23 %
1074 09-03-2019 22:43:17 10 C 20 %
1075 09-03-2019 22:55:17 10.1 C 20 %
Sensor: Nr:Datum:Temp:Feuchte:
Aussen-T/F 1076 09-03-2019 23:07:18 10 C 20 %
1077 09-03-2019 23:19:17 10 C 20 %
1078 09-03-2019 23:31:17 10 C 20 %
1079 09-03-2019 23:43:17 10 C 20 %
1080 09-03-2019 23:55:17 9.8 C 20 %
1081 10-03-2019 00:07:17 9.8 C 20 %
1082 10-03-2019 00:19:17 9.8 C 20 %
1083 10-03-2019 00:31:17 9.7 C 20 %
1084 10-03-2019 00:43:17 9.3 C 20 %
1085 10-03-2019 00:55:17 9.3 C 20 %
1086 10-03-2019 01:07:17 9.3 C 20 %
1087 10-03-2019 01:19:17 9.2 C 20 %
1088 10-03-2019 01:31:17 9.2 C 20 %
1089 10-03-2019 01:43:17 9 C 20 %
1090 10-03-2019 01:55:17 9.1 C 20 %
1091 10-03-2019 02:07:17 9 C 20 %
1092 10-03-2019 02:19:18 9 C 20 %
1093 10-03-2019 02:31:17 9 C 20 %
1094 10-03-2019 02:43:17 9.1 C 20 %
1095 10-03-2019 02:55:17 9.1 C 20 %
1096 10-03-2019 03:07:17 8.9 C 21 %
1097 10-03-2019 03:19:17 8.5 C 25 %
1098 10-03-2019 03:31:17 8.2 C 26 %
1099 10-03-2019 03:43:17 7.7 C 30 %
1100 10-03-2019 03:55:17 7.6 C 33 %
Sensor: Nr:Datum:Temp:Feuchte:
Aussen-T/F 1101 10-03-2019 04:07:17 7.8 C 33 %
1102 10-03-2019 04:19:17 7.3 C 37 %
1103 10-03-2019 04:31:17 7.1 C 42 %
1104 10-03-2019 04:43:17 7 C 44 %
1105 10-03-2019 04:55:17 6.8 C 46 %
1106 10-03-2019 05:07:17 6.9 C 49 %
1107 10-03-2019 05:19:17 6.9 C 52 %
1108 10-03-2019 05:31:17 6.8 C 53 %
1109 10-03-2019 05:43:17 6.9 C 54 %
1110 10-03-2019 05:55:18 6.8 C 54 %
1111 10-03-2019 06:07:17 6.9 C 54 %
1112 10-03-2019 06:19:18 7.1 C 53 %
1113 10-03-2019 06:31:17 6.8 C 54 %
1114 10-03-2019 06:43:17 6.7 C 53 %
1115 10-03-2019 06:55:17 6.7 C 54 %
1116 10-03-2019 07:07:18 6.9 C 54 %
1117 10-03-2019 07:19:17 7.1 C 54 %
1118 10-03-2019 07:31:17 7.2 C 54 %
1119 10-03-2019 07:43:17 7.4 C 54 %
1120 10-03-2019 07:55:17 7.4 C 54 %
1121 10-03-2019 08:07:17 7.6 C 54 %
1122 10-03-2019 08:19:17 8 C 54 %
1123 10-03-2019 08:31:17 8.7 C 55 %
1124 10-03-2019 08:43:17 9 C 53 %
1125 10-03-2019 08:55:17 9.4 C 48 %
Sensor: Nr:Datum:Temp:Feuchte:
Aussen-T/F 1126 10-03-2019 09:07:17 9.7 C 46 %
1127 10-03-2019 09:19:17 10 C 43 %
1128 10-03-2019 09:31:17 10.3 C 43 %
1129 10-03-2019 09:43:17 11 C 41 %
1130 10-03-2019 09:55:17 11.2 C 40 %
1131 10-03-2019 10:07:18 11.4 C 40 %
1132 10-03-2019 10:19:17 11.6 C 40 %
1133 10-03-2019 10:31:17 11.7 C 40 %
1134 10-03-2019 10:43:17 12.6 C 39 %
1135 10-03-2019 10:55:17 12.7 C 35 %
1136 10-03-2019 11:07:17 12.9 C 31 %
1137 10-03-2019 11:19:17 13.3 C 25 %
1138 10-03-2019 11:31:17 13.1 C 21 %
1139 10-03-2019 11:43:17 13.3 C 21 %
1140 10-03-2019 11:55:18 13.6 C 20 %
1141 10-03-2019 12:07:17 13.9 C 20 %
1142 10-03-2019 12:19:17 14 C 20 %
1143 10-03-2019 12:31:18 14.2 C 20 %
1144 10-03-2019 12:43:18 13.9 C 20 %
1145 10-03-2019 12:55:17 14 C 20 %
1146 10-03-2019 13:07:17 13.7 C 20 %
1147 10-03-2019 13:19:17 13.7 C 20 %
1148 10-03-2019 13:31:17 14.5 C 20 %
1149 10-03-2019 13:43:17 14.8 C 20 %
1150 10-03-2019 13:55:17 14.8 C 20 %
Sensor: Nr:Datum:Temp:Feuchte:
Aussen-T/F 1151 10-03-2019 14:07:17 14.5 C 20 %
1152 10-03-2019 14:19:17 14.2 C 20 %
1153 10-03-2019 14:31:17 14.1 C 20 %
1154 10-03-2019 14:43:17 13.9 C 20 %
1155 10-03-2019 14:55:17 13.7 C 20 %
1156 10-03-2019 15:07:17 13.5 C 20 %
1157 10-03-2019 15:19:17 13.2 C 20 %
1158 10-03-2019 15:31:17 13.4 C 20 %
1159 10-03-2019 15:43:17 13.6 C 20 %
1160 10-03-2019 15:55:17 13.4 C 20 %
1161 10-03-2019 16:07:18 12.8 C 20 %
1162 10-03-2019 16:19:17 12.2 C 20 %
1163 10-03-2019 16:31:18 12.2 C 20 %
1164 10-03-2019 16:43:18 12.1 C 20 %
1165 10-03-2019 16:55:17 11.7 C 20 %
1166 10-03-2019 17:07:17 11.7 C 20 %
1167 10-03-2019 17:19:17 11.1 C 20 %
1168 10-03-2019 17:31:17 9.1 C 20 %
1169 10-03-2019 17:43:17 9 C 20 %
1170 10-03-2019 17:55:17 8.7 C 20 %
1171 10-03-2019 18:07:18 8.7 C 20 %
1172 10-03-2019 18:19:17 6.5 C 31 %
1173 10-03-2019 18:31:18 6.4 C 33 %
1174 10-03-2019 18:43:18 6.1 C 35 %
1175 10-03-2019 18:55:17 6 C 33 %
Sensor: Nr:Datum:Temp:Feuchte:
Aussen-T/F 1176 10-03-2019 19:07:17 6.4 C 30 %
1177 10-03-2019 19:19:17 6.3 C 30 %
1178 10-03-2019 19:31:18 6.6 C 27 %
1179 10-03-2019 19:43:18 6.6 C 26 %
1180 10-03-2019 19:55:17 6.8 C 21 %
1181 10-03-2019 20:07:17 6.9 C 20 %
1182 10-03-2019 20:19:17 5.4 C 20 %
1183 10-03-2019 20:31:17 5.1 C 20 %
1184 10-03-2019 20:43:17 5 C 23 %
1185 10-03-2019 20:55:17 5 C 25 %
1186 10-03-2019 21:07:17 4.8 C 26 %
1187 10-03-2019 21:19:17 4.7 C 27 %
1188 10-03-2019 21:31:17 4.7 C 26 %
1189 10-03-2019 21:43:17 4.9 C 25 %
1190 10-03-2019 21:55:17 4.5 C 25 %
1191 10-03-2019 22:07:17 4.3 C 26 %
1192 10-03-2019 22:19:17 4.7 C 26 %
1193 10-03-2019 22:31:17 4.8 C 26 %
1194 10-03-2019 22:43:17 4.7 C 27 %
1195 10-03-2019 22:55:17 4.5 C 28 %
1196 10-03-2019 23:07:17 4.3 C 29 %
1197 10-03-2019 23:19:17 4.6 C 27 %
1198 10-03-2019 23:31:17 4.6 C 26 %
1199 10-03-2019 23:43:17 4.3 C 27 %
1200 10-03-2019 23:55:17 4.1 C 26 %
Sensor: Nr:Datum:Temp:Feuchte:
Aussen-T/F 1201 11-03-2019 00:07:17 3.8 C 29 %
1202 11-03-2019 00:19:17 3.3 C 31 %
1203 11-03-2019 00:31:17 3.6 C 30 %
1204 11-03-2019 00:43:17 3.3 C 31 %
1205 11-03-2019 00:55:18 3.7 C 30 %
1206 11-03-2019 01:07:17 3.8 C 28 %
1207 11-03-2019 01:19:17 3.7 C 28 %
1208 11-03-2019 01:31:18 3.5 C 29 %
1209 11-03-2019 01:43:18 4.2 C 25 %
1210 11-03-2019 01:55:17 4.3 C 23 %
1211 11-03-2019 02:07:17 4.7 C 23 %
1212 11-03-2019 02:19:17 4.7 C 25 %
1213 11-03-2019 02:31:17 4.3 C 27 %
1214 11-03-2019 02:43:17 4.3 C 28 %
1215 11-03-2019 02:55:17 4.3 C 28 %
1216 11-03-2019 03:07:17 4.4 C 29 %
1217 11-03-2019 03:19:17 3 C 33 %
1218 11-03-2019 03:31:17 1.5 C 41 %
1219 11-03-2019 03:43:17 1.2 C 47 %
1220 11-03-2019 03:55:17 1.3 C 51 %
1221 11-03-2019 04:07:18 1.5 C 54 %
1222 11-03-2019 04:19:17 1.6 C 55 %
1223 11-03-2019 04:31:17 1.7 C 56 %
1224 11-03-2019 04:43:17 1.5 C 55 %
1225 11-03-2019 04:55:17 1.5 C 55 %
Sensor: Nr:Datum:Temp:Feuchte:
Aussen-T/F 1226 11-03-2019 05:07:17 1.5 C 55 %
1227 11-03-2019 05:19:17 1.2 C 52 %
1228 11-03-2019 05:31:17 1.2 C 51 %
1229 11-03-2019 05:43:17 1.2 C 51 %
1230 11-03-2019 05:55:17 1.2 C 49 %
1231 11-03-2019 06:07:18 0.8 C 48 %
1232 11-03-2019 06:19:17 0.6 C 50 %
1233 11-03-2019 06:31:17 0.6 C 52 %
1234 11-03-2019 06:43:17 0.5 C 54 %
1235 11-03-2019 06:55:17 0.5 C 54 %
1236 11-03-2019 07:07:17 0.6 C 56 %
1237 11-03-2019 07:19:17 0.7 C 56 %
1238 11-03-2019 07:31:17 0.8 C 57 %
1239 11-03-2019 07:43:17 1.1 C 55 %
1240 11-03-2019 07:55:17 1.3 C 55 %
1241 11-03-2019 08:07:17 1.2 C 54 %
1242 11-03-2019 08:19:17 1.2 C 54 %
1243 11-03-2019 08:31:18 1.8 C 53 %
1244 11-03-2019 08:43:18 2.3 C 50 %
1245 11-03-2019 08:55:17 2.7 C 44 %
1246 11-03-2019 09:07:17 3.1 C 34 %
1247 11-03-2019 09:19:18 3.3 C 32 %
1248 11-03-2019 09:31:17 2.7 C 34 %
1249 11-03-2019 09:43:17 2.4 C 38 %
1250 11-03-2019 09:55:17 2.6 C 39 %
Sensor: Nr:Datum:Temp:Feuchte:
Aussen-T/F 1251 11-03-2019 10:07:17 3.2 C 37 %
1252 11-03-2019 10:19:17 3.9 C 36 %
1253 11-03-2019 10:31:17 3.7 C 34 %
1254 11-03-2019 10:43:17 3.5 C 33 %
1255 11-03-2019 10:55:17 3.7 C 32 %
1256 11-03-2019 11:07:18 4.3 C 31 %
1257 11-03-2019 11:19:17 4.4 C 30 %
1258 11-03-2019 11:31:17 5.8 C 27 %
1259 11-03-2019 11:43:17 5.2 C 23 %
1260 11-03-2019 11:55:18 5.1 C 21 %
1261 11-03-2019 12:07:17 5 C 21 %
1262 11-03-2019 12:19:17 5.2 C 20 %
1263 11-03-2019 12:31:17 5.5 C 20 %
1264 11-03-2019 12:43:17 5.6 C 20 %
1265 11-03-2019 12:55:17 5.9 C 20 %
1266 11-03-2019 13:07:17 5.6 C 20 %
1267 11-03-2019 13:19:17 5.9 C 20 %
1268 11-03-2019 13:31:17 6 C 20 %
1269 11-03-2019 13:43:17 6.4 C 20 %
1270 11-03-2019 13:55:17 6.1 C 20 %
1271 11-03-2019 14:07:17 6.1 C 20 %
1272 11-03-2019 14:19:17 6.7 C 20 %
1273 11-03-2019 14:31:17 6.8 C 20 %
1274 11-03-2019 14:43:17 7 C 20 %
1275 11-03-2019 14:55:17 7.2 C 20 %
Sensor: Nr:Datum:Temp:Feuchte:
Aussen-T/F 1276 11-03-2019 15:07:17 7.3 C 20 %
1277 11-03-2019 15:19:17 7.2 C 20 %
1278 11-03-2019 15:31:17 7.7 C 20 %
1279 11-03-2019 15:43:17 7.4 C 20 %
1280 11-03-2019 15:55:17 7.3 C 20 %
1281 11-03-2019 16:07:17 6.8 C 20 %
1282 11-03-2019 16:19:17 6.9 C 20 %
1283 11-03-2019 16:31:17 6.9 C 20 %
1284 11-03-2019 16:43:17 6.7 C 20 %
1285 11-03-2019 16:55:17 7 C 20 %
1286 11-03-2019 17:07:17 6.1 C 20 %
1287 11-03-2019 17:19:18 5.8 C 20 %
1288 11-03-2019 17:31:17 7.6 C 20 %
1289 11-03-2019 17:43:17 8.5 C 20 %
1290 11-03-2019 17:55:17 8.7 C 20 %
1291 11-03-2019 18:07:18 7.3 C 20 %
1292 11-03-2019 18:19:17 6.4 C 20 %
1293 11-03-2019 18:31:17 6 C 20 %
1294 11-03-2019 18:43:17 5.7 C 20 %
1295 11-03-2019 18:55:17 5.4 C 20 %
1296 11-03-2019 19:07:17 5.3 C 20 %
1297 11-03-2019 19:19:17 5.2 C 20 %
1298 11-03-2019 19:31:17 5.2 C 20 %
1299 11-03-2019 19:43:17 5.3 C 20 %
1300 11-03-2019 19:55:17 5.1 C 20 %
Sensor: Nr:Datum:Temp:Feuchte:
Aussen-T/F 1301 11-03-2019 20:07:17 5 C 20 %
1302 11-03-2019 20:19:17 5.1 C 20 %
1303 11-03-2019 20:31:17 4.9 C 20 %
1304 11-03-2019 20:43:18 4.9 C 20 %
1305 11-03-2019 20:55:17 4.8 C 20 %
1306 11-03-2019 21:07:17 4.4 C 20 %
1307 11-03-2019 21:19:17 4.7 C 20 %
1308 11-03-2019 21:31:17 4.6 C 20 %
1309 11-03-2019 21:43:17 4.6 C 20 %
1310 11-03-2019 21:55:17 4.7 C 20 %
1311 11-03-2019 22:07:17 4.7 C 20 %
1312 11-03-2019 22:19:17 4.7 C 20 %
1313 11-03-2019 22:31:17 4.4 C 20 %
1314 11-03-2019 22:43:17 4.2 C 20 %
1315 11-03-2019 22:55:17 4.1 C 20 %
1316 11-03-2019 23:07:17 4.1 C 20 %
1317 11-03-2019 23:19:17 4 C 20 %
1318 11-03-2019 23:31:18 4 C 20 %
1319 11-03-2019 23:43:18 3.6 C 23 %
1320 11-03-2019 23:55:17 3.7 C 23 %
1321 12-03-2019 00:07:17 3.5 C 25 %
1322 12-03-2019 00:19:17 3.4 C 27 %
1323 12-03-2019 00:31:18 3.2 C 30 %
1324 12-03-2019 00:43:18 3.3 C 30 %
1325 12-03-2019 00:55:17 3.2 C 30 %
Sensor: Nr:Datum:Temp:Feuchte:
Aussen-T/F 1326 12-03-2019 01:07:17 2.7 C 31 %
1327 12-03-2019 01:19:17 2 C 35 %
1328 12-03-2019 01:31:18 2.4 C 36 %
1329 12-03-2019 01:43:18 2.1 C 35 %
1330 12-03-2019 01:55:17 1.6 C 40 %
1331 12-03-2019 02:07:17 1.3 C 40 %
1332 12-03-2019 02:19:18 0.9 C 42 %
1333 12-03-2019 02:31:17 0.8 C 44 %
1334 12-03-2019 02:43:17 0.8 C 45 %
1335 12-03-2019 02:55:17 1.1 C 41 %
1336 12-03-2019 03:07:18 1.1 C 42 %
1337 12-03-2019 03:19:17 1.3 C 42 %
1338 12-03-2019 03:31:17 1.1 C 40 %
1339 12-03-2019 03:43:17 1.4 C 40 %
1340 12-03-2019 03:55:17 1.2 C 38 %
1341 12-03-2019 04:07:18 0.9 C 41 %
1342 12-03-2019 04:19:17 1.1 C 40 %
1343 12-03-2019 04:31:17 0.8 C 41 %
1344 12-03-2019 04:43:17 0.7 C 42 %
1345 12-03-2019 04:55:17 0.8 C 43 %
1346 12-03-2019 05:07:17 1.1 C 41 %
1347 12-03-2019 05:19:17 1.4 C 40 %
1348 12-03-2019 05:31:17 1.4 C 40 %
1349 12-03-2019 05:43:17 1.4 C 40 %
1350 12-03-2019 05:55:17 1.4 C 40 %
Sensor: Nr:Datum:Temp:Feuchte:
Aussen-T/F 1351 12-03-2019 06:07:17 1.3 C 41 %
1352 12-03-2019 06:19:17 1.2 C 41 %
1353 12-03-2019 06:31:17 0.9 C 43 %
1354 12-03-2019 06:43:17 0.6 C 46 %
1355 12-03-2019 06:55:18 0.7 C 47 %
1356 12-03-2019 07:07:17 0.9 C 47 %
1357 12-03-2019 07:19:17 0.9 C 47 %
1358 12-03-2019 07:31:17 1.4 C 47 %
1359 12-03-2019 07:43:18 1.8 C 46 %
1360 12-03-2019 07:55:17 2.2 C 45 %
1361 12-03-2019 08:07:17 2.4 C 41 %
1362 12-03-2019 08:19:17 2.6 C 39 %
1363 12-03-2019 08:31:18 3.2 C 38 %
1364 12-03-2019 08:43:18 3.8 C 32 %
1365 12-03-2019 08:55:17 4.4 C 30 %
1366 12-03-2019 09:07:17 4.6 C 30 %
1367 12-03-2019 09:19:18 4.7 C 30 %
1368 12-03-2019 09:31:17 5 C 29 %
1369 12-03-2019 09:43:17 5.7 C 27 %
1370 12-03-2019 09:55:17 6.3 C 23 %
1371 12-03-2019 10:07:17 7.3 C 20 %
1372 12-03-2019 10:19:17 7.4 C 20 %
1373 12-03-2019 10:31:17 7.4 C 20 %
1374 12-03-2019 10:43:17 8.6 C 20 %
1375 12-03-2019 10:55:17 8.1 C 20 %
Sensor: Nr:Datum:Temp:Feuchte:
Aussen-T/F 1376 12-03-2019 11:07:17 8.4 C 20 %
1377 12-03-2019 11:19:17 9.1 C 20 %
1378 12-03-2019 11:31:17 9.9 C 20 %
1379 12-03-2019 11:43:17 9.3 C 20 %
1380 12-03-2019 11:55:17 9.2 C 20 %
1381 12-03-2019 12:07:17 9.3 C 20 %
1382 12-03-2019 12:19:17 9.4 C 20 %
1383 12-03-2019 12:31:17 9.6 C 20 %
1384 12-03-2019 12:43:17 9.9 C 20 %
1385 12-03-2019 12:55:17 9.7 C 20 %
1386 12-03-2019 13:07:18 9.6 C 20 %
1387 12-03-2019 13:19:17 9.8 C 20 %
1388 12-03-2019 13:31:17 10.3 C 20 %
1389 12-03-2019 13:43:17 9.7 C 20 %
1390 12-03-2019 13:55:17 10.1 C 20 %
1391 12-03-2019 14:07:17 10.1 C 20 %
1392 12-03-2019 14:19:17 10.3 C 20 %
1393 12-03-2019 14:31:18 10.5 C 20 %
1394 12-03-2019 14:43:18 10.6 C 20 %
1395 12-03-2019 14:55:17 11.4 C 20 %
1396 12-03-2019 15:07:17 11 C 20 %
1397 12-03-2019 15:19:17 10.4 C 20 %
1398 12-03-2019 15:31:17 10.4 C 20 %
1399 12-03-2019 15:43:17 10.2 C 20 %
1400 12-03-2019 15:55:17 10.6 C 20 %
Sensor: Nr:Datum:Temp:Feuchte:
Aussen-T/F 1401 12-03-2019 16:07:18 10.4 C 20 %
1402 12-03-2019 16:19:17 10 C 20 %
1403 12-03-2019 16:31:17 9.8 C 20 %
1404 12-03-2019 16:43:17 9.7 C 20 %
1405 12-03-2019 16:55:17 9.4 C 20 %
1406 12-03-2019 17:07:17 9.2 C 20 %
1407 12-03-2019 17:19:17 8.8 C 20 %
1408 12-03-2019 17:31:18 8.2 C 20 %
1409 12-03-2019 17:43:18 8 C 20 %
1410 12-03-2019 17:55:17 7.6 C 20 %
1411 12-03-2019 18:07:17 7.1 C 20 %
1412 12-03-2019 18:19:17 7 C 20 %
1413 12-03-2019 18:31:17 7.3 C 20 %
1414 12-03-2019 18:43:17 7.4 C 20 %
1415 12-03-2019 18:55:17 7.7 C 20 %
1416 12-03-2019 19:07:17 7.7 C 20 %
1417 12-03-2019 19:19:17 7.8 C 20 %
1418 12-03-2019 19:31:17 7.9 C 20 %
1419 12-03-2019 19:43:17 8.1 C 20 %
1420 12-03-2019 19:55:17 7.7 C 20 %
1421 12-03-2019 20:07:17 8 C 20 %
1422 12-03-2019 20:19:17 8.6 C 20 %
1423 12-03-2019 20:31:17 8.6 C 20 %
1424 12-03-2019 20:43:17 8.9 C 20 %
1425 12-03-2019 20:55:17 9 C 20 %
Sensor: Nr:Datum:Temp:Feuchte:
Aussen-T/F 1426 12-03-2019 21:07:18 9.7 C 20 %
1427 12-03-2019 21:19:17 10.1 C 20 %
1428 12-03-2019 21:31:17 10.3 C 20 %
1429 12-03-2019 21:43:17 10.5 C 20 %
1430 12-03-2019 21:55:17 10.6 C 20 %
1431 12-03-2019 22:07:18 10.7 C 20 %
1432 12-03-2019 22:19:17 10.9 C 20 %
1433 12-03-2019 22:31:17 10.6 C 20 %
1434 12-03-2019 22:43:17 10.5 C 20 %
1435 12-03-2019 22:55:17 9.6 C 20 %
1436 12-03-2019 23:07:17 8.4 C 20 %
1437 12-03-2019 23:19:17 8.4 C 20 %
1438 12-03-2019 23:31:17 8 C 25 %
1439 12-03-2019 23:43:17 6.2 C 32 %
1440 12-03-2019 23:55:17 5.7 C 36 %
1441 13-03-2019 00:07:17 5.5 C 36 %
1442 13-03-2019 00:19:17 5.4 C 32 %
1443 13-03-2019 00:31:17 5.6 C 31 %
1444 13-03-2019 00:43:17 5.6 C 30 %
1445 13-03-2019 00:55:17 5.6 C 30 %
1446 13-03-2019 01:07:17 5.4 C 27 %
1447 13-03-2019 01:19:18 5.1 C 28 %
1448 13-03-2019 01:31:17 5 C 29 %
1449 13-03-2019 01:43:17 5.1 C 26 %
1450 13-03-2019 01:55:17 4.9 C 27 %
Sensor: Nr:Datum:Temp:Feuchte:
Aussen-T/F 1451 13-03-2019 02:07:18 4.8 C 28 %
1452 13-03-2019 02:19:17 4.7 C 30 %
1453 13-03-2019 02:31:17 5.1 C 28 %
1454 13-03-2019 02:43:17 5.4 C 21 %
1455 13-03-2019 02:55:17 5.3 C 21 %
1456 13-03-2019 03:07:17 5 C 23 %
1457 13-03-2019 03:19:17 5 C 21 %
1458 13-03-2019 03:31:17 5.3 C 21 %
1459 13-03-2019 03:43:18 5.4 C 23 %
1460 13-03-2019 03:55:17 5.1 C 25 %
1461 13-03-2019 04:07:17 5 C 25 %
1462 13-03-2019 04:19:17 5 C 25 %
1463 13-03-2019 04:31:17 4.7 C 29 %
1464 13-03-2019 04:43:17 4.6 C 30 %
1465 13-03-2019 04:55:17 4.6 C 30 %
1466 13-03-2019 05:07:17 4.6 C 32 %
1467 13-03-2019 05:19:17 4.4 C 33 %
1468 13-03-2019 05:31:17 4.6 C 33 %
1469 13-03-2019 05:43:17 4.9 C 33 %
1470 13-03-2019 05:55:17 4.6 C 32 %
1471 13-03-2019 06:07:17 4.4 C 31 %
1472 13-03-2019 06:19:17 4.1 C 33 %
1473 13-03-2019 06:31:17 4.7 C 31 %
1474 13-03-2019 06:43:17 5 C 29 %
1475 13-03-2019 06:55:18 4.9 C 30 %
Sensor: Nr:Datum:Temp:Feuchte:
Aussen-T/F 1476 13-03-2019 07:07:17 4.7 C 29 %
1477 13-03-2019 07:19:17 4.8 C 29 %
1478 13-03-2019 07:31:17 4.8 C 28 %
1479 13-03-2019 07:43:17 5.1 C 26 %
1480 13-03-2019 07:55:18 5 C 29 %
1481 13-03-2019 08:07:17 5.1 C 28 %
1482 13-03-2019 08:19:17 5.6 C 26 %
1483 13-03-2019 08:31:17 5.8 C 26 %
1484 13-03-2019 08:43:18 5.8 C 26 %
1485 13-03-2019 08:55:17 5.8 C 27 %
1486 13-03-2019 09:07:17 5.7 C 27 %
1487 13-03-2019 09:19:17 6.3 C 20 %
1488 13-03-2019 09:31:18 6.4 C 20 %
1489 13-03-2019 09:43:18 6 C 20 %
1490 13-03-2019 09:55:17 5.9 C 21 %
1491 13-03-2019 10:07:17 6.7 C 20 %
1492 13-03-2019 10:19:17 6.9 C 20 %
1493 13-03-2019 10:31:17 6.8 C 20 %
1494 13-03-2019 10:43:17 7 C 20 %
1495 13-03-2019 10:55:17 7.2 C 20 %
1496 13-03-2019 11:07:17 7.6 C 20 %
1497 13-03-2019 11:19:17 7.9 C 20 %
1498 13-03-2019 11:31:17 8.2 C 20 %
1499 13-03-2019 11:43:17 8 C 20 %
1500 13-03-2019 11:55:17 7.6 C 20 %
Sensor: Nr:Datum:Temp:Feuchte:
Aussen-T/F 1501 13-03-2019 12:07:17 8.1 C 20 %
1502 13-03-2019 12:19:17 8.2 C 20 %
1503 13-03-2019 12:31:17 8.6 C 20 %
1504 13-03-2019 12:43:17 8.2 C 20 %
1505 13-03-2019 12:55:17 8 C 20 %
1506 13-03-2019 13:07:17 7.6 C 20 %
1507 13-03-2019 13:19:17 7.9 C 20 %
1508 13-03-2019 13:31:17 7.7 C 20 %
1509 13-03-2019 13:43:17 7.6 C 23 %
1510 13-03-2019 13:55:17 7.8 C 20 %
1511 13-03-2019 14:07:18 8 C 20 %
1512 13-03-2019 14:19:17 7.8 C 21 %
1513 13-03-2019 14:31:17 7.6 C 21 %
1514 13-03-2019 14:43:17 7.7 C 23 %
1515 13-03-2019 14:55:17 7.9 C 21 %
1516 13-03-2019 15:07:17 7.5 C 25 %
1517 13-03-2019 15:19:17 7.5 C 25 %
1518 13-03-2019 15:31:18 7.7 C 25 %
1519 13-03-2019 15:43:18 7.3 C 27 %
1520 13-03-2019 15:55:17 6.9 C 31 %
1521 13-03-2019 16:07:17 6.2 C 37 %
1522 13-03-2019 16:19:17 5.8 C 41 %
1523 13-03-2019 16:31:17 5.9 C 41 %
1524 13-03-2019 16:43:18 5.9 C 42 %
1525 13-03-2019 16:55:17 5.8 C 44 %
Sensor: Nr:Datum:Temp:Feuchte:
Aussen-T/F 1526 13-03-2019 17:07:17 6.2 C 40 %
1527 13-03-2019 17:19:18 6.2 C 37 %
1528 13-03-2019 17:31:17 6 C 37 %
1529 13-03-2019 17:43:17 6 C 38 %
1530 13-03-2019 17:55:17 6.1 C 37 %
1531 13-03-2019 18:07:17 6.5 C 35 %
1532 13-03-2019 18:19:17 6 C 37 %
1533 13-03-2019 18:31:17 5.7 C 42 %
1534 13-03-2019 18:43:17 5.3 C 46 %
1535 13-03-2019 18:55:17 4.2 C 46 %
1536 13-03-2019 19:07:17 4.3 C 47 %
1537 13-03-2019 19:19:17 4.2 C 47 %
1538 13-03-2019 19:31:17 4.1 C 49 %
1539 13-03-2019 19:43:17 4.1 C 50 %
1540 13-03-2019 19:55:17 4.3 C 52 %
1541 13-03-2019 20:07:17 4.8 C 44 %
1542 13-03-2019 20:19:17 4.7 C 42 %
1543 13-03-2019 20:31:17 4.4 C 43 %
1544 13-03-2019 20:43:17 4.3 C 42 %
1545 13-03-2019 20:55:17 4.5 C 42 %
1546 13-03-2019 21:07:17 4.4 C 42 %
1547 13-03-2019 21:19:17 4.3 C 45 %
1548 13-03-2019 21:31:17 4.4 C 46 %
1549 13-03-2019 21:43:17 4.3 C 46 %
1550 13-03-2019 21:55:17 4.6 C 46 %
Sensor: Nr:Datum:Temp:Feuchte:
Aussen-T/F 1551 13-03-2019 22:07:17 4.3 C 46 %
1552 13-03-2019 22:19:17 4.4 C 47 %
1553 13-03-2019 22:31:18 4.4 C 47 %
1554 13-03-2019 22:43:18 4.5 C 46 %
1555 13-03-2019 22:55:17 4.6 C 45 %
1556 13-03-2019 23:07:17 3.8 C 48 %
1557 13-03-2019 23:19:17 3.6 C 50 %
1558 13-03-2019 23:31:18 3.7 C 53 %
1559 13-03-2019 23:43:18 3.8 C 53 %
1560 13-03-2019 23:55:17 4 C 48 %
1561 14-03-2019 00:07:17 3.9 C 46 %
1562 14-03-2019 00:19:17 4.1 C 44 %
1563 14-03-2019 00:31:17 4 C 43 %
1564 14-03-2019 00:43:17 4.2 C 41 %
1565 14-03-2019 00:55:17 4.4 C 39 %
1566 14-03-2019 01:07:17 4.6 C 39 %
1567 14-03-2019 01:19:17 4.5 C 40 %
1568 14-03-2019 01:31:17 4.1 C 42 %
1569 14-03-2019 01:43:17 4.1 C 45 %
1570 14-03-2019 01:55:17 4.1 C 46 %
1571 14-03-2019 02:07:17 4.2 C 46 %
1572 14-03-2019 02:19:18 4.2 C 46 %
1573 14-03-2019 02:31:17 4.1 C 45 %
1574 14-03-2019 02:43:17 3.9 C 46 %
1575 14-03-2019 02:55:17 3.6 C 46 %
Sensor: Nr:Datum:Temp:Feuchte:
Aussen-T/F 1576 14-03-2019 03:07:17 3.5 C 47 %
1577 14-03-2019 03:19:17 3.5 C 50 %
1578 14-03-2019 03:31:17 3.5 C 51 %
1579 14-03-2019 03:43:17 3.8 C 52 %
1580 14-03-2019 03:55:17 4.2 C 48 %
1581 14-03-2019 04:07:17 4.1 C 49 %
1582 14-03-2019 04:19:17 4 C 49 %
1583 14-03-2019 04:31:17 4.3 C 48 %
1584 14-03-2019 04:43:17 4.5 C 48 %
1585 14-03-2019 04:55:17 4.6 C 47 %
1586 14-03-2019 05:07:17 5 C 43 %
1587 14-03-2019 05:19:17 5 C 42 %
1588 14-03-2019 05:31:17 5.4 C 40 %
1589 14-03-2019 05:43:17 5.6 C 37 %
1590 14-03-2019 05:55:17 5.7 C 37 %
1591 14-03-2019 06:07:17 5.5 C 38 %
1592 14-03-2019 06:19:17 5.6 C 37 %
1593 14-03-2019 06:31:18 5.6 C 38 %
1594 14-03-2019 06:43:18 5.6 C 38 %
1595 14-03-2019 06:55:17 5.7 C 37 %
1596 14-03-2019 07:07:17 5.7 C 36 %
1597 14-03-2019 07:19:17 5.8 C 36 %
1598 14-03-2019 07:31:17 5.8 C 35 %
1599 14-03-2019 07:43:17 5.9 C 35 %
1600 14-03-2019 07:55:17 6.1 C 33 %
Sensor: Nr:Datum:Temp:Feuchte:
Aussen-T/F 1601 14-03-2019 08:07:17 6.1 C 32 %
1602 14-03-2019 08:19:17 6.2 C 32 %
1603 14-03-2019 08:31:17 6.2 C 32 %
1604 14-03-2019 08:43:17 5.8 C 35 %
1605 14-03-2019 08:55:17 5.5 C 38 %
1606 14-03-2019 09:07:18 5.5 C 40 %
1607 14-03-2019 09:19:17 5.4 C 42 %
1608 14-03-2019 09:31:17 5.4 C 42 %
1609 14-03-2019 09:43:17 5.6 C 41 %
1610 14-03-2019 09:55:17 5.7 C 40 %
1611 14-03-2019 10:07:18 5.7 C 40 %
1612 14-03-2019 10:19:17 5.8 C 39 %
1613 14-03-2019 10:31:17 5.8 C 39 %
1614 14-03-2019 10:43:18 5.8 C 39 %
1615 14-03-2019 10:55:17 5.6 C 40 %
1616 14-03-2019 11:07:17 5.6 C 41 %
1617 14-03-2019 11:19:18 5.6 C 41 %
1618 14-03-2019 11:31:17 5.7 C 41 %
1619 14-03-2019 11:43:17 6 C 41 %
1620 14-03-2019 11:55:17 6.1 C 40 %
1621 14-03-2019 12:07:18 6.6 C 38 %
1622 14-03-2019 12:19:17 6.5 C 38 %
1623 14-03-2019 12:31:17 6.3 C 39 %
1624 14-03-2019 12:43:17 6.4 C 40 %
1625 14-03-2019 12:55:17 6.8 C 41 %
Sensor: Nr:Datum:Temp:Feuchte:
Aussen-T/F 1626 14-03-2019 13:07:17 6.7 C 40 %
1627 14-03-2019 13:19:17 6.8 C 39 %
1628 14-03-2019 13:31:18 6.8 C 38 %
1629 14-03-2019 13:43:18 6.6 C 38 %
1630 14-03-2019 13:55:17 6.9 C 35 %
1631 14-03-2019 14:07:17 6.9 C 35 %
1632 14-03-2019 14:19:17 6.8 C 37 %
1633 14-03-2019 14:31:17 6.8 C 38 %
1634 14-03-2019 14:43:17 6.5 C 40 %
1635 14-03-2019 14:55:17 6.6 C 43 %
1636 14-03-2019 15:07:18 7 C 41 %
1637 14-03-2019 15:19:17 7.3 C 40 %
1638 14-03-2019 15:31:17 7.2 C 40 %
1639 14-03-2019 15:43:17 7.1 C 43 %
1640 14-03-2019 15:55:17 7.2 C 44 %
1641 14-03-2019 16:07:17 8 C 38 %
1642 14-03-2019 16:19:17 8.6 C 32 %
1643 14-03-2019 16:31:18 8.7 C 32 %
1644 14-03-2019 16:43:18 8.4 C 33 %
1645 14-03-2019 16:55:17 8.5 C 35 %
1646 14-03-2019 17:07:17 8.4 C 37 %
1647 14-03-2019 17:19:18 9.3 C 35 %
1648 14-03-2019 17:31:17 10.3 C 30 %
1649 14-03-2019 17:43:17 10.2 C 28 %
1650 14-03-2019 17:55:17 9.8 C 31 %
Sensor: Nr:Datum:Temp:Feuchte:
Aussen-T/F 1651 14-03-2019 18:07:17 9.3 C 33 %
1652 14-03-2019 18:19:17 9 C 35 %
1653 14-03-2019 18:31:18 9.4 C 31 %
1654 14-03-2019 18:43:18 9.2 C 30 %
1655 14-03-2019 18:55:17 9.2 C 29 %
1656 14-03-2019 19:07:17 9.2 C 26 %
1657 14-03-2019 19:19:18 9.2 C 25 %
1658 14-03-2019 19:31:17 9.1 C 23 %
1659 14-03-2019 19:43:17 7.9 C 31 %
1660 14-03-2019 19:55:17 7.2 C 36 %
1661 14-03-2019 20:07:18 6.8 C 40 %
1662 14-03-2019 20:19:17 6.6 C 42 %
1663 14-03-2019 20:31:17 6.5 C 41 %
1664 14-03-2019 20:43:17 6.7 C 40 %
1665 14-03-2019 20:55:18 6.9 C 38 %
1666 14-03-2019 21:07:17 7.1 C 35 %
1667 14-03-2019 21:19:17 7.6 C 32 %
1668 14-03-2019 21:31:17 7.6 C 33 %
1669 14-03-2019 21:43:17 7.5 C 33 %
1670 14-03-2019 21:55:17 7.2 C 35 %
1671 14-03-2019 22:07:17 7.4 C 32 %
1672 14-03-2019 22:19:17 7.6 C 30 %
1673 14-03-2019 22:31:17 7.5 C 29 %
1674 14-03-2019 22:43:17 7.4 C 29 %
1675 14-03-2019 22:55:17 7.5 C 28 %
Sensor: Nr:Datum:Temp:Feuchte:
Aussen-T/F 1676 14-03-2019 23:07:18 7.4 C 29 %
1677 14-03-2019 23:19:17 7.4 C 29 %
1678 14-03-2019 23:31:17 7.3 C 29 %
1679 14-03-2019 23:43:17 7.1 C 30 %
1680 14-03-2019 23:55:17 7 C 30 %
1681 15-03-2019 00:07:17 6.9 C 31 %
1682 15-03-2019 00:19:17 6.3 C 34 %
1683 15-03-2019 00:31:17 6.2 C 35 %
1684 15-03-2019 00:43:17 6 C 35 %
1685 15-03-2019 00:55:17 5.7 C 37 %
1686 15-03-2019 01:07:17 5.5 C 39 %
1687 15-03-2019 01:19:17 5.6 C 38 %
1688 15-03-2019 01:31:17 5.8 C 37 %
1689 15-03-2019 01:43:17 6 C 36 %
1690 15-03-2019 01:55:17 6.1 C 36 %
1691 15-03-2019 02:07:17 6.3 C 35 %
1692 15-03-2019 02:19:17 6.4 C 35 %
1693 15-03-2019 02:31:17 6.5 C 35 %
1694 15-03-2019 02:43:17 6.4 C 35 %
1695 15-03-2019 02:55:18 5.8 C 37 %
1696 15-03-2019 03:07:17 5.4 C 40 %
1697 15-03-2019 03:19:17 5.6 C 41 %
1698 15-03-2019 03:31:17 5.5 C 41 %
1699 15-03-2019 03:43:18 5.3 C 42 %
1700 15-03-2019 03:55:17 5.3 C 42 %
Sensor: Nr:Datum:Temp:Feuchte:
Aussen-T/F 1701 15-03-2019 04:07:17 5.2 C 42 %
1702 15-03-2019 04:19:17 5 C 45 %
1703 15-03-2019 04:31:18 5.4 C 46 %
1704 15-03-2019 04:43:18 5.9 C 41 %
1705 15-03-2019 04:55:17 6.5 C 38 %
1706 15-03-2019 05:07:17 6.5 C 37 %
1707 15-03-2019 05:19:18 6.5 C 37 %
1708 15-03-2019 05:31:17 6.5 C 38 %
1709 15-03-2019 05:43:17 6.5 C 38 %
1710 15-03-2019 05:55:17 6.5 C 38 %
1711 15-03-2019 06:07:17 6.4 C 42 %
1712 15-03-2019 06:19:18 6.2 C 46 %
1713 15-03-2019 06:31:17 6 C 48 %
1714 15-03-2019 06:43:17 6 C 51 %
1715 15-03-2019 06:55:17 5.9 C 54 %
1716 15-03-2019 07:07:17 6.1 C 54 %
1717 15-03-2019 07:19:17 6.1 C 53 %
1718 15-03-2019 07:31:17 6.3 C 53 %
1719 15-03-2019 07:43:17 6.4 C 51 %
1720 15-03-2019 07:55:17 6.5 C 50 %
1721 15-03-2019 08:07:17 6.5 C 50 %
1722 15-03-2019 08:19:17 6.6 C 51 %
1723 15-03-2019 08:31:17 6.8 C 52 %
1724 15-03-2019 08:43:17 7 C 50 %
1725 15-03-2019 08:55:17 7.1 C 47 %
Sensor: Nr:Datum:Temp:Feuchte:
Aussen-T/F 1726 15-03-2019 09:07:18 7.1 C 47 %
1727 15-03-2019 09:19:17 7.4 C 48 %
1728 15-03-2019 09:31:17 7.6 C 47 %
1729 15-03-2019 09:43:17 7.9 C 46 %
1730 15-03-2019 09:55:17 8.2 C 45 %
1731 15-03-2019 10:07:17 8.4 C 45 %
1732 15-03-2019 10:19:17 8.7 C 45 %
1733 15-03-2019 10:31:17 9.1 C 44 %
1734 15-03-2019 10:43:17 9.2 C 44 %
1735 15-03-2019 10:55:17 9.6 C 43 %
1736 15-03-2019 11:07:17 10.1 C 41 %
1737 15-03-2019 11:19:17 10.8 C 37 %
1738 15-03-2019 11:31:17 11.3 C 36 %
1739 15-03-2019 11:43:17 11.8 C 35 %
1740 15-03-2019 11:55:17 12 C 33 %
1741 15-03-2019 12:07:17 11.9 C 35 %
1742 15-03-2019 12:19:17 11.8 C 35 %
1743 15-03-2019 12:31:17 12.2 C 35 %
1744 15-03-2019 12:43:17 12.6 C 33 %
1745 15-03-2019 12:55:17 12.5 C 33 %
1746 15-03-2019 13:07:17 12.7 C 32 %
1747 15-03-2019 13:19:17 12.8 C 32 %
1748 15-03-2019 13:31:17 13 C 30 %
1749 15-03-2019 13:43:17 13.1 C 30 %
1750 15-03-2019 13:55:17 13.5 C 28 %
Sensor: Nr:Datum:Temp:Feuchte:
Aussen-T/F 1751 15-03-2019 14:07:18 13.6 C 27 %
1752 15-03-2019 14:19:17 13.5 C 27 %
1753 15-03-2019 14:31:17 13.3 C 27 %
1754 15-03-2019 14:43:17 13.1 C 27 %
1755 15-03-2019 14:55:17 13.2 C 29 %
1756 15-03-2019 15:07:18 13.5 C 29 %
1757 15-03-2019 15:19:17 13.3 C 29 %
1758 15-03-2019 15:31:17 13.2 C 29 %
1759 15-03-2019 15:43:17 13.1 C 30 %
1760 15-03-2019 15:55:18 13.1 C 30 %
1761 15-03-2019 16:07:17 13.1 C 29 %
1762 15-03-2019 16:19:17 13.2 C 28 %
1763 15-03-2019 16:31:18 13.1 C 28 %
1764 15-03-2019 16:43:18 13.1 C 28 %
1765 15-03-2019 16:55:17 12.8 C 30 %
1766 15-03-2019 17:07:17 12.9 C 30 %
1767 15-03-2019 17:19:17 12.7 C 30 %
1768 15-03-2019 17:31:17 12.6 C 31 %
1769 15-03-2019 17:43:17 12.4 C 32 %
1770 15-03-2019 17:55:17 12.4 C 32 %
1771 15-03-2019 18:07:17 12.4 C 32 %
1772 15-03-2019 18:19:17 12.4 C 32 %
1773 15-03-2019 18:31:18 12.3 C 32 %
1774 15-03-2019 18:43:18 12.3 C 32 %
1775 15-03-2019 18:55:17 12.4 C 31 %
Sensor: Nr:Datum:Temp:Feuchte:
Aussen-T/F 1776 15-03-2019 19:07:17 12.4 C 31 %
1777 15-03-2019 19:19:17 12.2 C 32 %
1778 15-03-2019 19:31:17 12.2 C 33 %
1779 15-03-2019 19:43:17 12.1 C 34 %
1780 15-03-2019 19:55:17 11.9 C 36 %
1781 15-03-2019 20:07:17 11.7 C 37 %
1782 15-03-2019 20:19:17 11.2 C 41 %
1783 15-03-2019 20:31:17 11.1 C 43 %
1784 15-03-2019 20:43:17 11.3 C 42 %
1785 15-03-2019 20:55:17 11.4 C 40 %
1786 15-03-2019 21:07:17 11.7 C 37 %
1787 15-03-2019 21:19:17 11.8 C 36 %
1788 15-03-2019 21:31:17 11.9 C 36 %
1789 15-03-2019 21:43:17 12 C 34 %
1790 15-03-2019 21:55:17 12 C 34 %
1791 15-03-2019 22:07:17 12 C 34 %
1792 15-03-2019 22:19:17 12 C 34 %
1793 15-03-2019 22:31:17 11.9 C 35 %
1794 15-03-2019 22:43:17 11.8 C 35 %
1795 15-03-2019 22:55:17 11.4 C 36 %
1796 15-03-2019 23:07:17 10.7 C 42 %
1797 15-03-2019 23:19:17 11.1 C 41 %
1798 15-03-2019 23:31:17 11 C 41 %
1799 15-03-2019 23:43:17 10.8 C 43 %
1800 15-03-2019 23:55:18 10.8 C 43 %
Sensor: Nr:Datum:Temp:Feuchte:
Aussen-T/F 1801 16-03-2019 00:07:17 10.9 C 43 %
1802 16-03-2019 00:19:17 11 C 40 %
1803 16-03-2019 00:31:17 11 C 40 %
1804 16-03-2019 00:43:17 11 C 38 %
1805 16-03-2019 00:55:18 9.6 C 44 %
1806 16-03-2019 01:07:17 9.4 C 47 %
1807 16-03-2019 01:19:17 9.2 C 50 %
1808 16-03-2019 01:31:17 8.8 C 51 %
1809 16-03-2019 01:43:17 8.3 C 49 %
1810 16-03-2019 01:55:17 8.3 C 50 %
1811 16-03-2019 02:07:17 8.4 C 50 %
1812 16-03-2019 02:19:17 8.1 C 48 %
1813 16-03-2019 02:31:18 8.1 C 49 %
1814 16-03-2019 02:43:18 7.9 C 50 %
1815 16-03-2019 02:55:17 7.7 C 50 %
1816 16-03-2019 03:07:17 7.7 C 52 %
1817 16-03-2019 03:19:17 7.6 C 53 %
1818 16-03-2019 03:31:18 7.6 C 53 %
1819 16-03-2019 03:43:18 7.6 C 54 %
1820 16-03-2019 03:55:17 7.6 C 54 %
1821 16-03-2019 04:07:17 7.6 C 54 %
1822 16-03-2019 04:19:17 7.6 C 55 %
1823 16-03-2019 04:31:17 7.7 C 55 %
1824 16-03-2019 04:43:17 7.7 C 55 %
1825 16-03-2019 04:55:17 7.7 C 56 %
Sensor: Nr:Datum:Temp:Feuchte:
Aussen-T/F 1826 16-03-2019 05:07:17 7.7 C 57 %
1827 16-03-2019 05:19:17 7.7 C 59 %
1828 16-03-2019 05:31:17 7.7 C 59 %
1829 16-03-2019 05:43:17 7.7 C 59 %
1830 16-03-2019 05:55:17 7.7 C 60 %
1831 16-03-2019 06:07:17 7.6 C 61 %
1832 16-03-2019 06:19:17 7.6 C 61 %
1833 16-03-2019 06:31:18 7.9 C 63 %
1834 16-03-2019 06:43:18 8.7 C 68 %
1835 16-03-2019 06:55:17 9 C 65 %
1836 16-03-2019 07:07:17 9.2 C 60 %
1837 16-03-2019 07:19:17 9.7 C 42 %
1838 16-03-2019 07:31:17 9.8 C 39 %
1839 16-03-2019 07:43:17 9.9 C 38 %
1840 16-03-2019 07:55:17 9.9 C 38 %
1841 16-03-2019 08:07:17 10 C 38 %
1842 16-03-2019 08:19:17 10.1 C 38 %
1843 16-03-2019 08:31:17 10.1 C 38 %
1844 16-03-2019 08:43:17 10.1 C 39 %
1845 16-03-2019 08:55:17 10.4 C 37 %
1846 16-03-2019 09:07:17 10.2 C 38 %
1847 16-03-2019 09:19:17 10.2 C 38 %
1848 16-03-2019 09:31:17 10.1 C 40 %
1849 16-03-2019 09:43:17 10.4 C 38 %
1850 16-03-2019 09:55:17 10.7 C 36 %
Sensor: Nr:Datum:Temp:Feuchte:
Aussen-T/F 1851 16-03-2019 10:07:18 10.7 C 35 %
1852 16-03-2019 10:19:17 10.4 C 36 %
1853 16-03-2019 10:31:17 10.7 C 35 %
1854 16-03-2019 10:43:17 10.6 C 35 %
1855 16-03-2019 10:55:17 10 C 40 %
1856 16-03-2019 11:07:18 10.1 C 40 %
1857 16-03-2019 11:19:17 10.3 C 37 %
1858 16-03-2019 11:31:17 10.7 C 35 %
1859 16-03-2019 11:43:17 10.8 C 34 %
1860 16-03-2019 11:55:17 10.9 C 32 %
1861 16-03-2019 12:07:17 11.1 C 30 %
1862 16-03-2019 12:19:17 11.4 C 30 %
1863 16-03-2019 12:31:17 11.8 C 28 %
1864 16-03-2019 12:43:17 11.7 C 28 %
1865 16-03-2019 12:55:17 11.2 C 27 %
1866 16-03-2019 13:07:17 11.4 C 27 %
1867 16-03-2019 13:19:17 11.6 C 26 %
1868 16-03-2019 13:31:17 11.7 C 25 %
1869 16-03-2019 13:43:17 11.7 C 26 %
1870 16-03-2019 13:55:17 11.6 C 26 %
1871 16-03-2019 14:07:18 11.6 C 26 %
1872 16-03-2019 14:19:17 10.7 C 28 %
1873 16-03-2019 14:31:17 10.7 C 28 %
1874 16-03-2019 14:43:17 10.6 C 28 %
1875 16-03-2019 14:55:18 10.5 C 26 %
Sensor: Nr:Datum:Temp:Feuchte:
Aussen-T/F 1876 16-03-2019 15:07:17 10.5 C 26 %
1877 16-03-2019 15:19:17 10.6 C 26 %
1878 16-03-2019 15:31:17 10.8 C 25 %
1879 16-03-2019 15:43:17 10.9 C 25 %
1880 16-03-2019 15:55:17 10.7 C 25 %
1881 16-03-2019 16:07:17 10.7 C 25 %
1882 16-03-2019 16:19:18 10.8 C 25 %
1883 16-03-2019 16:31:17 10.8 C 25 %
1884 16-03-2019 16:43:17 10.7 C 25 %
1885 16-03-2019 16:55:17 10.7 C 23 %
1886 16-03-2019 17:07:17 10.6 C 25 %
1887 16-03-2019 17:19:17 10.6 C 23 %
1888 16-03-2019 17:31:17 10.5 C 23 %
1889 16-03-2019 17:43:17 10.5 C 25 %
1890 16-03-2019 17:55:17 10.4 C 21 %
1891 16-03-2019 18:07:18 10.3 C 23 %
1892 16-03-2019 18:19:17 10.3 C 23 %
1893 16-03-2019 18:31:17 10.3 C 22 %
1894 16-03-2019 18:43:17 10.1 C 22 %
1895 16-03-2019 18:55:17 10 C 22 %
1896 16-03-2019 19:07:17 10.1 C 20 %
1897 16-03-2019 19:19:17 10 C 22 %
1898 16-03-2019 19:31:17 10.1 C 21 %
1899 16-03-2019 19:43:17 10 C 22 %
1900 16-03-2019 19:55:17 10 C 22 %
Sensor: Nr:Datum:Temp:Feuchte:
Aussen-T/F 1901 16-03-2019 20:07:18 9.7 C 25 %
1902 16-03-2019 20:19:17 9.7 C 25 %
1903 16-03-2019 20:31:18 9.8 C 23 %
1904 16-03-2019 20:43:18 9.7 C 23 %
1905 16-03-2019 20:55:17 9.3 C 25 %
1906 16-03-2019 21:07:17 9.7 C 25 %
1907 16-03-2019 21:19:17 9.6 C 25 %
1908 16-03-2019 21:31:18 9.8 C 25 %
1909 16-03-2019 21:43:18 9.8 C 25 %
1910 16-03-2019 21:55:17 9.8 C 25 %
1911 16-03-2019 22:07:17 9.3 C 27 %
1912 16-03-2019 22:19:17 9.5 C 27 %
1913 16-03-2019 22:31:18 9.6 C 27 %
1914 16-03-2019 22:43:18 9.8 C 26 %
1915 16-03-2019 22:55:17 9.6 C 27 %
1916 16-03-2019 23:07:17 9.4 C 27 %
1917 16-03-2019 23:19:17 9.5 C 28 %
1918 16-03-2019 23:31:17 9.6 C 26 %
1919 16-03-2019 23:43:17 9.7 C 26 %
1920 16-03-2019 23:55:17 9.6 C 26 %
1921 17-03-2019 00:07:18 9.5 C 26 %
1922 17-03-2019 00:19:17 9.8 C 26 %
1923 17-03-2019 00:31:17 9.8 C 26 %
1924 17-03-2019 00:43:17 10 C 25 %
1925 17-03-2019 00:55:18 9.9 C 25 %
Sensor: Nr:Datum:Temp:Feuchte:
Aussen-T/F 1926 17-03-2019 01:07:17 9.9 C 25 %
1927 17-03-2019 01:19:17 10 C 25 %
1928 17-03-2019 01:31:18 10.1 C 23 %
1929 17-03-2019 01:43:18 10 C 23 %
1930 17-03-2019 01:55:17 9.8 C 25 %
1931 17-03-2019 02:07:17 9.6 C 25 %
1932 17-03-2019 02:19:17 9.7 C 25 %
1933 17-03-2019 02:31:17 9.6 C 25 %
1934 17-03-2019 02:43:18 9.7 C 26 %
1935 17-03-2019 02:55:17 9.7 C 25 %
1936 17-03-2019 03:07:17 9.6 C 25 %
1937 17-03-2019 03:19:17 9.6 C 25 %
1938 17-03-2019 03:31:17 9.6 C 25 %
1939 17-03-2019 03:43:17 9.6 C 25 %
1940 17-03-2019 03:55:17 9.6 C 25 %
1941 17-03-2019 04:07:17 9.5 C 25 %
1942 17-03-2019 04:19:17 9.5 C 25 %
1943 17-03-2019 04:31:17 9.5 C 25 %
1944 17-03-2019 04:43:18 9.5 C 25 %
1945 17-03-2019 04:55:17 9.7 C 23 %
1946 17-03-2019 05:07:17 9.8 C 21 %
1947 17-03-2019 05:19:17 10 C 20 %
1948 17-03-2019 05:31:17 9.9 C 20 %
1949 17-03-2019 05:43:17 9.8 C 20 %
1950 17-03-2019 05:55:17 9.8 C 20 %
Sensor: Nr:Datum:Temp:Feuchte:
Aussen-T/F 1951 17-03-2019 06:07:18 9.7 C 20 %
1952 17-03-2019 06:19:18 9.8 C 20 %
1953 17-03-2019 06:31:17 9.8 C 20 %
1954 17-03-2019 06:43:17 9.8 C 20 %
1955 17-03-2019 06:55:17 9.7 C 20 %
1956 17-03-2019 07:07:17 9.8 C 21 %
1957 17-03-2019 07:19:17 9.8 C 21 %
1958 17-03-2019 07:31:17 9.8 C 21 %
1959 17-03-2019 07:43:17 9.7 C 23 %
1960 17-03-2019 07:55:17 9.9 C 23 %
1961 17-03-2019 08:07:18 10 C 22 %
1962 17-03-2019 08:19:17 9.8 C 25 %
1963 17-03-2019 08:31:17 9.7 C 27 %
1964 17-03-2019 08:43:17 9.7 C 27 %
1965 17-03-2019 08:55:17 9.8 C 26 %
1966 17-03-2019 09:07:18 9.8 C 27 %
1967 17-03-2019 09:19:17 10 C 25 %
1968 17-03-2019 09:31:17 10.1 C 25 %
1969 17-03-2019 09:43:17 10 C 26 %
1970 17-03-2019 09:55:18 9.9 C 27 %
1971 17-03-2019 10:07:17 9.7 C 28 %
1972 17-03-2019 10:19:17 9.5 C 30 %
1973 17-03-2019 10:31:17 9.4 C 30 %
1974 17-03-2019 10:43:18 8.9 C 33 %
1975 17-03-2019 10:55:17 8.4 C 36 %
Sensor: Nr:Datum:Temp:Feuchte:
Aussen-T/F 1976 17-03-2019 11:07:17 7.1 C 36 %
1977 17-03-2019 11:19:17 7 C 35 %
1978 17-03-2019 11:31:18 7.5 C 31 %
1979 17-03-2019 11:43:18 7.7 C 30 %
1980 17-03-2019 11:55:17 8 C 29 %
1981 17-03-2019 12:07:17 8.4 C 27 %
1982 17-03-2019 12:19:18 8.7 C 25 %
1983 17-03-2019 12:31:17 8.9 C 25 %
1984 17-03-2019 12:43:17 8.7 C 21 %
1985 17-03-2019 12:55:17 8.9 C 21 %
1986 17-03-2019 13:07:17 9.6 C 20 %
1987 17-03-2019 13:19:17 10 C 20 %
1988 17-03-2019 13:31:17 10.1 C 20 %
1989 17-03-2019 13:43:17 10.3 C 20 %
1990 17-03-2019 13:55:17 10.1 C 20 %
1991 17-03-2019 14:07:18 10.5 C 20 %
1992 17-03-2019 14:19:17 10 C 20 %
1993 17-03-2019 14:31:17 10.4 C 20 %
1994 17-03-2019 14:43:17 10.6 C 20 %
1995 17-03-2019 14:55:17 10.6 C 20 %
1996 17-03-2019 15:07:18 11 C 20 %
1997 17-03-2019 15:19:17 11.6 C 20 %
1998 17-03-2019 15:31:17 11.2 C 20 %
1999 17-03-2019 15:43:18 10.4 C 20 %
2000 17-03-2019 15:55:17 10.1 C 20 %
Sensor: Nr:Datum:Temp:Feuchte:
Aussen-T/F 2001 17-03-2019 16:07:17 10.6 C 20 %
2002 17-03-2019 16:19:17 10.1 C 20 %
2003 17-03-2019 16:31:17 9.6 C 20 %
2004 17-03-2019 16:43:17 9.5 C 20 %
2005 17-03-2019 16:55:17 8.3 C 20 %
2006 17-03-2019 17:07:17 7.5 C 20 %
2007 17-03-2019 17:19:17 7.8 C 20 %
2008 17-03-2019 17:31:17 7.6 C 20 %
2009 17-03-2019 17:43:17 7.2 C 20 %
2010 17-03-2019 17:55:17 7 C 20 %
2011 17-03-2019 18:07:17 6.8 C 20 %
2012 17-03-2019 18:19:17 6.9 C 20 %
2013 17-03-2019 18:31:17 6.7 C 20 %
2014 17-03-2019 18:43:17 6.1 C 21 %
2015 17-03-2019 18:55:17 6 C 23 %
2016 17-03-2019 19:07:18 5.6 C 26 %
2017 17-03-2019 19:19:17 5.5 C 27 %
2018 17-03-2019 19:31:17 5.1 C 30 %
2019 17-03-2019 19:43:17 5.6 C 27 %
2020 17-03-2019 19:55:18 4.3 C 33 %
2021 17-03-2019 20:07:17 3.7 C 43 %
2022 17-03-2019 20:19:17 3.7 C 45 %
2023 17-03-2019 20:31:17 3.6 C 44 %
2024 17-03-2019 20:43:18 3.2 C 47 %
2025 17-03-2019 20:55:17 3.2 C 48 %
Sensor: Nr:Datum:Temp:Feuchte:
Aussen-T/F 2026 17-03-2019 21:07:17 3.2 C 48 %
2027 17-03-2019 21:19:18 3.3 C 48 %
2028 17-03-2019 21:31:17 3.3 C 46 %
2029 17-03-2019 21:43:17 3.1 C 46 %
2030 17-03-2019 21:55:17 3.1 C 46 %
2031 17-03-2019 22:07:17 3.4 C 42 %
2032 17-03-2019 22:19:17 3.4 C 40 %
2033 17-03-2019 22:31:17 3.4 C 40 %
2034 17-03-2019 22:43:17 3.6 C 37 %
2035 17-03-2019 22:55:17 3.5 C 36 %
2036 17-03-2019 23:07:18 3.5 C 37 %
2037 17-03-2019 23:19:17 3.6 C 36 %
2038 17-03-2019 23:31:17 3.5 C 36 %
2039 17-03-2019 23:43:18 3 C 39 %
2040 17-03-2019 23:55:17 2.8 C 42 %
2041 18-03-2019 00:07:17 2.2 C 44 %
2042 18-03-2019 00:19:17 2 C 46 %
2043 18-03-2019 00:31:17 1.8 C 50 %
2044 18-03-2019 00:43:17 2.2 C 50 %
2045 18-03-2019 00:55:17 2.1 C 47 %
2046 18-03-2019 01:07:17 1.8 C 50 %
2047 18-03-2019 01:19:17 2.1 C 48 %
2048 18-03-2019 01:31:17 1.8 C 47 %
2049 18-03-2019 01:43:17 1.4 C 50 %
2050 18-03-2019 01:55:17 2.2 C 50 %
Sensor: Nr:Datum:Temp:Feuchte:
Aussen-T/F 2051 18-03-2019 02:07:17 2.3 C 47 %
2052 18-03-2019 02:19:17 2.4 C 45 %
2053 18-03-2019 02:31:17 3 C 42 %
2054 18-03-2019 02:43:17 3.4 C 37 %
2055 18-03-2019 02:55:17 3.4 C 35 %
2056 18-03-2019 03:07:17 3.2 C 36 %
2057 18-03-2019 03:19:17 3.2 C 37 %
2058 18-03-2019 03:31:17 2.6 C 41 %
2059 18-03-2019 03:43:17 2.7 C 42 %
2060 18-03-2019 03:55:17 2.8 C 41 %
2061 18-03-2019 04:07:17 2.9 C 41 %
2062 18-03-2019 04:19:17 2.6 C 41 %
2063 18-03-2019 04:31:17 2.6 C 43 %
2064 18-03-2019 04:43:17 2.5 C 42 %
2065 18-03-2019 04:55:17 2.3 C 42 %
2066 18-03-2019 05:07:17 2.4 C 44 %
2067 18-03-2019 05:19:17 2.6 C 42 %
2068 18-03-2019 05:31:17 2.6 C 40 %
2069 18-03-2019 05:43:17 2.8 C 40 %
2070 18-03-2019 05:55:17 3.2 C 36 %
2071 18-03-2019 06:07:17 3.1 C 35 %
2072 18-03-2019 06:19:17 3.6 C 34 %
2073 18-03-2019 06:31:18 3.6 C 34 %
2074 18-03-2019 06:43:18 3.4 C 34 %
2075 18-03-2019 06:55:17 3.3 C 35 %
Sensor: Nr:Datum:Temp:Feuchte:
Aussen-T/F 2076 18-03-2019 07:07:17 3.1 C 37 %
2077 18-03-2019 07:19:18 3.6 C 36 %
2078 18-03-2019 07:31:17 3.8 C 35 %
2079 18-03-2019 07:43:17 3.8 C 35 %
2080 18-03-2019 07:55:17 4.3 C 31 %
2081 18-03-2019 08:07:17 4.2 C 32 %
2082 18-03-2019 08:19:17 4.3 C 32 %
2083 18-03-2019 08:31:17 4.4 C 33 %
2084 18-03-2019 08:43:17 4.7 C 32 %
2085 18-03-2019 08:55:17 4.3 C 37 %
2086 18-03-2019 09:07:18 4.1 C 40 %
2087 18-03-2019 09:19:17 4.1 C 43 %
2088 18-03-2019 09:31:17 4.3 C 44 %
2089 18-03-2019 09:43:17 4.1 C 43 %
2090 18-03-2019 09:55:18 4.4 C 44 %
2091 18-03-2019 10:07:17 5.8 C 34 %
2092 18-03-2019 10:19:17 6.2 C 31 %
2093 18-03-2019 10:31:18 6 C 30 %
2094 18-03-2019 10:43:18 7 C 27 %
2095 18-03-2019 10:55:17 6.7 C 26 %
2096 18-03-2019 11:07:17 7.1 C 27 %
2097 18-03-2019 11:19:18 8.6 C 25 %
2098 18-03-2019 11:31:17 7.5 C 20 %
2099 18-03-2019 11:43:17 8.9 C 20 %
2100 18-03-2019 11:55:17 8.8 C 20 %
Sensor: Nr:Datum:Temp:Feuchte:
Aussen-T/F 2101 18-03-2019 12:07:17 8.1 C 20 %
2102 18-03-2019 12:19:17 9.1 C 20 %
2103 18-03-2019 12:31:17 8.6 C 20 %
2104 18-03-2019 12:43:17 6.4 C 20 %
2105 18-03-2019 12:55:17 5.5 C 31 %
2106 18-03-2019 13:07:17 5.6 C 34 %
2107 18-03-2019 13:19:17 6.2 C 32 %
2108 18-03-2019 13:31:18 7 C 33 %
2109 18-03-2019 13:43:18 7.5 C 28 %
2110 18-03-2019 13:55:17 7.3 C 26 %
2111 18-03-2019 14:07:17 8.2 C 25 %
2112 18-03-2019 14:19:18 7.7 C 20 %
2113 18-03-2019 14:31:17 7.8 C 20 %
2114 18-03-2019 14:43:17 8.2 C 20 %
2115 18-03-2019 14:55:17 7.8 C 20 %
2116 18-03-2019 15:07:18 5.2 C 38 %
2117 18-03-2019 15:19:17 5.9 C 41 %
2118 18-03-2019 15:31:17 6.4 C 37 %
2119 18-03-2019 15:43:17 6.6 C 35 %
2120 18-03-2019 15:55:17 7.1 C 34 %
2121 18-03-2019 16:07:17 6.1 C 40 %
2122 18-03-2019 16:19:17 5.8 C 43 %
2123 18-03-2019 16:31:17 5.9 C 44 %
2124 18-03-2019 16:43:17 6.4 C 32 %
2125 18-03-2019 16:55:17 6.8 C 29 %
Sensor: Nr:Datum:Temp:Feuchte:
Aussen-T/F 2126 18-03-2019 17:07:18 8.4 C 21 %
2127 18-03-2019 17:19:17 7.9 C 20 %
2128 18-03-2019 17:31:18 7.3 C 20 %
2129 18-03-2019 17:43:18 6.8 C 20 %
2130 18-03-2019 17:55:17 6.7 C 20 %
2131 18-03-2019 18:07:17 6.4 C 20 %
2132 18-03-2019 18:19:17 6.7 C 20 %
2133 18-03-2019 18:31:29 6.5 C 25 %
2134 18-03-2019 18:43:29 6 C 31 %
2135 18-03-2019 18:55:17 5 C 35 %
2136 18-03-2019 19:07:17 4.5 C 36 %
2137 18-03-2019 19:19:17 4.5 C 38 %
2138 18-03-2019 19:31:17 4.4 C 38 %
2139 18-03-2019 19:43:17 4.3 C 38 %
2140 18-03-2019 19:55:18 3.8 C 40 %
2141 18-03-2019 20:07:17 3.6 C 37 %
2142 18-03-2019 20:19:17 3.4 C 37 %
2143 18-03-2019 20:31:18 3.3 C 37 %
2144 18-03-2019 20:43:18 2.9 C 40 %
2145 18-03-2019 20:55:17 2.6 C 40 %
2146 18-03-2019 21:07:17 2.3 C 41 %
2147 18-03-2019 21:19:17 2.2 C 43 %
2148 18-03-2019 21:31:17 1.8 C 46 %
2149 18-03-2019 21:43:17 1.6 C 48 %
2150 18-03-2019 21:55:18 1.3 C 49 %
Sensor: Nr:Datum:Temp:Feuchte:
Aussen-T/F 2151 18-03-2019 22:07:17 1 C 50 %
2152 18-03-2019 22:19:18 0.7 C 52 %
2153 18-03-2019 22:31:17 0.5 C 52 %
2154 18-03-2019 22:43:17 0.6 C 53 %
2155 18-03-2019 22:55:17 0.5 C 54 %
2156 18-03-2019 23:07:18 0.4 C 55 %
2157 18-03-2019 23:19:17 0.6 C 55 %
2158 18-03-2019 23:31:17 0.5 C 55 %
2159 18-03-2019 23:43:17 0.2 C 54 %
2160 18-03-2019 23:55:18 0.1 C 55 %
2161 19-03-2019 00:07:17 0 C 55 %
2162 19-03-2019 00:19:17 0 C 55 %
2163 19-03-2019 00:31:18 -0.3 C 55 %
2164 19-03-2019 00:43:18 -0.7 C 54 %
2165 19-03-2019 00:55:17 -0.9 C 55 %
2166 19-03-2019 01:07:17 -0.9 C 55 %
2167 19-03-2019 01:19:18 -1 C 55 %
2168 19-03-2019 01:31:17 -0.9 C 56 %
2169 19-03-2019 01:43:17 -1 C 56 %
2170 19-03-2019 01:55:17 -1.2 C 56 %
2171 19-03-2019 02:07:18 -1.3 C 56 %
2172 19-03-2019 02:19:17 -1.2 C 56 %
2173 19-03-2019 02:31:17 -1.2 C 56 %
2174 19-03-2019 02:43:17 -1.4 C 56 %
2175 19-03-2019 02:55:18 -1.1 C 56 %
Sensor: Nr:Datum:Temp:Feuchte:
Aussen-T/F 2176 19-03-2019 03:07:17 -1.4 C 56 %
2177 19-03-2019 03:19:17 -1.6 C 56 %
2178 19-03-2019 03:31:17 -1.8 C 56 %
2179 19-03-2019 03:43:17 -1.7 C 56 %
2180 19-03-2019 03:55:17 -1.8 C 56 %
2181 19-03-2019 04:07:18 -1.9 C 56 %
2182 19-03-2019 04:19:17 -2 C 56 %
2183 19-03-2019 04:31:17 -1.9 C 56 %
2184 19-03-2019 04:43:17 -2 C 56 %
2185 19-03-2019 04:55:17 -2.1 C 56 %
2186 19-03-2019 05:07:18 -2.3 C 56 %
2187 19-03-2019 05:19:17 -2.3 C 56 %
2188 19-03-2019 05:31:17 -2.4 C 56 %
2189 19-03-2019 05:43:17 -2 C 58 %
2190 19-03-2019 05:55:17 -2.3 C 57 %
2191 19-03-2019 06:07:17 -2.4 C 57 %
2192 19-03-2019 06:19:17 -2.5 C 57 %
2193 19-03-2019 06:31:17 -2.1 C 60 %
2194 19-03-2019 06:43:17 -2.3 C 59 %
2195 19-03-2019 06:55:18 -1.8 C 62 %
2196 19-03-2019 07:07:18 -1.3 C 66 %
2197 19-03-2019 07:19:17 -0.9 C 68 %
2198 19-03-2019 07:31:18 -0.6 C 68 %
2199 19-03-2019 07:43:18 -0.5 C 67 %
2200 19-03-2019 07:55:17 -0.5 C 62 %
Sensor: Nr:Datum:Temp:Feuchte:
Aussen-T/F 2201 19-03-2019 08:07:17 -0.7 C 56 %
2202 19-03-2019 08:19:17 -1 C 55 %
2203 19-03-2019 08:31:17 -1 C 54 %
2204 19-03-2019 08:43:17 -0.7 C 55 %
2205 19-03-2019 08:55:18 -0.3 C 55 %
2206 19-03-2019 09:07:17 0 C 55 %
2207 19-03-2019 09:19:17 0.1 C 54 %
2208 19-03-2019 09:31:17 0.2 C 53 %
2209 19-03-2019 09:43:17 0.4 C 53 %
2210 19-03-2019 09:55:17 0.7 C 53 %
2211 19-03-2019 10:07:17 1.9 C 50 %
2212 19-03-2019 10:19:17 1.9 C 50 %
2213 19-03-2019 10:31:18 4 C 42 %
2214 19-03-2019 10:43:18 3.2 C 36 %
2215 19-03-2019 10:55:17 5.6 C 38 %
2216 19-03-2019 11:07:17 5.7 C 37 %
2217 19-03-2019 11:19:18 5 C 36 %
2218 19-03-2019 11:31:17 6.9 C 26 %
2219 19-03-2019 11:43:17 7.6 C 20 %
2220 19-03-2019 11:55:17 6.6 C 20 %
2221 19-03-2019 12:07:18 6.7 C 20 %
2222 19-03-2019 12:19:17 6.6 C 20 %
2223 19-03-2019 12:31:17 7 C 20 %
2224 19-03-2019 12:43:18 6.9 C 20 %
2225 19-03-2019 12:55:17 7.5 C 20 %
Sensor: Nr:Datum:Temp:Feuchte:
Aussen-T/F 2226 19-03-2019 13:07:17 7.8 C 20 %
2227 19-03-2019 13:19:17 8.2 C 20 %
2228 19-03-2019 13:31:17 8.2 C 20 %
2229 19-03-2019 13:43:17 8.3 C 20 %
2230 19-03-2019 13:55:17 8.4 C 20 %
2231 19-03-2019 14:07:18 8.6 C 20 %
2232 19-03-2019 14:19:17 8.9 C 20 %
2233 19-03-2019 14:31:17 9.1 C 20 %
2234 19-03-2019 14:43:17 9.3 C 20 %
2235 19-03-2019 14:55:18 9.7 C 20 %
2236 19-03-2019 15:07:17 9.9 C 20 %
2237 19-03-2019 15:19:17 10 C 20 %
2238 19-03-2019 15:31:18 10.2 C 20 %
2239 19-03-2019 15:43:18 10.4 C 20 %
2240 19-03-2019 15:55:17 10.9 C 20 %
2241 19-03-2019 16:07:17 11.5 C 20 %
2242 19-03-2019 16:19:18 11.7 C 20 %
2243 19-03-2019 16:31:17 11.9 C 20 %
2244 19-03-2019 16:43:17 11.7 C 20 %
2245 19-03-2019 16:55:17 11.5 C 20 %
2246 19-03-2019 17:07:18 11.5 C 20 %
2247 19-03-2019 17:19:17 12.4 C 20 %
2248 19-03-2019 17:31:17 12.2 C 20 %
2249 19-03-2019 17:43:17 13.7 C 20 %
2250 19-03-2019 17:55:17 14.1 C 20 %
Sensor: Nr:Datum:Temp:Feuchte:
Aussen-T/F 2251 19-03-2019 18:07:18 13.2 C 20 %
2252 19-03-2019 18:19:17 10.2 C 20 %
2253 19-03-2019 18:31:18 7.5 C 20 %
2254 19-03-2019 18:43:18 6 C 20 %
2255 19-03-2019 18:55:17 5.7 C 20 %
2256 19-03-2019 19:07:17 5.2 C 20 %
2257 19-03-2019 19:19:17 4.8 C 23 %
2258 19-03-2019 19:31:17 4.8 C 26 %
2259 19-03-2019 19:43:17 4.2 C 27 %
2260 19-03-2019 19:55:17 4.1 C 27 %
2261 19-03-2019 20:07:17 3.5 C 30 %
2262 19-03-2019 20:19:17 3.3 C 32 %
2263 19-03-2019 20:31:17 2.8 C 34 %
2264 19-03-2019 20:43:17 2.5 C 35 %
2265 19-03-2019 20:55:17 2.1 C 38 %
2266 19-03-2019 21:07:17 1.8 C 40 %
2267 19-03-2019 21:19:17 1.7 C 40 %
2268 19-03-2019 21:31:17 1.3 C 40 %
2269 19-03-2019 21:43:17 1.1 C 41 %
2270 19-03-2019 21:55:17 0.8 C 42 %
2271 19-03-2019 22:07:18 0.8 C 43 %
2272 19-03-2019 22:19:17 0.6 C 43 %
2273 19-03-2019 22:31:17 0.4 C 44 %
2274 19-03-2019 22:43:17 0.6 C 45 %
2275 19-03-2019 22:55:17 0.4 C 45 %
Sensor: Nr:Datum:Temp:Feuchte:
Aussen-T/F 2276 19-03-2019 23:07:17 0.3 C 46 %
2277 19-03-2019 23:19:17 0.4 C 46 %
2278 19-03-2019 23:31:17 0.3 C 45 %
2279 19-03-2019 23:43:17 0.3 C 45 %
2280 19-03-2019 23:55:17 -0.3 C 47 %
2281 20-03-2019 00:07:18 -0.3 C 48 %
2282 20-03-2019 00:19:17 -0.6 C 47 %
2283 20-03-2019 00:31:17 -0.7 C 49 %
2284 20-03-2019 00:43:17 -0.9 C 50 %
2285 20-03-2019 00:55:17 -1 C 50 %
2286 20-03-2019 01:07:18 -1 C 51 %
2287 20-03-2019 01:19:17 -1 C 51 %
2288 20-03-2019 01:31:18 -0.9 C 52 %
2289 20-03-2019 01:43:18 -1 C 52 %
2290 20-03-2019 01:55:17 -1.2 C 52 %
2291 20-03-2019 02:07:17 -1.4 C 52 %
2292 20-03-2019 02:20:17 -1.2 C 53 %
2293 20-03-2019 02:31:17 -1.4 C 52 %
2294 20-03-2019 02:43:17 -1.5 C 53 %
2295 20-03-2019 02:55:18 -1.6 C 53 %
2296 20-03-2019 03:07:17 -1.6 C 53 %
2297 20-03-2019 03:19:17 -1.8 C 53 %
2298 20-03-2019 03:31:18 -1.9 C 53 %
2299 20-03-2019 03:43:18 -2 C 53 %
2300 20-03-2019 03:56:17 -2 C 53 %
Sensor: Nr:Datum:Temp:Feuchte:
Aussen-T/F 2301 20-03-2019 04:08:17 -2 C 54 %
2302 20-03-2019 04:20:18 -2.1 C 54 %
2303 20-03-2019 04:32:17 -2.2 C 54 %
2304 20-03-2019 04:44:17 -2.1 C 54 %
2305 20-03-2019 04:56:17 -2.1 C 55 %
2306 20-03-2019 05:08:17 -2.2 C 55 %
2307 20-03-2019 05:20:17 -2.3 C 54 %
2308 20-03-2019 05:32:17 -2.3 C 55 %
2309 20-03-2019 05:44:17 -2.3 C 55 %
2310 20-03-2019 05:56:17 -2.4 C 55 %
2311 20-03-2019 06:08:17 -2.4 C 55 %
2312 20-03-2019 06:20:17 -2.3 C 55 %
2313 20-03-2019 06:32:18 -2.3 C 55 %
2314 20-03-2019 06:44:18 -2.4 C 55 %
2315 20-03-2019 06:56:17 -2.4 C 55 %
2316 20-03-2019 07:08:17 -2.4 C 55 %
2317 20-03-2019 07:20:17 -2.3 C 55 %
2318 20-03-2019 07:32:17 -2.1 C 55 %
2319 20-03-2019 07:44:17 -2.1 C 55 %
2320 20-03-2019 07:56:17 -1.9 C 55 %
2321 20-03-2019 08:08:17 -1.8 C 55 %
2322 20-03-2019 08:20:17 -1.6 C 55 %
2323 20-03-2019 08:32:17 -1.4 C 55 %
2324 20-03-2019 08:44:17 -1.1 C 56 %
2325 20-03-2019 08:56:17 -0.8 C 55 %
Sensor: Nr:Datum:Temp:Feuchte:
Aussen-T/F 2326 20-03-2019 09:08:17 -0.4 C 55 %
2327 20-03-2019 09:20:17 -0.2 C 55 %
2328 20-03-2019 09:32:17 0.2 C 54 %
2329 20-03-2019 09:44:17 0.6 C 54 %
2330 20-03-2019 09:56:16 1.8 C 51 %
2331 20-03-2019 10:08:17 1.8 C 51 %
2332 20-03-2019 10:20:17 5.3 C 45 %
2333 20-03-2019 10:32:17 7 C 41 %
2334 20-03-2019 10:44:17 7.8 C 20 %
2335 20-03-2019 10:56:17 9.1 C 20 %
2336 20-03-2019 11:08:17 9.2 C 20 %
2337 20-03-2019 11:20:17 10.8 C 20 %
2338 20-03-2019 11:32:16 12.1 C 20 %
2339 20-03-2019 11:44:16 11.4 C 20 %
2340 20-03-2019 11:56:17 11.1 C 20 %
2341 20-03-2019 12:08:17 11.1 C 20 %
2342 20-03-2019 12:20:16 11.3 C 20 %
2343 20-03-2019 12:32:17 11.7 C 20 %
2344 20-03-2019 12:44:17 11.8 C 20 %
2345 20-03-2019 12:56:17 11.9 C 20 %
2346 20-03-2019 13:08:17 12.5 C 20 %
2347 20-03-2019 13:20:16 12.8 C 20 %
2348 20-03-2019 13:32:17 12.8 C 20 %
2349 20-03-2019 13:44:17 13 C 20 %
2350 20-03-2019 13:56:17 13.2 C 20 %
Sensor: Nr:Datum:Temp:Feuchte:
Aussen-T/F 2351 20-03-2019 14:08:17 12.9 C 20 %
2352 20-03-2019 14:20:16 13 C 20 %
2353 20-03-2019 14:32:17 13.2 C 20 %
2354 20-03-2019 14:44:17 13 C 20 %
2355 20-03-2019 14:56:17 13.5 C 20 %
2356 20-03-2019 15:08:16 13.7 C 20 %
2357 20-03-2019 15:20:16 13.7 C 20 %
2358 20-03-2019 15:32:17 13.6 C 20 %
2359 20-03-2019 15:44:18 14.2 C 20 %
2360 20-03-2019 15:56:16 13.9 C 20 %
2361 20-03-2019 16:08:16 13.9 C 20 %
2362 20-03-2019 16:20:17 14.1 C 20 %
2363 20-03-2019 16:32:16 14.2 C 20 %
2364 20-03-2019 16:44:16 14.4 C 20 %
2365 20-03-2019 16:56:16 14.7 C 20 %
2366 20-03-2019 17:08:17 15 C 20 %
2367 20-03-2019 17:20:16 14.8 C 20 %
2368 20-03-2019 17:32:17 16 C 20 %
2369 20-03-2019 17:44:17 16.4 C 20 %
2370 20-03-2019 17:56:17 16.2 C 20 %
2371 20-03-2019 18:08:16 12.9 C 20 %
2372 20-03-2019 18:20:17 10.8 C 20 %
2373 20-03-2019 18:32:17 9.7 C 20 %
2374 20-03-2019 18:44:17 8.9 C 20 %
2375 20-03-2019 18:56:16 8.3 C 20 %
Sensor: Nr:Datum:Temp:Feuchte:
Aussen-T/F 2376 20-03-2019 19:08:17 7.9 C 20 %
2377 20-03-2019 19:20:16 7.4 C 20 %
2378 20-03-2019 19:32:16 7.2 C 20 %
2379 20-03-2019 19:44:16 6.7 C 23 %
2380 20-03-2019 19:56:16 6.2 C 25 %
2381 20-03-2019 20:08:16 5.6 C 28 %
2382 20-03-2019 20:20:16 5.2 C 29 %
2383 20-03-2019 20:32:16 5 C 30 %
2384 20-03-2019 20:44:16 4.8 C 32 %
2385 20-03-2019 20:56:16 4.6 C 33 %
2386 20-03-2019 21:08:17 4.2 C 35 %
2387 20-03-2019 21:20:16 4.1 C 35 %
2388 20-03-2019 21:32:16 4 C 34 %
2389 20-03-2019 21:44:16 4 C 34 %
2390 20-03-2019 21:56:16 4 C 34 %
2391 20-03-2019 22:08:16 3.5 C 38 %
2392 20-03-2019 22:20:16 3.8 C 39 %
2393 20-03-2019 22:32:16 3.5 C 38 %
2394 20-03-2019 22:44:16 3.1 C 39 %
2395 20-03-2019 22:56:16 2.6 C 40 %
2396 20-03-2019 23:08:16 2.5 C 42 %
2397 20-03-2019 23:20:16 2.5 C 43 %
2398 20-03-2019 23:32:17 2.5 C 44 %
2399 20-03-2019 23:44:17 2.3 C 44 %
2400 20-03-2019 23:56:16 2.1 C 45 %
Sensor: Nr:Datum:Temp:Feuchte:
Aussen-T/F 2401 21-03-2019 00:08:16 2.1 C 45 %
2402 21-03-2019 00:20:16 1.8 C 46 %
2403 21-03-2019 00:32:16 1.8 C 47 %
2404 21-03-2019 00:44:16 1.9 C 48 %
2405 21-03-2019 00:56:16 1.9 C 47 %
2406 21-03-2019 01:08:16 1.3 C 46 %
2407 21-03-2019 01:20:16 1.1 C 47 %
2408 21-03-2019 01:32:16 1.1 C 48 %
2409 21-03-2019 01:44:16 0.8 C 50 %
2410 21-03-2019 01:56:16 0.6 C 51 %
2411 21-03-2019 02:08:16 0.5 C 51 %
2412 21-03-2019 02:20:16 0.4 C 52 %
2413 21-03-2019 02:32:16 0.4 C 52 %
2414 21-03-2019 02:44:16 0.3 C 53 %
2415 21-03-2019 02:56:17 0.1 C 53 %
2416 21-03-2019 03:08:17 0 C 53 %
2417 21-03-2019 03:20:17 -0.2 C 53 %
2418 21-03-2019 03:32:17 -0.2 C 54 %
2419 21-03-2019 03:44:17 -0.3 C 54 %
2420 21-03-2019 03:56:17 -0.4 C 54 %
2421 21-03-2019 04:08:18 -0.3 C 55 %
2422 21-03-2019 04:20:17 -0.4 C 55 %
2423 21-03-2019 04:32:17 -0.2 C 55 %
2424 21-03-2019 04:44:18 -0.4 C 55 %
2425 21-03-2019 04:56:17 -0.5 C 55 %
Sensor: Nr:Datum:Temp:Feuchte:
Aussen-T/F 2426 21-03-2019 05:08:17 -0.7 C 55 %
2427 21-03-2019 05:20:17 -0.5 C 56 %
2428 21-03-2019 05:32:17 -0.6 C 55 %
2429 21-03-2019 05:44:17 -0.9 C 55 %
2430 21-03-2019 05:56:17 -0.9 C 55 %
2431 21-03-2019 06:08:17 -1 C 55 %
2432 21-03-2019 06:20:17 -0.9 C 56 %
2433 21-03-2019 06:32:17 -0.9 C 56 %
2434 21-03-2019 06:44:18 -1 C 56 %
2435 21-03-2019 06:56:17 -0.8 C 56 %
2436 21-03-2019 07:08:17 -0.7 C 56 %
2437 21-03-2019 07:20:17 -0.5 C 56 %
2438 21-03-2019 07:32:17 0.2 C 57 %
2439 21-03-2019 07:44:17 0.1 C 56 %
2440 21-03-2019 07:56:17 0.2 C 56 %
2441 21-03-2019 08:08:17 0.3 C 55 %
2442 21-03-2019 08:20:17 0.5 C 55 %
2443 21-03-2019 08:32:17 0.5 C 55 %
2444 21-03-2019 08:44:17 0.8 C 55 %
2445 21-03-2019 08:56:17 1.1 C 55 %
2446 21-03-2019 09:08:17 1.4 C 55 %
2447 21-03-2019 09:20:17 1.6 C 54 %
2448 21-03-2019 09:32:17 1.8 C 54 %
2449 21-03-2019 09:44:17 2.5 C 54 %
2450 21-03-2019 09:56:17 3.7 C 51 %
Sensor: Nr:Datum:Temp:Feuchte:
Aussen-T/F 2451 21-03-2019 10:08:17 4.5 C 45 %
2452 21-03-2019 10:20:17 5.4 C 41 %
2453 21-03-2019 10:32:17 8.2 C 28 %
2454 21-03-2019 10:44:18 8.3 C 27 %
2455 21-03-2019 10:56:17 10.4 C 21 %
2456 21-03-2019 11:08:17 9.9 C 20 %
2457 21-03-2019 11:20:17 10.6 C 21 %
2458 21-03-2019 11:32:17 12.9 C 20 %
2459 21-03-2019 11:44:17 12.1 C 20 %
2460 21-03-2019 11:56:17 11.4 C 20 %
2461 21-03-2019 12:08:17 11.8 C 20 %
2462 21-03-2019 12:20:17 12.2 C 20 %
2463 21-03-2019 12:32:17 12.8 C 20 %
2464 21-03-2019 12:44:17 13 C 20 %
2465 21-03-2019 12:56:17 13.4 C 20 %
2466 21-03-2019 13:08:17 14 C 20 %
2467 21-03-2019 13:20:17 14.3 C 20 %
2468 21-03-2019 13:32:17 14.6 C 20 %
2469 21-03-2019 13:44:17 14.7 C 20 %
2470 21-03-2019 13:56:17 14.7 C 20 %
2471 21-03-2019 14:08:18 14.8 C 20 %
2472 21-03-2019 14:20:17 15.1 C 20 %
2473 21-03-2019 14:32:17 15.2 C 20 %
2474 21-03-2019 14:44:17 15.6 C 20 %
2475 21-03-2019 14:56:17 15.9 C 20 %
Sensor: Nr:Datum:Temp:Feuchte:
Aussen-T/F 2476 21-03-2019 15:08:17 16.1 C 20 %
2477 21-03-2019 15:20:17 16.6 C 20 %
2478 21-03-2019 15:32:17 16.8 C 20 %
2479 21-03-2019 15:44:17 17 C 20 %
2480 21-03-2019 15:56:17 17.4 C 20 %
2481 21-03-2019 16:08:17 17.8 C 20 %
2482 21-03-2019 16:20:17 17.7 C 20 %
2483 21-03-2019 16:32:17 17.8 C 20 %
2484 21-03-2019 16:44:17 18.2 C 20 %
2485 21-03-2019 16:56:17 18.2 C 20 %
2486 21-03-2019 17:08:17 18.2 C 20 %
2487 21-03-2019 17:20:17 18.3 C 20 %
2488 21-03-2019 17:32:18 18.5 C 20 %
2489 21-03-2019 17:44:18 19.2 C 20 %
2490 21-03-2019 17:56:18 19.5 C 20 %
2491 21-03-2019 18:08:17 16.4 C 20 %
2492 21-03-2019 18:20:17 13.9 C 20 %
2493 21-03-2019 18:32:17 12.5 C 20 %
2494 21-03-2019 18:44:17 11.6 C 20 %
2495 21-03-2019 18:56:17 11.1 C 20 %
2496 21-03-2019 19:08:18 10.5 C 20 %
2497 21-03-2019 19:20:17 9.9 C 20 %
2498 21-03-2019 19:32:17 9.3 C 20 %
2499 21-03-2019 19:44:17 9 C 20 %
2500 21-03-2019 19:56:17 8.7 C 20 %
Sensor: Nr:Datum:Temp:Feuchte:
Aussen-T/F 2501 21-03-2019 20:08:17 8.1 C 20 %
2502 21-03-2019 20:20:17 7.7 C 20 %
2503 21-03-2019 20:32:18 7.4 C 21 %
2504 21-03-2019 20:44:18 7.2 C 23 %
2505 21-03-2019 20:56:17 6.8 C 25 %
2506 21-03-2019 21:08:17 6.4 C 26 %
2507 21-03-2019 21:20:17 6.2 C 25 %
2508 21-03-2019 21:32:18 5.9 C 25 %
2509 21-03-2019 21:44:18 5.4 C 26 %
2510 21-03-2019 21:56:17 5.2 C 28 %
2511 21-03-2019 22:08:17 5.3 C 28 %
2512 21-03-2019 22:20:17 4.8 C 28 %
2513 21-03-2019 22:32:17 4.5 C 30 %
2514 21-03-2019 22:44:17 4.3 C 31 %
2515 21-03-2019 22:56:18 4.1 C 32 %
2516 21-03-2019 23:08:17 3.9 C 35 %
2517 21-03-2019 23:20:17 3.8 C 34 %
2518 21-03-2019 23:32:17 3.5 C 35 %
2519 21-03-2019 23:44:17 3.4 C 37 %
2520 21-03-2019 23:56:17 3.2 C 36 %
2521 22-03-2019 00:08:17 3.2 C 36 %
2522 22-03-2019 00:20:17 2.8 C 38 %
2523 22-03-2019 00:32:17 2.7 C 40 %
2524 22-03-2019 00:44:17 2.6 C 41 %
2525 22-03-2019 00:56:17 2.5 C 41 %
Sensor: Nr:Datum:Temp:Feuchte:
Aussen-T/F 2526 22-03-2019 01:08:17 2.4 C 42 %
2527 22-03-2019 01:20:17 2.3 C 42 %
2528 22-03-2019 01:32:17 2.1 C 43 %
2529 22-03-2019 01:44:17 2 C 44 %
2530 22-03-2019 01:56:17 1.9 C 45 %
2531 22-03-2019 02:08:17 1.7 C 45 %
2532 22-03-2019 02:20:17 1.6 C 46 %
2533 22-03-2019 02:32:17 1.3 C 46 %
2534 22-03-2019 02:44:17 1.3 C 47 %
2535 22-03-2019 02:56:17 1.2 C 48 %
2536 22-03-2019 03:08:17 1 C 49 %
2537 22-03-2019 03:20:17 0.9 C 51 %
2538 22-03-2019 03:32:18 1.1 C 50 %
2539 22-03-2019 03:44:18 0.7 C 51 %
2540 22-03-2019 03:56:18 0.7 C 51 %
2541 22-03-2019 04:08:17 0.7 C 52 %
2542 22-03-2019 04:20:17 0.5 C 52 %
2543 22-03-2019 04:32:17 0.5 C 53 %
2544 22-03-2019 04:44:17 0.3 C 53 %
2545 22-03-2019 04:56:18 0.3 C 54 %
2546 22-03-2019 05:08:18 0.2 C 54 %
2547 22-03-2019 05:20:17 0.2 C 54 %
2548 22-03-2019 05:32:17 0.1 C 54 %
2549 22-03-2019 05:44:17 0 C 54 %
2550 22-03-2019 05:56:17 0.1 C 55 %
Sensor: Nr:Datum:Temp:Feuchte:
Aussen-T/F 2551 22-03-2019 06:08:18 0 C 55 %
2552 22-03-2019 06:20:17 -0.3 C 55 %
2553 22-03-2019 06:32:17 -0.3 C 55 %
2554 22-03-2019 06:44:17 -0.4 C 55 %
2555 22-03-2019 06:56:17 -0.2 C 56 %
2556 22-03-2019 07:08:17 0 C 56 %
2557 22-03-2019 07:20:17 0.2 C 56 %
2558 22-03-2019 07:32:17 0.2 C 56 %
2559 22-03-2019 07:44:17 0.4 C 56 %
2560 22-03-2019 07:56:17 0.5 C 56 %
2561 22-03-2019 08:08:17 0.9 C 56 %
2562 22-03-2019 08:20:18 1.1 C 55 %
2563 22-03-2019 08:32:18 1.2 C 55 %
2564 22-03-2019 08:44:18 1.4 C 56 %
2565 22-03-2019 08:56:17 1.9 C 56 %
2566 22-03-2019 09:08:17 2 C 55 %
2567 22-03-2019 09:20:17 2.5 C 55 %
2568 22-03-2019 09:32:18 3.2 C 54 %
2569 22-03-2019 09:44:18 4 C 53 %
2570 22-03-2019 09:56:17 5.1 C 49 %
2571 22-03-2019 10:08:17 6.1 C 41 %
2572 22-03-2019 10:20:17 7.8 C 35 %
2573 22-03-2019 10:32:17 9.8 C 27 %
2574 22-03-2019 10:44:17 10.7 C 23 %
2575 22-03-2019 10:56:18 13.4 C 20 %
Sensor: Nr:Datum:Temp:Feuchte:
Aussen-T/F 2576 22-03-2019 11:08:17 12.7 C 20 %
2577 22-03-2019 11:20:17 13.2 C 20 %
2578 22-03-2019 11:32:17 15.2 C 20 %
2579 22-03-2019 11:44:17 15.2 C 20 %
2580 22-03-2019 11:56:17 14.6 C 20 %
2581 22-03-2019 12:08:18 14.8 C 20 %
2582 22-03-2019 12:20:17 15.3 C 20 %
2583 22-03-2019 12:32:17 15.6 C 20 %
2584 22-03-2019 12:44:17 16.3 C 20 %
2585 22-03-2019 12:56:17 16.7 C 20 %
2586 22-03-2019 13:08:17 17.2 C 20 %
2587 22-03-2019 13:20:18 17.2 C 20 %
2588 22-03-2019 13:32:18 17.7 C 20 %
2589 22-03-2019 13:44:18 17.7 C 20 %
2590 22-03-2019 13:56:17 18.5 C 20 %
2591 22-03-2019 14:08:17 18.5 C 20 %
2592 22-03-2019 14:20:17 18.5 C 20 %
2593 22-03-2019 14:32:17 18.6 C 20 %
2594 22-03-2019 14:44:17 18.8 C 20 %
2595 22-03-2019 14:56:18 19 C 20 %
2596 22-03-2019 15:08:17 19.5 C 20 %
2597 22-03-2019 15:20:17 19 C 20 %
2598 22-03-2019 15:32:17 19 C 20 %
2599 22-03-2019 15:44:17 19.2 C 20 %
2600 22-03-2019 15:56:17 19.1 C 20 %
Sensor: Nr:Datum:Temp:Feuchte:
Aussen-T/F 2601 22-03-2019 16:08:18 19.4 C 20 %
2602 22-03-2019 16:20:17 19.3 C 20 %
2603 22-03-2019 16:32:17 20 C 20 %
2604 22-03-2019 16:44:17 20.4 C 20 %
2605 22-03-2019 16:56:17 20.8 C 20 %
2606 22-03-2019 17:08:17 20.5 C 20 %
2607 22-03-2019 17:20:17 20.8 C 20 %
2608 22-03-2019 17:32:18 21.1 C 20 %
2609 22-03-2019 17:44:18 23 C 20 %
2610 22-03-2019 17:56:17 20.7 C 20 %
2611 22-03-2019 18:08:17 18.3 C 20 %
2612 22-03-2019 18:20:17 15.8 C 20 %
2613 22-03-2019 18:32:17 14 C 20 %
2614 22-03-2019 18:44:18 13.4 C 20 %
2615 22-03-2019 18:56:17 12.4 C 20 %
2616 22-03-2019 19:08:17 12 C 20 %
2617 22-03-2019 19:20:17 11.3 C 20 %
2618 22-03-2019 19:32:17 10.8 C 20 %
2619 22-03-2019 19:44:18 10.5 C 20 %
2620 22-03-2019 19:56:18 10.5 C 20 %
2621 22-03-2019 20:08:18 10.2 C 20 %
2622 22-03-2019 20:20:17 10.2 C 20 %
2623 22-03-2019 20:32:17 9.8 C 20 %
2624 22-03-2019 20:44:17 9.5 C 20 %
2625 22-03-2019 20:56:17 8.6 C 20 %
Sensor: Nr:Datum:Temp:Feuchte:
Aussen-T/F 2626 22-03-2019 21:08:17 8 C 20 %
2627 22-03-2019 21:20:17 7.3 C 20 %
2628 22-03-2019 21:32:17 7 C 23 %
2629 22-03-2019 21:44:17 6.9 C 25 %
2630 22-03-2019 21:56:17 6.5 C 23 %
2631 22-03-2019 22:08:17 5.9 C 26 %
2632 22-03-2019 22:20:17 6 C 30 %
2633 22-03-2019 22:32:17 6.4 C 30 %
2634 22-03-2019 22:44:17 6.2 C 28 %
2635 22-03-2019 22:56:17 6 C 29 %
2636 22-03-2019 23:08:17 5.6 C 30 %
2637 22-03-2019 23:20:17 5.2 C 30 %
2638 22-03-2019 23:32:17 4.8 C 31 %
2639 22-03-2019 23:44:18 4.7 C 32 %
2640 22-03-2019 23:56:17 4.7 C 35 %
2641 23-03-2019 00:08:17 4.4 C 33 %
2642 23-03-2019 00:20:17 4.3 C 34 %
2643 23-03-2019 00:32:17 3.8 C 35 %
2644 23-03-2019 00:44:17 3.7 C 36 %
2645 23-03-2019 00:56:17 3.5 C 37 %
2646 23-03-2019 01:08:17 3.5 C 38 %
2647 23-03-2019 01:20:17 3.9 C 40 %
2648 23-03-2019 01:32:17 3.1 C 38 %
2649 23-03-2019 01:44:17 3 C 40 %
2650 23-03-2019 01:56:17 2.8 C 41 %
Sensor: Nr:Datum:Temp:Feuchte:
Aussen-T/F 2651 23-03-2019 02:08:17 2.5 C 42 %
2652 23-03-2019 02:20:17 2.6 C 44 %
2653 23-03-2019 02:32:17 2.6 C 45 %
2654 23-03-2019 02:44:17 2.6 C 45 %
2655 23-03-2019 02:56:17 2.8 C 45 %
2656 23-03-2019 03:08:17 2.5 C 45 %
2657 23-03-2019 03:20:17 2.3 C 45 %
2658 23-03-2019 03:32:17 2 C 45 %
2659 23-03-2019 03:44:18 2 C 47 %
2660 23-03-2019 03:56:18 2.3 C 48 %
2661 23-03-2019 04:08:17 2.2 C 48 %
2662 23-03-2019 04:20:17 2 C 48 %
2663 23-03-2019 04:32:17 2.4 C 49 %
2664 23-03-2019 04:44:17 2 C 47 %
2665 23-03-2019 04:56:17 2.3 C 48 %
2666 23-03-2019 05:08:18 2.2 C 47 %
2667 23-03-2019 05:20:17 2 C 47 %
2668 23-03-2019 05:32:17 2.3 C 48 %
2669 23-03-2019 05:44:17 1.8 C 47 %
2670 23-03-2019 05:56:17 1.3 C 47 %
2671 23-03-2019 06:08:17 1.1 C 48 %
2672 23-03-2019 06:20:17 1.2 C 50 %
2673 23-03-2019 06:32:18 1.4 C 51 %
2674 23-03-2019 06:44:18 1.6 C 52 %
2675 23-03-2019 06:56:18 1.3 C 51 %
Sensor: Nr:Datum:Temp:Feuchte:
Aussen-T/F 2676 23-03-2019 07:08:17 1.3 C 51 %
2677 23-03-2019 07:20:17 3.4 C 55 %
2678 23-03-2019 07:32:17 4.7 C 54 %
2679 23-03-2019 07:44:17 5 C 50 %
2680 23-03-2019 07:56:17 5.4 C 49 %
2681 23-03-2019 08:08:17 5.7 C 48 %
2682 23-03-2019 08:20:17 5.8 C 48 %
2683 23-03-2019 08:32:17 5.9 C 48 %
2684 23-03-2019 08:44:17 6 C 47 %
2685 23-03-2019 08:56:17 6.1 C 46 %
2686 23-03-2019 09:08:17 6.3 C 45 %
2687 23-03-2019 09:20:24 6.4 C 44 %
2688 23-03-2019 09:32:17 6.6 C 43 %
2689 23-03-2019 09:44:17 6.7 C 41 %
2690 23-03-2019 09:56:18 6.9 C 41 %
2691 23-03-2019 10:08:17 7 C 42 %
2692 23-03-2019 10:20:17 7 C 42 %
2693 23-03-2019 10:32:18 7 C 42 %
2694 23-03-2019 10:44:18 7.1 C 42 %
2695 23-03-2019 10:56:17 7 C 41 %
2696 23-03-2019 11:08:17 7.1 C 40 %
2697 23-03-2019 11:20:17 7.5 C 40 %
2698 23-03-2019 11:32:17 7.5 C 39 %
2699 23-03-2019 11:44:17 7.6 C 38 %
2700 23-03-2019 11:56:17 7.9 C 38 %
Sensor: Nr:Datum:Temp:Feuchte:
Aussen-T/F 2701 23-03-2019 12:08:17 7.8 C 37 %
2702 23-03-2019 12:20:17 8.1 C 35 %
2703 23-03-2019 12:32:17 8.3 C 35 %
2704 23-03-2019 12:44:17 8.2 C 34 %
2705 23-03-2019 12:56:17 8.6 C 34 %
2706 23-03-2019 13:08:17 8.8 C 32 %
2707 23-03-2019 13:20:17 8.8 C 31 %
2708 23-03-2019 13:32:18 9.1 C 30 %
2709 23-03-2019 13:44:18 9 C 30 %
2710 23-03-2019 13:56:17 9.6 C 30 %
2711 23-03-2019 14:08:17 9.4 C 27 %
2712 23-03-2019 14:20:17 9.5 C 27 %
2713 23-03-2019 14:32:17 9.6 C 26 %
2714 23-03-2019 14:44:17 9.6 C 25 %
2715 23-03-2019 14:56:17 10.1 C 23 %
2716 23-03-2019 15:08:17 10.2 C 25 %
2717 23-03-2019 15:20:18 9.8 C 21 %
2718 23-03-2019 15:32:17 10 C 20 %
2719 23-03-2019 15:44:17 10.3 C 20 %
2720 23-03-2019 15:56:17 10.2 C 20 %
2721 23-03-2019 16:08:18 10.3 C 20 %
2722 23-03-2019 16:20:18 10.2 C 20 %
2723 23-03-2019 16:32:18 10.4 C 20 %
2724 23-03-2019 16:44:18 10.6 C 20 %
2725 23-03-2019 16:56:18 10.5 C 20 %
Sensor: Nr:Datum:Temp:Feuchte:
Aussen-T/F 2726 23-03-2019 17:08:18 10.5 C 20 %
2727 23-03-2019 17:20:18 10.3 C 20 %
2728 23-03-2019 17:32:18 10.2 C 20 %
2729 23-03-2019 17:44:18 9.6 C 20 %
2730 23-03-2019 17:56:17 9.9 C 20 %
2731 23-03-2019 18:08:17 9.6 C 20 %
2732 23-03-2019 18:20:18 8.4 C 26 %
2733 23-03-2019 18:32:18 7.5 C 28 %
2734 23-03-2019 18:44:18 7.1 C 32 %
2735 23-03-2019 18:56:17 6.4 C 35 %
2736 23-03-2019 19:08:18 6.2 C 36 %
2737 23-03-2019 19:20:17 5.8 C 38 %
2738 23-03-2019 19:32:17 5.4 C 39 %
2739 23-03-2019 19:44:17 5.2 C 42 %
2740 23-03-2019 19:56:18 4.7 C 42 %
2741 23-03-2019 20:08:18 4.3 C 45 %
2742 23-03-2019 20:20:17 4.1 C 45 %
2743 23-03-2019 20:32:18 3.7 C 47 %
2744 23-03-2019 20:44:18 3.7 C 48 %
2745 23-03-2019 20:56:17 3.5 C 49 %
2746 23-03-2019 21:08:17 3.3 C 50 %
2747 23-03-2019 21:20:18 3.1 C 50 %
2748 23-03-2019 21:32:18 2.8 C 51 %
2749 23-03-2019 21:44:18 2.6 C 52 %
2750 23-03-2019 21:56:17 2.5 C 52 %
Sensor: Nr:Datum:Temp:Feuchte:
Aussen-T/F 2751 23-03-2019 22:08:18 2.4 C 53 %
2752 23-03-2019 22:20:18 2.2 C 53 %
2753 23-03-2019 22:32:18 2.1 C 53 %
2754 23-03-2019 22:44:18 1.9 C 55 %
2755 23-03-2019 22:56:17 1.9 C 55 %
2756 23-03-2019 23:08:18 1.8 C 55 %
2757 23-03-2019 23:20:18 1.8 C 56 %
2758 23-03-2019 23:32:18 1.6 C 55 %
2759 23-03-2019 23:44:18 1.5 C 56 %
2760 23-03-2019 23:56:17 1.4 C 56 %
2761 24-03-2019 00:08:17 1.2 C 56 %
2762 24-03-2019 00:20:18 1.2 C 55 %
2763 24-03-2019 00:32:18 1 C 56 %
2764 24-03-2019 00:44:18 1.2 C 57 %
2765 24-03-2019 00:56:17 1.2 C 57 %
2766 24-03-2019 01:08:17 0.9 C 57 %
2767 24-03-2019 01:20:18 0.7 C 57 %
2768 24-03-2019 01:32:18 0.5 C 57 %
2769 24-03-2019 01:44:18 0.4 C 58 %
2770 24-03-2019 01:56:17 0.3 C 58 %
2771 24-03-2019 02:08:18 0.2 C 59 %
2772 24-03-2019 02:20:18 0.2 C 59 %
2773 24-03-2019 02:32:18 0 C 59 %
2774 24-03-2019 02:44:18 -0.1 C 59 %
2775 24-03-2019 02:56:17 -0.1 C 60 %
Sensor: Nr:Datum:Temp:Feuchte:
Aussen-T/F 2776 24-03-2019 03:08:18 -0.1 C 63 %
2777 24-03-2019 03:20:17 -0.3 C 63 %
2778 24-03-2019 03:32:17 -0.3 C 64 %
2779 24-03-2019 03:44:18 -0.2 C 64 %
2780 24-03-2019 03:56:17 -0.2 C 64 %
2781 24-03-2019 04:08:18 -0.4 C 65 %
2782 24-03-2019 04:20:18 -0.2 C 68 %
2783 24-03-2019 04:32:18 -0.2 C 68 %
2784 24-03-2019 04:44:18 0.4 C 72 %
2785 24-03-2019 04:56:18 1 C 73 %
2786 24-03-2019 05:08:18 1.3 C 74 %
2787 24-03-2019 05:20:18 1.4 C 74 %
2788 24-03-2019 05:32:18 1.5 C 73 %
2789 24-03-2019 05:44:18 1.6 C 72 %
2790 24-03-2019 05:56:18 1.7 C 72 %
2791 24-03-2019 06:08:18 2.1 C 69 %
2792 24-03-2019 06:20:17 2 C 67 %
2793 24-03-2019 06:32:17 2.1 C 66 %
2794 24-03-2019 06:44:18 2.2 C 64 %
2795 24-03-2019 06:56:18 2.3 C 62 %
2796 24-03-2019 07:08:18 2.4 C 59 %
2797 24-03-2019 07:20:18 2.5 C 55 %
2798 24-03-2019 07:32:18 2.7 C 53 %
2799 24-03-2019 07:44:18 2.8 C 52 %
2800 24-03-2019 07:56:18 3 C 50 %
Sensor: Nr:Datum:Temp:Feuchte:
Aussen-T/F 2801 24-03-2019 08:08:17 3.5 C 48 %
2802 24-03-2019 08:20:18 3.6 C 46 %
2803 24-03-2019 08:32:18 4.1 C 44 %
2804 24-03-2019 08:44:18 4.4 C 43 %
2805 24-03-2019 08:56:18 4.8 C 39 %
2806 24-03-2019 09:08:17 4.9 C 37 %
2807 24-03-2019 09:20:18 5 C 36 %
2808 24-03-2019 09:32:18 5.4 C 36 %
2809 24-03-2019 09:44:18 5.9 C 36 %
2810 24-03-2019 09:56:18 6.5 C 35 %
2811 24-03-2019 10:08:17 7 C 34 %
2812 24-03-2019 10:20:17 7.6 C 33 %
2813 24-03-2019 10:32:17 7.8 C 32 %
2814 24-03-2019 10:44:17 8.2 C 30 %
2815 24-03-2019 10:56:17 8.7 C 30 %
2816 24-03-2019 11:08:17 10.1 C 27 %
2817 24-03-2019 11:20:17 11.1 C 25 %
2818 24-03-2019 11:32:17 12.2 C 20 %
2819 24-03-2019 11:44:18 12.1 C 20 %
2820 24-03-2019 11:56:18 12.7 C 20 %
2821 24-03-2019 12:08:17 12.6 C 20 %
2822 24-03-2019 12:20:17 12.6 C 20 %
2823 24-03-2019 12:32:17 12.9 C 20 %
2824 24-03-2019 12:44:17 12.7 C 20 %
2825 24-03-2019 12:56:17 11.5 C 21 %
Sensor: Nr:Datum:Temp:Feuchte:
Aussen-T/F 2826 24-03-2019 13:08:17 11.4 C 23 %
2827 24-03-2019 13:20:17 10.8 C 26 %
2828 24-03-2019 13:32:17 10.6 C 26 %
2829 24-03-2019 13:44:17 10.8 C 25 %
2830 24-03-2019 13:56:17 11.1 C 26 %
2831 24-03-2019 14:08:17 10.8 C 27 %
2832 24-03-2019 14:20:17 11 C 26 %
2833 24-03-2019 14:32:17 11.2 C 26 %
2834 24-03-2019 14:44:17 11.4 C 25 %
2835 24-03-2019 14:56:17 11.3 C 25 %
2836 24-03-2019 15:08:17 11 C 25 %
2837 24-03-2019 15:20:17 11.1 C 22 %
2838 24-03-2019 15:32:17 11.6 C 20 %
2839 24-03-2019 15:44:18 11.9 C 20 %
2840 24-03-2019 15:56:17 12.2 C 20 %
2841 24-03-2019 16:08:17 12.3 C 20 %
2842 24-03-2019 16:20:17 12.3 C 20 %
2843 24-03-2019 16:32:17 12.4 C 20 %
2844 24-03-2019 16:44:17 12.1 C 20 %
2845 24-03-2019 16:56:17 11.7 C 20 %
2846 24-03-2019 17:08:17 12.1 C 20 %
2847 24-03-2019 17:20:17 12.7 C 20 %
2848 24-03-2019 17:32:17 13 C 20 %
2849 24-03-2019 17:44:17 13.8 C 20 %
2850 24-03-2019 17:56:17 12.9 C 20 %
Sensor: Nr:Datum:Temp:Feuchte:
Aussen-T/F 2851 24-03-2019 18:08:17 12.4 C 20 %
2852 24-03-2019 18:20:18 10.8 C 20 %
2853 24-03-2019 18:32:17 10.1 C 20 %
2854 24-03-2019 18:44:17 9.8 C 20 %
2855 24-03-2019 18:56:17 8.9 C 20 %
2856 24-03-2019 19:08:17 8.4 C 20 %
2857 24-03-2019 19:20:18 8 C 20 %
2858 24-03-2019 19:32:17 7.8 C 20 %
2859 24-03-2019 19:44:17 7.8 C 20 %
2860 24-03-2019 19:56:18 7 C 20 %
2861 24-03-2019 20:08:17 6.5 C 20 %
2862 24-03-2019 20:20:17 6.3 C 20 %
2863 24-03-2019 20:32:17 5.8 C 20 %
2864 24-03-2019 20:44:17 5.5 C 20 %
2865 24-03-2019 20:56:18 5.7 C 20 %
2866 24-03-2019 21:08:17 4.6 C 20 %
2867 24-03-2019 21:20:18 4.6 C 25 %
2868 24-03-2019 21:32:17 4.1 C 25 %
2869 24-03-2019 21:44:17 4 C 26 %
2870 24-03-2019 21:56:17 3.4 C 30 %
2871 24-03-2019 22:08:17 3.4 C 31 %
2872 24-03-2019 22:20:18 2.7 C 32 %
2873 24-03-2019 22:32:17 2.8 C 33 %
2874 24-03-2019 22:44:17 2.4 C 33 %
2875 24-03-2019 22:56:17 2.3 C 35 %
Sensor: Nr:Datum:Temp:Feuchte:
Aussen-T/F 2876 24-03-2019 23:08:17 2.4 C 36 %
2877 24-03-2019 23:20:17 2.4 C 36 %
2878 24-03-2019 23:32:17 2.4 C 34 %
2879 24-03-2019 23:44:17 2.5 C 33 %
2880 24-03-2019 23:56:18 2.6 C 33 %
2881 25-03-2019 00:08:17 2.6 C 32 %
2882 25-03-2019 00:20:18 2.5 C 33 %
2883 25-03-2019 00:32:17 2.1 C 33 %
2884 25-03-2019 00:44:17 1.5 C 36 %
2885 25-03-2019 00:56:17 1.7 C 38 %
2886 25-03-2019 01:08:18 0.9 C 40 %
2887 25-03-2019 01:20:17 0.4 C 41 %
2888 25-03-2019 01:32:17 0.2 C 43 %
2889 25-03-2019 01:44:17 0.1 C 45 %
2890 25-03-2019 01:56:18 0.3 C 46 %
2891 25-03-2019 02:08:17 0.7 C 47 %
2892 25-03-2019 02:20:17 1.3 C 45 %
2893 25-03-2019 02:32:17 1.7 C 41 %
2894 25-03-2019 02:44:17 1.6 C 40 %
2895 25-03-2019 02:56:17 1.6 C 39 %
2896 25-03-2019 03:08:17 1.6 C 39 %
2897 25-03-2019 03:20:17 1.6 C 39 %
2898 25-03-2019 03:32:17 1.5 C 40 %
2899 25-03-2019 03:44:17 1.7 C 39 %
2900 25-03-2019 03:56:17 1.7 C 39 %
Sensor: Nr:Datum:Temp:Feuchte:
Aussen-T/F 2901 25-03-2019 04:08:17 1.7 C 39 %
2902 25-03-2019 04:20:17 2 C 37 %
2903 25-03-2019 04:32:17 2.7 C 35 %
2904 25-03-2019 04:44:17 2.8 C 31 %
2905 25-03-2019 04:56:17 2.8 C 31 %
2906 25-03-2019 05:08:17 2.8 C 31 %
2907 25-03-2019 05:20:17 3.3 C 30 %
2908 25-03-2019 05:32:17 3.1 C 30 %
2909 25-03-2019 05:44:17 3.1 C 30 %
2910 25-03-2019 05:56:18 3 C 30 %
2911 25-03-2019 06:08:17 3 C 31 %
2912 25-03-2019 06:20:17 3.1 C 31 %
2913 25-03-2019 06:32:17 3.1 C 31 %
2914 25-03-2019 06:44:17 3.1 C 31 %
2915 25-03-2019 06:56:17 3.3 C 32 %
2916 25-03-2019 07:08:18 3.9 C 31 %
2917 25-03-2019 07:20:17 4 C 30 %
2918 25-03-2019 07:32:17 3.5 C 35 %
2919 25-03-2019 07:44:17 3.5 C 36 %
2920 25-03-2019 07:56:17 3.1 C 38 %
2921 25-03-2019 08:08:17 3.3 C 45 %
2922 25-03-2019 08:20:17 3.5 C 48 %
2923 25-03-2019 08:32:18 4 C 48 %
2924 25-03-2019 08:44:18 4 C 47 %
2925 25-03-2019 08:56:17 4.6 C 47 %
Sensor: Nr:Datum:Temp:Feuchte:
Aussen-T/F 2926 25-03-2019 09:08:17 5.4 C 36 %
2927 25-03-2019 09:20:17 5.1 C 35 %
2928 25-03-2019 09:32:17 5.5 C 35 %
2929 25-03-2019 09:44:17 5.3 C 32 %
2930 25-03-2019 09:56:17 6.7 C 25 %
2931 25-03-2019 10:08:18 7 C 20 %
2932 25-03-2019 10:20:17 7 C 20 %
2933 25-03-2019 10:32:17 7.9 C 20 %
2934 25-03-2019 10:44:17 6.1 C 25 %
2935 25-03-2019 10:56:17 7.3 C 20 %
2936 25-03-2019 11:08:18 7.2 C 20 %
2937 25-03-2019 11:20:17 7.6 C 20 %
2938 25-03-2019 11:32:18 6.3 C 20 %
2939 25-03-2019 11:44:18 6.4 C 30 %
2940 25-03-2019 11:56:17 6.9 C 26 %
2941 25-03-2019 12:08:18 6.6 C 25 %
2942 25-03-2019 12:20:17 6.8 C 27 %
2943 25-03-2019 12:32:18 8.3 C 21 %
2944 25-03-2019 12:44:18 6.9 C 23 %
2945 25-03-2019 12:56:17 6.3 C 32 %
2946 25-03-2019 13:08:17 5.5 C 33 %
2947 25-03-2019 13:20:17 6.2 C 38 %
2948 25-03-2019 13:32:17 6.7 C 30 %
2949 25-03-2019 13:44:17 8.2 C 25 %
2950 25-03-2019 13:56:17 8.1 C 20 %
Sensor: Nr:Datum:Temp:Feuchte:
Aussen-T/F 2951 25-03-2019 14:08:17 7 C 20 %
2952 25-03-2019 14:20:17 6.1 C 26 %
2953 25-03-2019 14:32:18 7.1 C 27 %
2954 25-03-2019 14:44:18 7.4 C 23 %
2955 25-03-2019 14:56:17 7.5 C 26 %
2956 25-03-2019 15:08:18 7.4 C 25 %
2957 25-03-2019 15:20:17 6.4 C 27 %
2958 25-03-2019 15:32:18 6.4 C 36 %
2959 25-03-2019 15:44:18 6.9 C 35 %
2960 25-03-2019 15:56:17 7.2 C 35 %
2961 25-03-2019 16:08:18 7.3 C 31 %
2962 25-03-2019 16:20:17 7.2 C 30 %
2963 25-03-2019 16:32:18 7 C 31 %
2964 25-03-2019 16:44:18 5.9 C 35 %
2965 25-03-2019 16:56:17 5.4 C 40 %
2966 25-03-2019 17:08:17 5.2 C 43 %
2967 25-03-2019 17:20:18 4.7 C 45 %
2968 25-03-2019 17:32:17 4.7 C 45 %
2969 25-03-2019 17:44:17 4.5 C 48 %
2970 25-03-2019 17:56:17 4.6 C 51 %
2971 25-03-2019 18:08:17 4.6 C 52 %
2972 25-03-2019 18:20:17 4.6 C 53 %
2973 25-03-2019 18:32:17 4.6 C 53 %
2974 25-03-2019 18:44:17 4.6 C 53 %
2975 25-03-2019 18:56:17 4.6 C 53 %
Sensor: Nr:Datum:Temp:Feuchte:
Aussen-T/F 2976 25-03-2019 19:08:17 4.5 C 53 %
2977 25-03-2019 19:20:17 4 C 52 %
2978 25-03-2019 19:32:17 4 C 53 %
2979 25-03-2019 19:44:17 4.2 C 53 %
2980 25-03-2019 19:56:17 4.3 C 53 %
2981 25-03-2019 20:08:18 4.3 C 53 %
2982 25-03-2019 20:20:17 4.4 C 53 %
2983 25-03-2019 20:32:17 4.1 C 53 %
2984 25-03-2019 20:44:17 4.3 C 54 %
2985 25-03-2019 20:56:17 4.6 C 55 %
2986 25-03-2019 21:08:17 4.6 C 55 %
2987 25-03-2019 21:20:17 4.6 C 54 %
2988 25-03-2019 21:32:17 4.4 C 54 %
2989 25-03-2019 21:44:17 4.3 C 53 %
2990 25-03-2019 21:56:17 4.5 C 50 %
2991 25-03-2019 22:08:17 4.9 C 44 %
2992 25-03-2019 22:20:17 4.4 C 41 %
2993 25-03-2019 22:32:17 4.5 C 42 %
2994 25-03-2019 22:44:17 4.4 C 42 %
2995 25-03-2019 22:56:18 4.4 C 42 %
2996 25-03-2019 23:08:17 4.2 C 44 %
2997 25-03-2019 23:20:17 3.8 C 46 %
2998 25-03-2019 23:32:17 3.6 C 49 %
2999 25-03-2019 23:44:17 3.4 C 50 %
3000 25-03-2019 23:56:17 3.4 C 52 %
Sensor: Nr:Datum:Temp:Feuchte:
Aussen-T/F 3001 26-03-2019 00:08:17 3.6 C 53 %
3002 26-03-2019 00:20:17 3.7 C 54 %
3003 26-03-2019 00:32:17 3.9 C 54 %
3004 26-03-2019 00:44:17 3.9 C 52 %
3005 26-03-2019 00:56:17 4 C 51 %
3006 26-03-2019 01:08:18 4 C 50 %
3007 26-03-2019 01:20:17 3.9 C 51 %
3008 26-03-2019 01:32:18 3.4 C 50 %
3009 26-03-2019 01:44:18 3.4 C 51 %
3010 26-03-2019 01:56:17 3.5 C 52 %
3011 26-03-2019 02:08:17 3.7 C 53 %
3012 26-03-2019 02:20:17 3.7 C 53 %
3013 26-03-2019 02:32:17 3.7 C 53 %
3014 26-03-2019 02:44:17 3.7 C 53 %
3015 26-03-2019 02:56:18 3.9 C 54 %
3016 26-03-2019 03:08:17 3.9 C 54 %
3017 26-03-2019 03:20:17 4 C 52 %
3018 26-03-2019 03:32:18 4.1 C 52 %
3019 26-03-2019 03:44:18 4.1 C 52 %
3020 26-03-2019 03:56:17 4.1 C 52 %
3021 26-03-2019 04:08:17 4.2 C 52 %
3022 26-03-2019 04:20:17 4.3 C 52 %
3023 26-03-2019 04:32:18 4.4 C 51 %
3024 26-03-2019 04:44:18 4.5 C 49 %
3025 26-03-2019 04:56:17 4.5 C 48 %
Sensor: Nr:Datum:Temp:Feuchte:
Aussen-T/F 3026 26-03-2019 05:08:17 4.4 C 47 %
3027 26-03-2019 05:20:17 4.4 C 46 %
3028 26-03-2019 05:32:17 4.5 C 45 %
3029 26-03-2019 05:44:17 4.5 C 42 %
3030 26-03-2019 05:56:18 4.3 C 43 %
3031 26-03-2019 06:08:17 4.4 C 43 %
3032 26-03-2019 06:20:17 4.5 C 41 %
3033 26-03-2019 06:32:17 4.5 C 40 %
3034 26-03-2019 06:44:17 4.4 C 40 %
3035 26-03-2019 06:56:17 4.3 C 41 %
3036 26-03-2019 07:08:17 4.5 C 41 %
3037 26-03-2019 07:20:17 4.5 C 41 %
3038 26-03-2019 07:32:17 4.6 C 41 %
3039 26-03-2019 07:44:17 4.6 C 40 %
3040 26-03-2019 07:56:17 4.9 C 38 %
3041 26-03-2019 08:08:17 5 C 33 %
3042 26-03-2019 08:20:17 5.3 C 31 %
3043 26-03-2019 08:32:17 5.4 C 30 %
3044 26-03-2019 08:44:17 5.7 C 30 %
3045 26-03-2019 08:56:18 5.9 C 28 %
3046 26-03-2019 09:08:17 5.9 C 26 %
3047 26-03-2019 09:20:18 5.9 C 27 %
3048 26-03-2019 09:32:17 6.1 C 26 %
3049 26-03-2019 09:44:17 6.7 C 25 %
3050 26-03-2019 09:56:17 6.7 C 25 %
Sensor: Nr:Datum:Temp:Feuchte:
Aussen-T/F 3051 26-03-2019 10:08:17 6.7 C 21 %
3052 26-03-2019 10:20:17 7.2 C 20 %
3053 26-03-2019 10:32:17 7.7 C 20 %
3054 26-03-2019 10:44:17 7.3 C 20 %
3055 26-03-2019 10:56:17 7.2 C 20 %
3056 26-03-2019 11:08:17 6.8 C 20 %
3057 26-03-2019 11:20:17 6.7 C 20 %
3058 26-03-2019 11:32:17 7.1 C 20 %
3059 26-03-2019 11:44:17 8 C 20 %
3060 26-03-2019 11:56:17 8.3 C 20 %
3061 26-03-2019 12:08:17 8.7 C 20 %
3062 26-03-2019 12:20:17 8.7 C 20 %
3063 26-03-2019 12:32:17 9.6 C 20 %
3064 26-03-2019 12:44:17 9.4 C 20 %
3065 26-03-2019 12:56:17 9.6 C 20 %
3066 26-03-2019 13:08:17 9 C 20 %
3067 26-03-2019 13:20:17 8.9 C 20 %
3068 26-03-2019 13:32:17 9.4 C 20 %
3069 26-03-2019 13:44:17 9.4 C 20 %
3070 26-03-2019 13:56:17 9 C 20 %
3071 26-03-2019 14:08:18 9.2 C 20 %
3072 26-03-2019 14:20:17 9.3 C 20 %
3073 26-03-2019 14:32:17 9.4 C 20 %
3074 26-03-2019 14:44:18 8.8 C 20 %
3075 26-03-2019 14:56:17 8.9 C 20 %
Sensor: Nr:Datum:Temp:Feuchte:
Aussen-T/F 3076 26-03-2019 15:08:17 9 C 20 %
3077 26-03-2019 15:20:17 9 C 20 %
3078 26-03-2019 15:32:17 9.1 C 20 %
3079 26-03-2019 15:44:17 9.6 C 20 %
3080 26-03-2019 15:56:17 10.4 C 20 %
3081 26-03-2019 16:08:17 9.7 C 20 %
3082 26-03-2019 16:20:17 9.6 C 20 %
3083 26-03-2019 16:32:17 9.6 C 20 %
3084 26-03-2019 16:44:18 9 C 20 %
3085 26-03-2019 16:56:17 8.6 C 20 %
3086 26-03-2019 17:08:17 8.2 C 20 %
3087 26-03-2019 17:20:17 8.2 C 20 %
3088 26-03-2019 17:32:17 8.1 C 20 %
3089 26-03-2019 17:44:18 7.9 C 20 %
3090 26-03-2019 17:56:18 7.9 C 20 %
3091 26-03-2019 18:08:17 7.9 C 20 %
3092 26-03-2019 18:20:17 7.7 C 20 %
3093 26-03-2019 18:32:17 7.6 C 20 %
3094 26-03-2019 18:44:17 7.5 C 20 %
3095 26-03-2019 18:56:18 7.4 C 20 %
3096 26-03-2019 19:08:17 7.2 C 23 %
3097 26-03-2019 19:20:17 7 C 25 %
3098 26-03-2019 19:32:17 6.8 C 28 %
3099 26-03-2019 19:44:17 6.5 C 31 %
3100 26-03-2019 19:56:17 6.5 C 31 %
Sensor: Nr:Datum:Temp:Feuchte:
Aussen-T/F 3101 26-03-2019 20:08:17 6.5 C 30 %
3102 26-03-2019 20:20:18 6.6 C 30 %
3103 26-03-2019 20:32:17 6.4 C 31 %
3104 26-03-2019 20:44:17 6.5 C 31 %
3105 26-03-2019 20:56:18 6.4 C 32 %
3106 26-03-2019 21:08:17 6.3 C 32 %
3107 26-03-2019 21:20:17 6.3 C 32 %
3108 26-03-2019 21:32:18 6.1 C 34 %
3109 26-03-2019 21:44:18 6 C 35 %
3110 26-03-2019 21:56:17 6 C 35 %
3111 26-03-2019 22:08:18 5.9 C 36 %
3112 26-03-2019 22:20:17 5.8 C 37 %
3113 26-03-2019 22:32:17 5.7 C 38 %
3114 26-03-2019 22:44:17 5.7 C 39 %
3115 26-03-2019 22:56:17 5.7 C 39 %
3116 26-03-2019 23:08:17 5.6 C 40 %
3117 26-03-2019 23:20:17 5.5 C 40 %
3118 26-03-2019 23:32:17 5.5 C 40 %
3119 26-03-2019 23:44:17 5.6 C 39 %
3120 26-03-2019 23:56:17 5.7 C 38 %
3121 27-03-2019 00:08:17 5.5 C 38 %
3122 27-03-2019 00:20:17 5.3 C 39 %
3123 27-03-2019 00:32:17 5.3 C 41 %
3124 27-03-2019 00:44:17 5.1 C 42 %
3125 27-03-2019 00:56:17 5 C 42 %
Sensor: Nr:Datum:Temp:Feuchte:
Aussen-T/F 3126 27-03-2019 01:08:18 5 C 42 %
3127 27-03-2019 01:20:17 4.8 C 44 %
3128 27-03-2019 01:32:18 4.4 C 44 %
3129 27-03-2019 01:44:18 4.4 C 45 %
3130 27-03-2019 01:56:17 4.5 C 46 %
3131 27-03-2019 02:08:17 4.5 C 46 %
3132 27-03-2019 02:20:17 4.6 C 46 %
3133 27-03-2019 02:32:17 4.6 C 45 %
3134 27-03-2019 02:44:17 4.4 C 45 %
3135 27-03-2019 02:56:17 4.2 C 46 %
3136 27-03-2019 03:08:17 4.1 C 46 %
3137 27-03-2019 03:20:18 4.2 C 47 %
3138 27-03-2019 03:32:17 4.1 C 47 %
3139 27-03-2019 03:44:17 3.9 C 47 %
3140 27-03-2019 03:56:17 3.4 C 47 %
3141 27-03-2019 04:08:17 3.3 C 49 %
3142 27-03-2019 04:20:18 3.1 C 49 %
3143 27-03-2019 04:32:17 2.8 C 50 %
3144 27-03-2019 04:44:17 2.4 C 50 %
3145 27-03-2019 04:56:17 2.1 C 51 %
3146 27-03-2019 05:08:17 1.8 C 53 %
3147 27-03-2019 05:20:18 1.7 C 54 %
3148 27-03-2019 05:32:17 1.6 C 54 %
3149 27-03-2019 05:44:17 1.3 C 55 %
3150 27-03-2019 05:56:17 1.1 C 55 %
Sensor: Nr:Datum:Temp:Feuchte:
Aussen-T/F 3151 27-03-2019 06:08:18 0.9 C 56 %
3152 27-03-2019 06:20:17 0.8 C 56 %
3153 27-03-2019 06:32:17 0.8 C 56 %
3154 27-03-2019 06:44:17 0.8 C 56 %
3155 27-03-2019 06:56:17 1.1 C 56 %
3156 27-03-2019 07:08:17 1.4 C 56 %
3157 27-03-2019 07:20:17 1.4 C 56 %
3158 27-03-2019 07:32:18 2.1 C 56 %
3159 27-03-2019 07:44:18 3.1 C 56 %
3160 27-03-2019 07:56:17 3.4 C 54 %
3161 27-03-2019 08:08:17 3.3 C 50 %
3162 27-03-2019 08:20:17 3.5 C 48 %
3163 27-03-2019 08:32:18 3.8 C 47 %
3164 27-03-2019 08:44:18 3.9 C 46 %
3165 27-03-2019 08:56:17 4.9 C 46 %
3166 27-03-2019 09:08:18 5.6 C 42 %
3167 27-03-2019 09:20:17 6.2 C 37 %
3168 27-03-2019 09:32:17 6.8 C 35 %
3169 27-03-2019 09:44:17 7.8 C 31 %
3170 27-03-2019 09:56:17 8.1 C 29 %
3171 27-03-2019 10:08:17 8.7 C 29 %
3172 27-03-2019 10:20:18 8.6 C 27 %
3173 27-03-2019 10:32:17 10.6 C 25 %
3174 27-03-2019 10:44:17 10 C 22 %
3175 27-03-2019 10:56:17 11 C 20 %
Sensor: Nr:Datum:Temp:Feuchte:
Aussen-T/F 3176 27-03-2019 11:08:17 9.3 C 21 %
3177 27-03-2019 11:20:17 8.9 C 20 %
3178 27-03-2019 11:32:17 10 C 20 %
3179 27-03-2019 11:44:17 11.1 C 20 %
3180 27-03-2019 11:56:17 9.8 C 20 %
3181 27-03-2019 12:08:17 9.3 C 20 %
3182 27-03-2019 12:20:17 9.8 C 20 %
3183 27-03-2019 12:32:17 11.1 C 20 %
3184 27-03-2019 12:44:17 11.4 C 20 %
3185 27-03-2019 12:56:17 10.9 C 20 %
3186 27-03-2019 13:08:18 11.1 C 20 %
3187 27-03-2019 13:20:17 11.7 C 20 %
3188 27-03-2019 13:32:17 10.8 C 20 %
3189 27-03-2019 13:44:17 10.6 C 20 %
3190 27-03-2019 13:56:17 11 C 20 %
3191 27-03-2019 14:08:18 10.8 C 20 %
3192 27-03-2019 14:20:17 11.3 C 20 %
3193 27-03-2019 14:32:17 11.4 C 20 %
3194 27-03-2019 14:44:17 12.4 C 20 %
3195 27-03-2019 14:56:17 11.4 C 20 %
3196 27-03-2019 15:08:17 11.7 C 20 %
3197 27-03-2019 15:20:17 11.4 C 20 %
3198 27-03-2019 15:32:17 11.3 C 20 %
3199 27-03-2019 15:44:17 11 C 20 %
3200 27-03-2019 15:56:17 11 C 20 %
Sensor: Nr:Datum:Temp:Feuchte:
Aussen-T/F 3201 27-03-2019 16:08:17 11.2 C 20 %
3202 27-03-2019 16:20:17 11.2 C 20 %
3203 27-03-2019 16:32:17 11.8 C 20 %
3204 27-03-2019 16:44:17 11.1 C 20 %
3205 27-03-2019 16:56:18 11 C 20 %
3206 27-03-2019 17:08:17 11.1 C 20 %
3207 27-03-2019 17:20:18 10.7 C 20 %
3208 27-03-2019 17:32:17 10.4 C 20 %
3209 27-03-2019 17:44:17 10.9 C 20 %
3210 27-03-2019 17:56:17 10.9 C 20 %
3211 27-03-2019 18:08:17 10.2 C 20 %
3212 27-03-2019 18:20:17 9.3 C 20 %
3213 27-03-2019 18:32:17 8.2 C 20 %
3214 27-03-2019 18:44:18 7.9 C 20 %
3215 27-03-2019 18:56:17 7.4 C 20 %
3216 27-03-2019 19:08:17 7 C 25 %
3217 27-03-2019 19:20:17 6.6 C 27 %
3218 27-03-2019 19:32:18 6.4 C 27 %
3219 27-03-2019 19:44:18 6.2 C 28 %
3220 27-03-2019 19:56:17 6.1 C 29 %
3221 27-03-2019 20:08:18 6 C 29 %
3222 27-03-2019 20:20:17 6.1 C 29 %
3223 27-03-2019 20:32:17 5.6 C 31 %
3224 27-03-2019 20:44:17 5.4 C 32 %
3225 27-03-2019 20:56:17 5.2 C 33 %
Sensor: Nr:Datum:Temp:Feuchte:
Aussen-T/F 3226 27-03-2019 21:08:18 4.7 C 35 %
3227 27-03-2019 21:20:17 4.2 C 37 %
3228 27-03-2019 21:32:17 4.1 C 39 %
3229 27-03-2019 21:44:17 3.9 C 41 %
3230 27-03-2019 21:56:17 4 C 41 %
3231 27-03-2019 22:08:17 3.9 C 41 %
3232 27-03-2019 22:20:18 3.7 C 41 %
3233 27-03-2019 22:32:17 3.4 C 43 %
3234 27-03-2019 22:44:17 3.1 C 43 %
3235 27-03-2019 22:56:18 2.7 C 45 %
3236 27-03-2019 23:08:17 2.5 C 47 %
3237 27-03-2019 23:20:17 2.3 C 48 %
3238 27-03-2019 23:32:17 2.1 C 48 %
3239 27-03-2019 23:44:17 2 C 49 %
3240 27-03-2019 23:56:17 1.8 C 51 %
3241 28-03-2019 00:08:17 1.7 C 51 %
3242 28-03-2019 00:20:17 1.7 C 52 %
3243 28-03-2019 00:32:18 1.9 C 53 %
3244 28-03-2019 00:44:18 1.7 C 52 %
3245 28-03-2019 00:56:17 1.5 C 52 %
3246 28-03-2019 01:08:17 1.4 C 52 %
3247 28-03-2019 01:20:18 1.3 C 53 %
3248 28-03-2019 01:32:17 1.1 C 53 %
3249 28-03-2019 01:44:17 1.2 C 54 %
3250 28-03-2019 01:56:17 1 C 53 %
Sensor: Nr:Datum:Temp:Feuchte:
Aussen-T/F 3251 28-03-2019 02:08:18 0.8 C 55 %
3252 28-03-2019 02:20:17 0.7 C 55 %
3253 28-03-2019 02:32:17 0.7 C 55 %
3254 28-03-2019 02:44:17 0.6 C 55 %
3255 28-03-2019 02:56:18 0.5 C 55 %
3256 28-03-2019 03:08:17 0.4 C 56 %
3257 28-03-2019 03:20:17 0.3 C 56 %
3258 28-03-2019 03:32:17 0.6 C 57 %
3259 28-03-2019 03:44:17 0.1 C 56 %
3260 28-03-2019 03:56:17 0.2 C 56 %
3261 28-03-2019 04:08:17 0.4 C 57 %
3262 28-03-2019 04:20:17 0.3 C 56 %
3263 28-03-2019 04:32:18 0 C 56 %
3264 28-03-2019 04:44:18 0 C 56 %
3265 28-03-2019 04:56:17 0 C 56 %
3266 28-03-2019 05:08:17 0.1 C 56 %
3267 28-03-2019 05:20:17 -0.1 C 56 %
3268 28-03-2019 05:32:18 0.4 C 58 %
3269 28-03-2019 05:44:18 0.7 C 59 %
3270 28-03-2019 05:56:17 0.7 C 58 %
3271 28-03-2019 06:08:17 0.8 C 58 %
3272 28-03-2019 06:20:18 1 C 57 %
3273 28-03-2019 06:32:17 0.9 C 57 %
3274 28-03-2019 06:44:17 1.1 C 57 %
3275 28-03-2019 06:56:17 1.4 C 58 %
Sensor: Nr:Datum:Temp:Feuchte:
Aussen-T/F 3276 28-03-2019 07:08:17 1.6 C 56 %
3277 28-03-2019 07:20:17 1.8 C 55 %
3278 28-03-2019 07:32:17 2.1 C 52 %
3279 28-03-2019 07:44:17 2.1 C 50 %
3280 28-03-2019 07:56:17 2.5 C 48 %
3281 28-03-2019 08:08:17 2.5 C 46 %
3282 28-03-2019 08:20:17 2.5 C 43 %
3283 28-03-2019 08:32:17 2.7 C 43 %
3284 28-03-2019 08:44:17 3 C 42 %
3285 28-03-2019 08:56:17 3.3 C 42 %
3286 28-03-2019 09:08:17 3.8 C 40 %
3287 28-03-2019 09:20:17 4.4 C 38 %
3288 28-03-2019 09:32:17 4.6 C 37 %
3289 28-03-2019 09:44:17 5.7 C 36 %
3290 28-03-2019 09:56:17 6.5 C 35 %
3291 28-03-2019 10:08:18 7.4 C 32 %
3292 28-03-2019 10:20:17 7.8 C 29 %
3293 28-03-2019 10:32:17 9.3 C 25 %
3294 28-03-2019 10:44:17 12 C 20 %
3295 28-03-2019 10:56:17 11.7 C 20 %
3296 28-03-2019 11:08:17 11.3 C 20 %
3297 28-03-2019 11:20:17 12.9 C 20 %
3298 28-03-2019 11:32:17 13.7 C 20 %
3299 28-03-2019 11:44:17 14.4 C 20 %
3300 28-03-2019 11:56:17 12.4 C 20 %
Sensor: Nr:Datum:Temp:Feuchte:
Aussen-T/F 3301 28-03-2019 12:08:17 12.6 C 20 %
3302 28-03-2019 12:20:17 12.7 C 20 %
3303 28-03-2019 12:32:17 12.9 C 20 %
3304 28-03-2019 12:44:17 12.8 C 20 %
3305 28-03-2019 12:56:17 12.5 C 20 %
3306 28-03-2019 13:08:17 12.9 C 20 %
3307 28-03-2019 13:20:18 13.6 C 20 %
3308 28-03-2019 13:32:17 13.2 C 20 %
3309 28-03-2019 13:44:17 13.4 C 20 %
3310 28-03-2019 13:56:18 13.8 C 20 %
3311 28-03-2019 14:08:17 13.6 C 20 %
3312 28-03-2019 14:20:17 13.5 C 20 %
3313 28-03-2019 14:32:17 13.9 C 20 %
3314 28-03-2019 14:44:17 13.3 C 20 %
3315 28-03-2019 14:56:17 13.3 C 20 %
3316 28-03-2019 15:08:17 13.3 C 20 %
3317 28-03-2019 15:20:18 13.7 C 20 %
3318 28-03-2019 15:32:17 13.4 C 20 %
3319 28-03-2019 15:44:17 13.5 C 20 %
3320 28-03-2019 15:56:17 13.5 C 20 %
3321 28-03-2019 16:08:17 13.6 C 20 %
3322 28-03-2019 16:20:17 13.4 C 20 %
3323 28-03-2019 16:32:17 13.6 C 20 %
3324 28-03-2019 16:44:17 13.4 C 20 %
3325 28-03-2019 16:56:17 13.2 C 20 %
Sensor: Nr:Datum:Temp:Feuchte:
Aussen-T/F 3326 28-03-2019 17:08:17 13.1 C 20 %
3327 28-03-2019 17:20:17 13.1 C 20 %
3328 28-03-2019 17:32:17 12.9 C 20 %
3329 28-03-2019 17:44:17 12.9 C 20 %
3330 28-03-2019 17:56:17 12.7 C 20 %
3331 28-03-2019 18:08:17 12.5 C 20 %
3332 28-03-2019 18:20:17 12.2 C 20 %
3333 28-03-2019 18:32:18 11.3 C 20 %
3334 28-03-2019 18:44:18 10.1 C 20 %
3335 28-03-2019 18:56:17 9.4 C 26 %
3336 28-03-2019 19:08:18 9.6 C 26 %
3337 28-03-2019 19:20:17 9.6 C 27 %
3338 28-03-2019 19:32:18 9.6 C 27 %
3339 28-03-2019 19:44:18 9.9 C 26 %
3340 28-03-2019 19:56:17 10 C 25 %
3341 28-03-2019 20:08:17 9.9 C 26 %
3342 28-03-2019 20:20:17 9.8 C 26 %
3343 28-03-2019 20:32:17 9.2 C 28 %
3344 28-03-2019 20:44:17 9.3 C 28 %
3345 28-03-2019 20:56:17 9.3 C 28 %
3346 28-03-2019 21:08:17 9.2 C 28 %
3347 28-03-2019 21:20:17 9 C 29 %
3348 28-03-2019 21:32:17 8.2 C 30 %
3349 28-03-2019 21:44:17 7.6 C 31 %
3350 28-03-2019 21:56:17 7.6 C 31 %
Sensor: Nr:Datum:Temp:Feuchte:
Aussen-T/F 3351 28-03-2019 22:08:17 7.2 C 33 %
3352 28-03-2019 22:20:17 6.6 C 34 %
3353 28-03-2019 22:32:17 6 C 35 %
3354 28-03-2019 22:44:17 5.9 C 41 %
3355 28-03-2019 22:56:17 5.7 C 41 %
3356 28-03-2019 23:08:17 5.2 C 41 %
3357 28-03-2019 23:20:17 5 C 41 %
3358 28-03-2019 23:32:17 4.6 C 45 %
3359 28-03-2019 23:44:17 4.5 C 45 %
3360 28-03-2019 23:56:17 4.2 C 46 %
Sensor: Nr:Datum:Temp:Feuchte:
G-T/H 1 01-03-2019 00:06:17 9.1 C 74 %
2 01-03-2019 00:18:17 9.1 C 74 %
3 01-03-2019 00:30:17 9.1 C 74 %
4 01-03-2019 00:42:18 9.1 C 74 %
5 01-03-2019 00:54:17 9.1 C 74 %
6 01-03-2019 01:06:18 9.1 C 74 %
7 01-03-2019 01:18:18 9.1 C 74 %
8 01-03-2019 01:30:18 9.1 C 74 %
9 01-03-2019 01:42:18 9.2 C 74 %
10 01-03-2019 01:54:17 9.2 C 74 %
11 01-03-2019 02:06:17 9.2 C 74 %
12 01-03-2019 02:18:17 9.2 C 74 %
13 01-03-2019 02:30:17 9.2 C 74 %
14 01-03-2019 02:42:17 9.2 C 74 %
15 01-03-2019 02:54:17 9.2 C 74 %
16 01-03-2019 03:06:17 9.2 C 74 %
17 01-03-2019 03:18:17 9.2 C 74 %
18 01-03-2019 03:30:17 9.2 C 74 %
19 01-03-2019 03:42:17 9.2 C 74 %
20 01-03-2019 03:54:17 9.2 C 74 %
21 01-03-2019 04:06:17 9.2 C 74 %
22 01-03-2019 04:18:17 9.2 C 74 %
23 01-03-2019 04:30:17 9.2 C 74 %
24 01-03-2019 04:42:17 9.3 C 74 %
25 01-03-2019 04:54:17 9.2 C 74 %
Sensor: Nr:Datum:Temp:Feuchte:
G-T/H 26 01-03-2019 05:06:17 9.2 C 74 %
27 01-03-2019 05:18:17 9.2 C 74 %
28 01-03-2019 05:30:17 9.3 C 74 %
29 01-03-2019 05:42:17 9.3 C 74 %
30 01-03-2019 05:54:17 9.2 C 75 %
31 01-03-2019 06:06:17 9.3 C 75 %
32 01-03-2019 06:18:17 9.3 C 75 %
33 01-03-2019 06:30:17 9.3 C 75 %
34 01-03-2019 06:42:17 9.3 C 75 %
35 01-03-2019 06:54:18 9.3 C 75 %
36 01-03-2019 07:06:17 9.2 C 75 %
37 01-03-2019 07:18:18 9.3 C 75 %
38 01-03-2019 07:30:17 9.3 C 75 %
39 01-03-2019 07:42:17 9.3 C 75 %
40 01-03-2019 07:54:17 9.3 C 75 %
41 01-03-2019 08:06:17 9.3 C 75 %
42 01-03-2019 08:18:17 9.3 C 75 %
43 01-03-2019 08:30:17 9.3 C 75 %
44 01-03-2019 08:42:18 9.3 C 75 %
45 01-03-2019 08:54:17 9.3 C 75 %
46 01-03-2019 09:06:17 9.3 C 75 %
47 01-03-2019 09:18:17 9.3 C 75 %
48 01-03-2019 09:30:17 9.3 C 75 %
49 01-03-2019 09:42:17 9.3 C 75 %
50 01-03-2019 09:54:17 9.3 C 75 %
Sensor: Nr:Datum:Temp:Feuchte:
G-T/H 51 01-03-2019 10:06:17 9.3 C 75 %
52 01-03-2019 10:18:18 9.4 C 75 %
53 01-03-2019 10:30:17 9.4 C 75 %
54 01-03-2019 10:42:17 9.3 C 75 %
55 01-03-2019 10:54:17 9.4 C 75 %
56 01-03-2019 11:06:17 9.4 C 75 %
57 01-03-2019 11:18:17 9.4 C 75 %
58 01-03-2019 11:30:18 9.4 C 75 %
59 01-03-2019 11:42:18 9.4 C 75 %
60 01-03-2019 11:54:18 9.4 C 75 %
61 01-03-2019 12:06:17 9.4 C 75 %
62 01-03-2019 12:18:17 9.5 C 75 %
63 01-03-2019 12:30:17 9.4 C 75 %
64 01-03-2019 12:42:17 9.5 C 75 %
65 01-03-2019 12:54:17 9.4 C 75 %
66 01-03-2019 13:06:17 9.4 C 75 %
67 01-03-2019 13:18:17 9.4 C 75 %
68 01-03-2019 13:30:17 9.5 C 75 %
69 01-03-2019 13:42:17 9.5 C 75 %
70 01-03-2019 13:54:17 9.5 C 75 %
71 01-03-2019 14:06:18 9.5 C 75 %
72 01-03-2019 14:18:18 9.5 C 75 %
73 01-03-2019 14:30:18 9.5 C 75 %
74 01-03-2019 14:42:18 9.4 C 75 %
75 01-03-2019 14:54:17 9.5 C 75 %
Sensor: Nr:Datum:Temp:Feuchte:
G-T/H 76 01-03-2019 15:06:17 9.4 C 75 %
77 01-03-2019 15:18:17 9.5 C 75 %
78 01-03-2019 15:30:18 9.5 C 75 %
79 01-03-2019 15:42:18 9.5 C 75 %
80 01-03-2019 15:54:17 9.5 C 75 %
81 01-03-2019 16:06:17 9.5 C 75 %
82 01-03-2019 16:18:17 9.5 C 75 %
83 01-03-2019 16:30:17 9.5 C 75 %
84 01-03-2019 16:42:18 9.5 C 75 %
85 01-03-2019 16:54:17 9.5 C 75 %
86 01-03-2019 17:06:18 9.5 C 75 %
87 01-03-2019 17:18:17 9.5 C 75 %
88 01-03-2019 17:30:17 9.5 C 75 %
89 01-03-2019 17:42:17 9.5 C 75 %
90 01-03-2019 17:54:17 9.5 C 75 %
91 01-03-2019 18:06:17 9.5 C 75 %
92 01-03-2019 18:18:17 9.5 C 75 %
93 01-03-2019 18:30:17 9.5 C 75 %
94 01-03-2019 18:42:17 9.5 C 75 %
95 01-03-2019 18:54:17 9.5 C 75 %
96 01-03-2019 19:06:17 9.5 C 75 %
97 01-03-2019 19:18:17 9.5 C 75 %
98 01-03-2019 19:30:17 9.5 C 75 %
99 01-03-2019 19:42:17 9.5 C 75 %
100 01-03-2019 19:54:17 9.5 C 75 %
Sensor: Nr:Datum:Temp:Feuchte:
G-T/H 101 01-03-2019 20:06:17 9.5 C 75 %
102 01-03-2019 20:18:17 9.5 C 75 %
103 01-03-2019 20:30:18 9.5 C 75 %
104 01-03-2019 20:42:18 9.5 C 75 %
105 01-03-2019 20:54:18 9.5 C 75 %
106 01-03-2019 21:06:18 9.5 C 75 %
107 01-03-2019 21:18:17 9.5 C 75 %
108 01-03-2019 21:30:17 9.5 C 75 %
109 01-03-2019 21:42:17 9.5 C 75 %
110 01-03-2019 21:54:17 9.5 C 75 %
111 01-03-2019 22:06:18 9.5 C 75 %
112 01-03-2019 22:18:17 9.5 C 75 %
113 01-03-2019 22:30:17 9.5 C 75 %
114 01-03-2019 22:42:17 9.5 C 75 %
115 01-03-2019 22:54:17 9.5 C 75 %
116 01-03-2019 23:06:17 9.5 C 75 %
117 01-03-2019 23:18:17 9.5 C 75 %
118 01-03-2019 23:30:17 9.5 C 75 %
119 01-03-2019 23:42:17 9.5 C 75 %
120 01-03-2019 23:54:17 9.5 C 75 %
121 02-03-2019 00:06:18 9.5 C 75 %
122 02-03-2019 00:18:18 9.4 C 75 %
123 02-03-2019 00:30:17 9.4 C 75 %
124 02-03-2019 00:42:17 9.4 C 75 %
125 02-03-2019 00:54:17 9.4 C 75 %
Sensor: Nr:Datum:Temp:Feuchte:
G-T/H 126 02-03-2019 01:06:17 9.4 C 75 %
127 02-03-2019 01:18:17 9.4 C 75 %
128 02-03-2019 01:30:17 9.4 C 75 %
129 02-03-2019 01:42:17 9.4 C 75 %
130 02-03-2019 01:54:17 9.4 C 75 %
131 02-03-2019 02:06:18 9.4 C 75 %
132 02-03-2019 02:18:17 9.3 C 75 %
133 02-03-2019 02:30:17 9.4 C 75 %
134 02-03-2019 02:42:17 9.4 C 75 %
135 02-03-2019 02:54:17 9.4 C 74 %
136 02-03-2019 03:06:17 9.4 C 74 %
137 02-03-2019 03:18:17 9.3 C 74 %
138 02-03-2019 03:30:17 9.4 C 74 %
139 02-03-2019 03:42:17 9.4 C 74 %
140 02-03-2019 03:54:17 9.3 C 74 %
141 02-03-2019 04:06:17 9.4 C 74 %
142 02-03-2019 04:18:18 9.3 C 74 %
143 02-03-2019 04:30:18 9.3 C 74 %
144 02-03-2019 04:42:18 9.3 C 74 %
145 02-03-2019 04:54:18 9.3 C 74 %
146 02-03-2019 05:06:17 9.3 C 74 %
147 02-03-2019 05:18:17 9.3 C 74 %
148 02-03-2019 05:30:17 9.3 C 74 %
149 02-03-2019 05:42:17 9.3 C 74 %
150 02-03-2019 05:54:17 9.3 C 74 %
Sensor: Nr:Datum:Temp:Feuchte:
G-T/H 151 02-03-2019 06:06:17 9.3 C 74 %
152 02-03-2019 06:18:17 9.3 C 74 %
153 02-03-2019 06:30:17 9.3 C 74 %
154 02-03-2019 06:42:18 9.3 C 74 %
155 02-03-2019 06:54:17 9.3 C 74 %
156 02-03-2019 07:06:18 9.3 C 74 %
157 02-03-2019 07:18:17 9.2 C 74 %
158 02-03-2019 07:30:17 9.3 C 75 %
159 02-03-2019 07:42:17 9.3 C 75 %
160 02-03-2019 07:54:17 9.3 C 75 %
161 02-03-2019 08:06:18 9.2 C 75 %
162 02-03-2019 08:18:17 9.3 C 75 %
163 02-03-2019 08:30:17 9.2 C 75 %
164 02-03-2019 08:42:17 9.3 C 75 %
165 02-03-2019 08:54:17 9.3 C 75 %
166 02-03-2019 09:06:17 9.2 C 75 %
167 02-03-2019 09:18:17 9.3 C 75 %
168 02-03-2019 09:30:17 9.2 C 75 %
169 02-03-2019 09:42:18 9.2 C 75 %
170 02-03-2019 09:54:17 9.2 C 75 %
171 02-03-2019 10:06:18 9.3 C 75 %
172 02-03-2019 10:18:17 9.3 C 75 %
173 02-03-2019 10:30:17 9.2 C 75 %
174 02-03-2019 10:42:17 9.3 C 75 %
175 02-03-2019 10:54:17 9.3 C 75 %
Sensor: Nr:Datum:Temp:Feuchte:
G-T/H 176 02-03-2019 11:06:17 9.2 C 75 %
177 02-03-2019 11:18:18 9.3 C 75 %
178 02-03-2019 11:30:18 9.3 C 75 %
179 02-03-2019 11:42:18 9.3 C 75 %
180 02-03-2019 11:54:18 9.3 C 75 %
181 02-03-2019 12:06:18 9.5 C 75 %
182 02-03-2019 12:18:17 9.5 C 75 %
183 02-03-2019 12:30:17 9.6 C 75 %
184 02-03-2019 12:42:17 9.6 C 74 %
185 02-03-2019 12:54:17 9.6 C 74 %
186 02-03-2019 13:06:18 9.6 C 74 %
187 02-03-2019 13:18:17 9.8 C 73 %
188 02-03-2019 13:30:17 9.8 C 73 %
189 02-03-2019 13:42:17 9.8 C 73 %
190 02-03-2019 13:54:17 9.9 C 73 %
191 02-03-2019 14:06:17 9.9 C 72 %
192 02-03-2019 14:18:17 10 C 71 %
193 02-03-2019 14:30:18 10 C 70 %
194 02-03-2019 14:42:18 10.1 C 70 %
195 02-03-2019 14:54:17 10.1 C 70 %
196 02-03-2019 15:06:17 10.1 C 70 %
197 02-03-2019 15:18:17 10.2 C 69 %
198 02-03-2019 15:30:18 10.3 C 69 %
199 02-03-2019 15:42:18 10.3 C 69 %
200 02-03-2019 15:54:17 10.4 C 68 %
Sensor: Nr:Datum:Temp:Feuchte:
G-T/H 201 02-03-2019 16:06:17 10.4 C 68 %
202 02-03-2019 16:18:18 10.5 C 68 %
203 02-03-2019 16:30:18 10.5 C 68 %
204 02-03-2019 16:42:18 10.5 C 67 %
205 02-03-2019 16:54:17 10.4 C 68 %
206 02-03-2019 17:06:17 10.2 C 68 %
207 02-03-2019 17:18:17 10.2 C 68 %
208 02-03-2019 17:30:18 10.2 C 69 %
209 02-03-2019 17:42:18 10.1 C 69 %
210 02-03-2019 17:54:18 10.1 C 69 %
211 02-03-2019 18:06:17 10.1 C 70 %
212 02-03-2019 18:18:17 10.1 C 70 %
213 02-03-2019 18:30:18 10.1 C 70 %
214 02-03-2019 18:42:18 10.1 C 70 %
215 02-03-2019 18:54:18 10.1 C 70 %
216 02-03-2019 19:06:18 10.1 C 71 %
217 02-03-2019 19:18:17 10.1 C 71 %
218 02-03-2019 19:30:17 10.1 C 71 %
219 02-03-2019 19:42:17 10.1 C 71 %
220 02-03-2019 19:54:17 10.1 C 71 %
221 02-03-2019 20:06:17 10.1 C 71 %
222 02-03-2019 20:18:17 10.1 C 71 %
223 02-03-2019 20:30:17 10.1 C 72 %
224 02-03-2019 20:42:17 10.1 C 72 %
225 02-03-2019 20:54:17 10.1 C 72 %
Sensor: Nr:Datum:Temp:Feuchte:
G-T/H 226 02-03-2019 21:06:17 10.1 C 72 %
227 02-03-2019 21:18:18 10.1 C 72 %
228 02-03-2019 21:30:17 10.1 C 72 %
229 02-03-2019 21:42:17 10.1 C 72 %
230 02-03-2019 21:54:17 10.1 C 72 %
231 02-03-2019 22:06:17 10.1 C 72 %
232 02-03-2019 22:18:17 10.1 C 72 %
233 02-03-2019 22:30:18 10.1 C 72 %
234 02-03-2019 22:42:18 10.1 C 72 %
235 02-03-2019 22:54:17 10.1 C 73 %
236 02-03-2019 23:06:18 10.1 C 73 %
237 02-03-2019 23:18:17 10.1 C 73 %
238 02-03-2019 23:30:17 10.1 C 73 %
239 02-03-2019 23:42:17 10.1 C 73 %
240 02-03-2019 23:54:18 10.1 C 73 %
241 03-03-2019 00:06:18 10.1 C 73 %
242 03-03-2019 00:18:17 10.1 C 73 %
243 03-03-2019 00:30:17 10.1 C 73 %
244 03-03-2019 00:42:17 10.1 C 73 %
245 03-03-2019 00:54:17 10.1 C 73 %
246 03-03-2019 01:06:18 10.1 C 73 %
247 03-03-2019 01:18:17 10.1 C 73 %
248 03-03-2019 01:30:17 10 C 73 %
249 03-03-2019 01:42:17 10.1 C 73 %
250 03-03-2019 01:54:17 10.1 C 73 %
Sensor: Nr:Datum:Temp:Feuchte:
G-T/H 251 03-03-2019 02:06:17 10.1 C 73 %
252 03-03-2019 02:18:18 10.1 C 73 %
253 03-03-2019 02:30:17 10.1 C 73 %
254 03-03-2019 02:42:17 10.1 C 73 %
255 03-03-2019 02:54:17 10.1 C 73 %
256 03-03-2019 03:06:17 10.1 C 73 %
257 03-03-2019 03:18:17 10.1 C 73 %
258 03-03-2019 03:30:17 10.1 C 73 %
259 03-03-2019 03:42:17 10.1 C 73 %
260 03-03-2019 03:54:17 10.1 C 73 %
261 03-03-2019 04:06:18 10.1 C 73 %
262 03-03-2019 04:18:17 10.1 C 73 %
263 03-03-2019 04:30:17 10.1 C 73 %
264 03-03-2019 04:42:17 10.1 C 73 %
265 03-03-2019 04:54:17 10.1 C 73 %
266 03-03-2019 05:06:17 10.1 C 73 %
267 03-03-2019 05:18:17 10.1 C 73 %
268 03-03-2019 05:30:17 10.1 C 73 %
269 03-03-2019 05:42:18 10.1 C 73 %
270 03-03-2019 05:54:17 10.1 C 73 %
271 03-03-2019 06:06:17 10.1 C 73 %
272 03-03-2019 06:18:17 10.1 C 73 %
273 03-03-2019 06:30:17 10.1 C 73 %
274 03-03-2019 06:42:17 10.1 C 73 %
275 03-03-2019 06:54:17 10.1 C 73 %
Sensor: Nr:Datum:Temp:Feuchte:
G-T/H 276 03-03-2019 07:06:18 10.1 C 73 %
277 03-03-2019 07:18:17 10.1 C 73 %
278 03-03-2019 07:30:17 10.1 C 73 %
279 03-03-2019 07:42:17 10.1 C 73 %
280 03-03-2019 07:54:17 10.1 C 73 %
281 03-03-2019 08:06:17 10.1 C 73 %
282 03-03-2019 08:18:17 10.1 C 73 %
283 03-03-2019 08:30:17 10.1 C 73 %
284 03-03-2019 08:42:17 10.1 C 73 %
285 03-03-2019 08:54:17 10.1 C 73 %
286 03-03-2019 09:06:17 10.1 C 73 %
287 03-03-2019 09:18:17 10.2 C 73 %
288 03-03-2019 09:30:17 10.2 C 73 %
289 03-03-2019 09:42:17 10.2 C 73 %
290 03-03-2019 09:54:17 10.2 C 73 %
291 03-03-2019 10:06:17 10.2 C 74 %
292 03-03-2019 10:18:17 10.2 C 74 %
293 03-03-2019 10:30:17 10.2 C 74 %
294 03-03-2019 10:42:17 10.2 C 74 %
295 03-03-2019 10:54:17 10.2 C 74 %
296 03-03-2019 11:06:17 10.2 C 74 %
297 03-03-2019 11:18:17 10.2 C 74 %
298 03-03-2019 11:30:17 10.2 C 74 %
299 03-03-2019 11:42:18 10.2 C 74 %
300 03-03-2019 11:54:18 10.2 C 74 %
Sensor: Nr:Datum:Temp:Feuchte:
G-T/H 301 03-03-2019 12:06:18 10.2 C 74 %
302 03-03-2019 12:18:17 10.2 C 74 %
303 03-03-2019 12:30:17 10.2 C 74 %
304 03-03-2019 12:42:17 10.3 C 74 %
305 03-03-2019 12:54:17 10.3 C 74 %
306 03-03-2019 13:06:17 10.3 C 74 %
307 03-03-2019 13:18:17 10.3 C 74 %
308 03-03-2019 13:30:18 10.3 C 74 %
309 03-03-2019 13:42:18 10.3 C 74 %
310 03-03-2019 13:54:17 10.3 C 74 %
311 03-03-2019 14:06:17 10.4 C 74 %
312 03-03-2019 14:18:17 10.4 C 74 %
313 03-03-2019 14:30:17 10.6 C 74 %
314 03-03-2019 14:42:18 10.7 C 74 %
315 03-03-2019 14:54:17 10.8 C 74 %
316 03-03-2019 15:06:17 10.8 C 73 %
317 03-03-2019 15:18:17 10.8 C 73 %
318 03-03-2019 15:30:17 10.7 C 73 %
319 03-03-2019 15:42:17 10.7 C 73 %
320 03-03-2019 15:54:17 10.7 C 73 %
321 03-03-2019 16:06:17 10.7 C 73 %
322 03-03-2019 16:18:17 10.6 C 73 %
323 03-03-2019 16:30:18 10.6 C 73 %
324 03-03-2019 16:42:18 10.7 C 73 %
325 03-03-2019 16:54:18 10.7 C 74 %
Sensor: Nr:Datum:Temp:Feuchte:
G-T/H 326 03-03-2019 17:06:17 10.7 C 74 %
327 03-03-2019 17:18:17 10.6 C 74 %
328 03-03-2019 17:30:17 10.7 C 74 %
329 03-03-2019 17:42:17 10.7 C 74 %
330 03-03-2019 17:54:17 10.7 C 74 %
331 03-03-2019 18:06:17 10.7 C 74 %
332 03-03-2019 18:18:17 10.7 C 74 %
333 03-03-2019 18:30:17 10.7 C 74 %
334 03-03-2019 18:42:17 10.7 C 74 %
335 03-03-2019 18:54:17 10.7 C 74 %
336 03-03-2019 19:06:17 10.7 C 74 %
337 03-03-2019 19:18:17 10.7 C 74 %
338 03-03-2019 19:30:17 10.7 C 74 %
339 03-03-2019 19:42:17 10.7 C 74 %
340 03-03-2019 19:54:17 10.7 C 74 %
341 03-03-2019 20:06:17 10.7 C 74 %
342 03-03-2019 20:18:18 10.7 C 74 %
343 03-03-2019 20:30:18 10.7 C 74 %
344 03-03-2019 20:42:18 10.7 C 74 %
345 03-03-2019 20:54:18 10.7 C 74 %
346 03-03-2019 21:06:18 10.7 C 74 %
347 03-03-2019 21:18:17 10.7 C 74 %
348 03-03-2019 21:30:17 10.7 C 74 %
349 03-03-2019 21:42:17 10.7 C 74 %
350 03-03-2019 21:54:18 10.7 C 74 %
Sensor: Nr:Datum:Temp:Feuchte:
G-T/H 351 03-03-2019 22:06:18 10.7 C 74 %
352 03-03-2019 22:18:17 10.7 C 74 %
353 03-03-2019 22:30:17 10.7 C 74 %
354 03-03-2019 22:42:17 10.7 C 74 %
355 03-03-2019 22:54:17 10.7 C 74 %
356 03-03-2019 23:06:17 10.7 C 74 %
357 03-03-2019 23:18:18 10.7 C 74 %
358 03-03-2019 23:30:18 10.7 C 74 %
359 03-03-2019 23:42:18 10.7 C 74 %
360 03-03-2019 23:54:17 10.7 C 74 %
361 04-03-2019 00:06:17 10.7 C 74 %
362 04-03-2019 00:18:17 10.7 C 74 %
363 04-03-2019 00:30:18 10.7 C 74 %
364 04-03-2019 00:42:18 10.7 C 74 %
365 04-03-2019 00:54:17 10.7 C 74 %
366 04-03-2019 01:06:17 10.8 C 74 %
367 04-03-2019 01:18:17 10.7 C 74 %
368 04-03-2019 01:30:17 10.7 C 74 %
369 04-03-2019 01:42:18 10.7 C 74 %
370 04-03-2019 01:54:18 10.8 C 74 %
371 04-03-2019 02:06:18 10.8 C 74 %
372 04-03-2019 02:18:17 10.8 C 74 %
373 04-03-2019 02:30:17 10.8 C 74 %
374 04-03-2019 02:42:17 10.8 C 74 %
375 04-03-2019 02:54:17 10.8 C 74 %
Sensor: Nr:Datum:Temp:Feuchte:
G-T/H 376 04-03-2019 03:06:17 10.8 C 75 %
377 04-03-2019 03:18:18 10.8 C 75 %
378 04-03-2019 03:30:18 10.8 C 75 %
379 04-03-2019 03:42:18 10.8 C 75 %
380 04-03-2019 03:54:17 10.8 C 75 %
381 04-03-2019 04:06:18 10.8 C 75 %
382 04-03-2019 04:18:18 10.8 C 75 %
383 04-03-2019 04:30:17 10.8 C 75 %
384 04-03-2019 04:42:17 10.8 C 75 %
385 04-03-2019 04:54:17 10.8 C 75 %
386 04-03-2019 05:06:17 10.8 C 75 %
387 04-03-2019 05:18:17 10.8 C 75 %
388 04-03-2019 05:30:18 10.8 C 75 %
389 04-03-2019 05:42:18 10.8 C 75 %
390 04-03-2019 05:54:17 10.8 C 75 %
391 04-03-2019 06:06:17 10.8 C 75 %
392 04-03-2019 06:18:17 10.8 C 75 %
393 04-03-2019 06:30:18 10.7 C 75 %
394 04-03-2019 06:42:18 10.7 C 75 %
395 04-03-2019 06:54:18 10.7 C 75 %
396 04-03-2019 07:06:17 10.8 C 75 %
397 04-03-2019 07:18:17 10.8 C 75 %
398 04-03-2019 07:30:17 10.8 C 75 %
399 04-03-2019 07:42:17 10.8 C 75 %
400 04-03-2019 07:54:17 10.8 C 75 %
Sensor: Nr:Datum:Temp:Feuchte:
G-T/H 401 04-03-2019 08:06:18 10.8 C 75 %
402 04-03-2019 08:18:17 10.8 C 75 %
403 04-03-2019 08:30:17 10.8 C 75 %
404 04-03-2019 08:42:17 10.8 C 75 %
405 04-03-2019 08:54:17 10.8 C 75 %
406 04-03-2019 09:06:17 10.8 C 75 %
407 04-03-2019 09:18:17 10.8 C 74 %
408 04-03-2019 09:30:18 10.7 C 74 %
409 04-03-2019 09:42:18 10.7 C 74 %
410 04-03-2019 09:54:17 10.7 C 74 %
411 04-03-2019 10:06:17 10.7 C 73 %
412 04-03-2019 10:18:17 10.7 C 73 %
413 04-03-2019 10:30:17 10.7 C 74 %
414 04-03-2019 10:42:17 10.7 C 74 %
415 04-03-2019 10:54:17 10.7 C 74 %
416 04-03-2019 11:06:18 10.7 C 74 %
417 04-03-2019 11:18:17 10.7 C 74 %
418 04-03-2019 11:30:17 10.7 C 74 %
419 04-03-2019 11:42:17 10.7 C 74 %
420 04-03-2019 11:54:17 10.7 C 74 %
421 04-03-2019 12:06:17 10.7 C 74 %
422 04-03-2019 12:18:17 10.7 C 74 %
423 04-03-2019 12:30:17 10.7 C 74 %
424 04-03-2019 12:42:17 10.7 C 74 %
425 04-03-2019 12:54:17 10.7 C 74 %
Sensor: Nr:Datum:Temp:Feuchte:
G-T/H 426 04-03-2019 13:06:17 10.7 C 74 %
427 04-03-2019 13:18:17 10.7 C 74 %
428 04-03-2019 13:30:17 10.7 C 74 %
429 04-03-2019 13:42:17 10.7 C 74 %
430 04-03-2019 13:54:17 10.7 C 74 %
431 04-03-2019 14:06:17 10.7 C 74 %
432 04-03-2019 14:18:18 10.8 C 74 %
433 04-03-2019 14:30:18 10.7 C 74 %
434 04-03-2019 14:42:18 10.8 C 74 %
435 04-03-2019 14:54:17 10.7 C 74 %
436 04-03-2019 15:06:17 10.7 C 74 %
437 04-03-2019 15:18:17 10.7 C 74 %
438 04-03-2019 15:30:17 10.7 C 74 %
439 04-03-2019 15:42:17 10.7 C 74 %
440 04-03-2019 15:54:17 10.6 C 73 %
441 04-03-2019 16:06:17 10.6 C 73 %
442 04-03-2019 16:18:18 10.6 C 73 %
443 04-03-2019 16:30:17 10.6 C 72 %
444 04-03-2019 16:42:17 10.6 C 72 %
445 04-03-2019 16:54:17 10.5 C 72 %
446 04-03-2019 17:06:17 10.5 C 72 %
447 04-03-2019 17:18:17 10.5 C 71 %
448 04-03-2019 17:30:17 10.5 C 71 %
449 04-03-2019 17:42:17 10.5 C 71 %
450 04-03-2019 17:54:17 10.5 C 71 %
Sensor: Nr:Datum:Temp:Feuchte:
G-T/H 451 04-03-2019 18:06:17 10.4 C 71 %
452 04-03-2019 18:18:18 10.4 C 71 %
453 04-03-2019 18:30:17 10.4 C 70 %
454 04-03-2019 18:42:17 10.4 C 70 %
455 04-03-2019 18:54:17 10.4 C 70 %
456 04-03-2019 19:06:17 10.4 C 70 %
457 04-03-2019 19:18:17 10.3 C 70 %
458 04-03-2019 19:30:18 10.3 C 70 %
459 04-03-2019 19:42:18 10.3 C 70 %
460 04-03-2019 19:54:17 10.3 C 70 %
461 04-03-2019 20:06:17 10.3 C 70 %
462 04-03-2019 20:18:17 10.3 C 70 %
463 04-03-2019 20:30:18 10.2 C 69 %
464 04-03-2019 20:42:18 10.2 C 69 %
465 04-03-2019 20:54:18 10.2 C 69 %
466 04-03-2019 21:06:18 10.2 C 69 %
467 04-03-2019 21:18:17 10.2 C 70 %
468 04-03-2019 21:30:17 10.2 C 70 %
469 04-03-2019 21:42:17 10.3 C 70 %
470 04-03-2019 21:54:17 10.2 C 70 %
471 04-03-2019 22:06:18 10.2 C 70 %
472 04-03-2019 22:18:17 10.3 C 71 %
473 04-03-2019 22:30:17 10.3 C 71 %
474 04-03-2019 22:42:17 10.2 C 71 %
475 04-03-2019 22:54:17 10.2 C 71 %
Sensor: Nr:Datum:Temp:Feuchte:
G-T/H 476 04-03-2019 23:06:17 10.2 C 71 %
477 04-03-2019 23:18:17 10.2 C 71 %
478 04-03-2019 23:30:18 10.2 C 71 %
479 04-03-2019 23:42:18 10.2 C 71 %
480 04-03-2019 23:54:17 10.1 C 71 %
481 05-03-2019 00:06:17 10.1 C 70 %
482 05-03-2019 00:18:18 10.1 C 70 %
483 05-03-2019 00:30:18 10.1 C 70 %
484 05-03-2019 00:42:18 10 C 70 %
485 05-03-2019 00:54:18 10 C 70 %
486 05-03-2019 01:06:18 10 C 70 %
487 05-03-2019 01:18:18 10 C 69 %
488 05-03-2019 01:30:18 10 C 69 %
489 05-03-2019 01:42:18 10 C 69 %
490 05-03-2019 01:54:17 10 C 69 %
491 05-03-2019 02:06:17 9.9 C 70 %
492 05-03-2019 02:18:17 9.9 C 70 %
493 05-03-2019 02:30:17 9.9 C 70 %
494 05-03-2019 02:42:17 9.9 C 70 %
495 05-03-2019 02:54:17 9.8 C 70 %
496 05-03-2019 03:06:17 9.8 C 70 %
497 05-03-2019 03:18:17 9.8 C 70 %
498 05-03-2019 03:30:17 9.9 C 70 %
499 05-03-2019 03:42:17 9.8 C 69 %
500 05-03-2019 03:54:17 9.8 C 69 %
Sensor: Nr:Datum:Temp:Feuchte:
G-T/H 501 05-03-2019 04:06:17 9.8 C 69 %
502 05-03-2019 04:18:17 9.8 C 69 %
503 05-03-2019 04:30:17 9.8 C 69 %
504 05-03-2019 04:42:17 9.8 C 70 %
505 05-03-2019 04:54:17 9.8 C 70 %
506 05-03-2019 05:06:17 9.8 C 70 %
507 05-03-2019 05:18:18 9.8 C 70 %
508 05-03-2019 05:30:18 9.8 C 70 %
509 05-03-2019 05:42:18 9.8 C 70 %
510 05-03-2019 05:54:18 9.8 C 71 %
511 05-03-2019 06:06:17 9.8 C 71 %
512 05-03-2019 06:18:17 9.8 C 71 %
513 05-03-2019 06:30:17 9.7 C 71 %
514 05-03-2019 06:42:18 9.7 C 71 %
515 05-03-2019 06:54:18 9.7 C 71 %
516 05-03-2019 07:06:18 9.7 C 71 %
517 05-03-2019 07:18:17 9.7 C 71 %
518 05-03-2019 07:30:17 9.7 C 71 %
519 05-03-2019 07:42:17 9.7 C 71 %
520 05-03-2019 07:54:17 9.7 C 71 %
521 05-03-2019 08:06:18 9.7 C 71 %
522 05-03-2019 08:18:17 9.7 C 71 %
523 05-03-2019 08:30:17 9.7 C 71 %
524 05-03-2019 08:42:17 9.7 C 71 %
525 05-03-2019 08:54:17 9.7 C 71 %
Sensor: Nr:Datum:Temp:Feuchte:
G-T/H 526 05-03-2019 09:06:17 9.7 C 71 %
527 05-03-2019 09:18:17 9.7 C 71 %
528 05-03-2019 09:30:17 9.7 C 71 %
529 05-03-2019 09:42:17 9.6 C 72 %
530 05-03-2019 09:54:17 9.7 C 72 %
531 05-03-2019 10:06:18 9.6 C 72 %
532 05-03-2019 10:18:17 9.6 C 72 %
533 05-03-2019 10:30:18 9.6 C 72 %
534 05-03-2019 10:42:18 9.6 C 72 %
535 05-03-2019 10:54:17 9.6 C 72 %
536 05-03-2019 11:06:17 9.6 C 72 %
537 05-03-2019 11:18:17 9.6 C 72 %
538 05-03-2019 11:30:17 9.6 C 72 %
539 05-03-2019 11:42:17 9.6 C 72 %
540 05-03-2019 11:54:17 9.6 C 72 %
541 05-03-2019 12:06:17 9.6 C 72 %
542 05-03-2019 12:18:17 9.6 C 72 %
543 05-03-2019 12:30:18 9.6 C 72 %
544 05-03-2019 12:42:18 9.6 C 72 %
545 05-03-2019 12:54:17 9.6 C 72 %
546 05-03-2019 13:06:17 9.6 C 72 %
547 05-03-2019 13:18:17 9.6 C 72 %
548 05-03-2019 13:30:17 9.6 C 72 %
549 05-03-2019 13:42:17 9.6 C 72 %
550 05-03-2019 13:54:17 9.6 C 72 %
Sensor: Nr:Datum:Temp:Feuchte:
G-T/H 551 05-03-2019 14:06:17 9.6 C 72 %
552 05-03-2019 14:18:17 9.6 C 72 %
553 05-03-2019 14:30:17 9.6 C 72 %
554 05-03-2019 14:42:17 9.6 C 72 %
555 05-03-2019 14:54:17 9.6 C 72 %
556 05-03-2019 15:06:18 9.6 C 72 %
557 05-03-2019 15:18:17 9.6 C 72 %
558 05-03-2019 15:30:17 9.6 C 72 %
559 05-03-2019 15:42:17 9.6 C 72 %
560 05-03-2019 15:54:18 9.7 C 72 %
561 05-03-2019 16:06:17 9.7 C 72 %
562 05-03-2019 16:18:16 9.6 C 73 %
563 05-03-2019 16:30:17 9.6 C 73 %
564 05-03-2019 16:42:17 9.7 C 73 %
565 05-03-2019 16:54:17 9.6 C 73 %
566 05-03-2019 17:06:18 9.7 C 73 %
567 05-03-2019 17:18:17 9.7 C 73 %
568 05-03-2019 17:30:17 9.7 C 73 %
569 05-03-2019 17:42:17 9.6 C 73 %
570 05-03-2019 17:54:17 9.7 C 73 %
571 05-03-2019 18:06:18 9.7 C 73 %
572 05-03-2019 18:18:17 9.7 C 73 %
573 05-03-2019 18:30:17 9.7 C 73 %
574 05-03-2019 18:42:17 9.7 C 73 %
575 05-03-2019 18:54:17 9.7 C 73 %
Sensor: Nr:Datum:Temp:Feuchte:
G-T/H 576 05-03-2019 19:06:17 9.7 C 73 %
577 05-03-2019 19:18:17 9.7 C 73 %
578 05-03-2019 19:30:17 9.7 C 73 %
579 05-03-2019 19:42:17 9.7 C 73 %
580 05-03-2019 19:54:17 9.7 C 73 %
581 05-03-2019 20:06:18 9.7 C 73 %
582 05-03-2019 20:18:17 9.7 C 73 %
583 05-03-2019 20:30:17 9.7 C 73 %
584 05-03-2019 20:42:17 9.7 C 73 %
585 05-03-2019 20:54:17 9.7 C 73 %
586 05-03-2019 21:06:17 9.7 C 73 %
587 05-03-2019 21:18:17 9.7 C 73 %
588 05-03-2019 21:30:17 9.6 C 73 %
589 05-03-2019 21:42:17 9.6 C 73 %
590 05-03-2019 21:54:18 9.6 C 73 %
591 05-03-2019 22:06:17 9.6 C 73 %
592 05-03-2019 22:18:17 9.6 C 73 %
593 05-03-2019 22:30:18 9.6 C 73 %
594 05-03-2019 22:42:18 9.6 C 73 %
595 05-03-2019 22:54:17 9.6 C 73 %
596 05-03-2019 23:06:17 9.6 C 73 %
597 05-03-2019 23:18:18 9.6 C 73 %
598 05-03-2019 23:30:17 9.6 C 73 %
599 05-03-2019 23:42:17 9.6 C 73 %
600 05-03-2019 23:54:17 9.5 C 73 %
Sensor: Nr:Datum:Temp:Feuchte:
G-T/H 601 06-03-2019 00:06:18 9.5 C 73 %
602 06-03-2019 00:18:17 9.5 C 73 %
603 06-03-2019 00:30:17 9.5 C 73 %
604 06-03-2019 00:42:17 9.5 C 73 %
605 06-03-2019 00:54:17 9.5 C 73 %
606 06-03-2019 01:06:18 9.5 C 73 %
607 06-03-2019 01:18:17 9.5 C 73 %
608 06-03-2019 01:30:17 9.5 C 73 %
609 06-03-2019 01:42:17 9.5 C 73 %
610 06-03-2019 01:54:17 9.5 C 73 %
611 06-03-2019 02:06:17 9.5 C 73 %
612 06-03-2019 02:18:17 9.5 C 73 %
613 06-03-2019 02:30:17 9.5 C 73 %
614 06-03-2019 02:42:17 9.5 C 73 %
615 06-03-2019 02:54:17 9.5 C 73 %
616 06-03-2019 03:06:18 9.5 C 73 %
617 06-03-2019 03:18:17 9.5 C 73 %
618 06-03-2019 03:30:17 9.5 C 73 %
619 06-03-2019 03:42:17 9.5 C 73 %
620 06-03-2019 03:54:17 9.5 C 73 %
621 06-03-2019 04:06:18 9.4 C 73 %
622 06-03-2019 04:18:17 9.5 C 73 %
623 06-03-2019 04:30:17 9.4 C 73 %
624 06-03-2019 04:42:17 9.4 C 73 %
625 06-03-2019 04:54:17 9.4 C 73 %
Sensor: Nr:Datum:Temp:Feuchte:
G-T/H 626 06-03-2019 05:06:17 9.4 C 73 %
627 06-03-2019 05:18:17 9.4 C 73 %
628 06-03-2019 05:30:17 9.4 C 73 %
629 06-03-2019 05:42:17 9.4 C 73 %
630 06-03-2019 05:54:17 9.4 C 73 %
631 06-03-2019 06:06:17 9.4 C 73 %
632 06-03-2019 06:18:17 9.4 C 73 %
633 06-03-2019 06:30:18 9.4 C 73 %
634 06-03-2019 06:42:18 9.4 C 73 %
635 06-03-2019 06:54:17 9.4 C 73 %
636 06-03-2019 07:06:17 9.4 C 73 %
637 06-03-2019 07:18:17 9.4 C 73 %
638 06-03-2019 07:30:17 9.3 C 73 %
639 06-03-2019 07:42:17 9.3 C 73 %
640 06-03-2019 07:54:17 9.3 C 73 %
641 06-03-2019 08:06:17 9.3 C 73 %
642 06-03-2019 08:18:17 9.4 C 73 %
643 06-03-2019 08:30:17 9.3 C 73 %
644 06-03-2019 08:42:17 9.3 C 73 %
645 06-03-2019 08:54:17 9.3 C 73 %
646 06-03-2019 09:06:17 9.3 C 73 %
647 06-03-2019 09:18:17 9.3 C 73 %
648 06-03-2019 09:30:17 9.3 C 73 %
649 06-03-2019 09:42:17 9.4 C 73 %
650 06-03-2019 09:54:17 9.3 C 73 %
Sensor: Nr:Datum:Temp:Feuchte:
G-T/H 651 06-03-2019 10:06:17 9.3 C 73 %
652 06-03-2019 10:18:17 9.4 C 73 %
653 06-03-2019 10:30:17 9.3 C 73 %
654 06-03-2019 10:42:17 9.3 C 74 %
655 06-03-2019 10:54:17 9.3 C 74 %
656 06-03-2019 11:06:17 9.4 C 74 %
657 06-03-2019 11:18:18 9.4 C 74 %
658 06-03-2019 11:30:17 9.4 C 74 %
659 06-03-2019 11:42:17 9.4 C 74 %
660 06-03-2019 11:54:17 9.4 C 74 %
661 06-03-2019 12:06:18 9.5 C 74 %
662 06-03-2019 12:18:17 9.5 C 74 %
663 06-03-2019 12:30:17 9.5 C 74 %
664 06-03-2019 12:42:17 9.5 C 74 %
665 06-03-2019 12:54:17 9.5 C 74 %
666 06-03-2019 13:06:18 9.5 C 74 %
667 06-03-2019 13:18:17 9.6 C 74 %
668 06-03-2019 13:30:17 9.6 C 74 %
669 06-03-2019 13:42:17 9.6 C 74 %
670 06-03-2019 13:54:17 9.6 C 74 %
671 06-03-2019 14:06:18 9.7 C 74 %
672 06-03-2019 14:18:17 9.7 C 74 %
673 06-03-2019 14:30:17 9.7 C 74 %
674 06-03-2019 14:42:17 9.7 C 74 %
675 06-03-2019 14:54:17 9.8 C 74 %
Sensor: Nr:Datum:Temp:Feuchte:
G-T/H 676 06-03-2019 15:06:17 9.7 C 74 %
677 06-03-2019 15:18:17 9.8 C 74 %
678 06-03-2019 15:30:17 9.8 C 74 %
679 06-03-2019 15:42:17 9.8 C 74 %
680 06-03-2019 15:54:17 9.9 C 74 %
681 06-03-2019 16:06:17 9.9 C 74 %
682 06-03-2019 16:18:17 9.9 C 74 %
683 06-03-2019 16:30:17 9.9 C 74 %
684 06-03-2019 16:42:17 10 C 73 %
685 06-03-2019 16:54:17 10 C 73 %
686 06-03-2019 17:06:17 10 C 73 %
687 06-03-2019 17:18:17 10 C 73 %
688 06-03-2019 17:30:17 10.1 C 73 %
689 06-03-2019 17:42:17 10 C 73 %
690 06-03-2019 17:54:17 10.1 C 73 %
691 06-03-2019 18:06:17 10.1 C 73 %
692 06-03-2019 18:18:17 10.1 C 73 %
693 06-03-2019 18:30:17 10.1 C 73 %
694 06-03-2019 18:42:17 10.1 C 73 %
695 06-03-2019 18:54:17 10.2 C 73 %
696 06-03-2019 19:06:17 10.2 C 73 %
697 06-03-2019 19:18:17 10.2 C 73 %
698 06-03-2019 19:30:17 10.2 C 73 %
699 06-03-2019 19:42:17 10.2 C 74 %
700 06-03-2019 19:54:17 10.2 C 74 %
Sensor: Nr:Datum:Temp:Feuchte:
G-T/H 701 06-03-2019 20:06:17 10.2 C 74 %
702 06-03-2019 20:18:17 10.2 C 74 %
703 06-03-2019 20:30:17 10.2 C 74 %
704 06-03-2019 20:42:17 10.2 C 74 %
705 06-03-2019 20:54:17 10.2 C 74 %
706 06-03-2019 21:06:17 10.3 C 74 %
707 06-03-2019 21:18:17 10.2 C 74 %
708 06-03-2019 21:30:17 10.3 C 74 %
709 06-03-2019 21:42:17 10.3 C 74 %
710 06-03-2019 21:54:17 10.3 C 74 %
711 06-03-2019 22:06:18 10.3 C 74 %
712 06-03-2019 22:18:17 10.3 C 74 %
713 06-03-2019 22:30:17 10.3 C 74 %
714 06-03-2019 22:42:17 10.4 C 74 %
715 06-03-2019 22:54:17 10.4 C 74 %
716 06-03-2019 23:06:17 10.4 C 74 %
717 06-03-2019 23:18:17 10.4 C 74 %
718 06-03-2019 23:30:17 10.4 C 74 %
719 06-03-2019 23:42:17 10.4 C 74 %
720 06-03-2019 23:54:17 10.4 C 74 %
721 07-03-2019 00:06:17 10.4 C 74 %
722 07-03-2019 00:18:17 10.4 C 74 %
723 07-03-2019 00:30:17 10.4 C 74 %
724 07-03-2019 00:42:18 10.4 C 74 %
725 07-03-2019 00:54:17 10.4 C 74 %
Sensor: Nr:Datum:Temp:Feuchte:
G-T/H 726 07-03-2019 01:06:17 10.4 C 74 %
727 07-03-2019 01:18:17 10.4 C 74 %
728 07-03-2019 01:30:17 10.4 C 74 %
729 07-03-2019 01:42:17 10.4 C 74 %
730 07-03-2019 01:54:17 10.4 C 74 %
731 07-03-2019 02:06:17 10.4 C 74 %
732 07-03-2019 02:18:17 10.4 C 74 %
733 07-03-2019 02:30:17 10.4 C 74 %
734 07-03-2019 02:42:17 10.4 C 74 %
735 07-03-2019 02:54:17 10.4 C 74 %
736 07-03-2019 03:06:17 10.4 C 74 %
737 07-03-2019 03:18:17 10.4 C 74 %
738 07-03-2019 03:30:18 10.4 C 74 %
739 07-03-2019 03:42:18 10.4 C 74 %
740 07-03-2019 03:54:17 10.4 C 74 %
741 07-03-2019 04:06:17 10.4 C 74 %
742 07-03-2019 04:18:17 10.4 C 74 %
743 07-03-2019 04:30:17 10.5 C 74 %
744 07-03-2019 04:42:17 10.4 C 74 %
745 07-03-2019 04:54:17 10.5 C 74 %
746 07-03-2019 05:06:17 10.5 C 75 %
747 07-03-2019 05:19:17 10.5 C 75 %
748 07-03-2019 05:30:17 10.5 C 75 %
749 07-03-2019 05:42:17 10.5 C 75 %
750 07-03-2019 05:54:17 10.5 C 74 %
Sensor: Nr:Datum:Temp:Feuchte:
G-T/H 751 07-03-2019 06:06:17 10.5 C 74 %
752 07-03-2019 06:18:17 10.5 C 74 %
753 07-03-2019 06:30:18 10.5 C 74 %
754 07-03-2019 06:42:18 10.5 C 74 %
755 07-03-2019 06:55:17 10.5 C 74 %
756 07-03-2019 07:06:17 10.5 C 74 %
757 07-03-2019 07:18:18 10.5 C 74 %
758 07-03-2019 07:31:17 10.5 C 74 %
759 07-03-2019 07:42:17 10.5 C 74 %
760 07-03-2019 07:54:17 10.5 C 74 %
761 07-03-2019 08:06:17 10.5 C 74 %
762 07-03-2019 08:19:17 10.5 C 74 %
763 07-03-2019 08:30:17 10.5 C 74 %
764 07-03-2019 08:42:17 10.5 C 74 %
765 07-03-2019 08:54:17 10.5 C 74 %
766 07-03-2019 09:06:17 10.5 C 74 %
767 07-03-2019 09:19:17 10.5 C 74 %
768 07-03-2019 09:30:17 10.5 C 74 %
769 07-03-2019 09:42:17 10.5 C 74 %
770 07-03-2019 09:54:17 10.5 C 74 %
771 07-03-2019 10:07:17 10.5 C 74 %
772 07-03-2019 10:19:17 10.5 C 74 %
773 07-03-2019 10:30:17 10.5 C 74 %
774 07-03-2019 10:42:17 10.5 C 74 %
775 07-03-2019 10:54:17 10.5 C 74 %
Sensor: Nr:Datum:Temp:Feuchte:
G-T/H 776 07-03-2019 11:07:17 10.5 C 74 %
777 07-03-2019 11:19:17 10.5 C 74 %
778 07-03-2019 11:30:17 10.5 C 74 %
779 07-03-2019 11:42:17 10.5 C 74 %
780 07-03-2019 11:55:17 10.5 C 74 %
781 07-03-2019 12:07:17 10.5 C 74 %
782 07-03-2019 12:18:17 10.5 C 74 %
783 07-03-2019 12:30:18 10.5 C 74 %
784 07-03-2019 12:42:18 10.5 C 74 %
785 07-03-2019 12:55:17 10.5 C 74 %
786 07-03-2019 13:07:17 10.5 C 74 %
787 07-03-2019 13:18:18 10.5 C 74 %
788 07-03-2019 13:31:17 10.6 C 74 %
789 07-03-2019 13:43:17 10.6 C 74 %
790 07-03-2019 13:55:17 10.6 C 74 %
791 07-03-2019 14:06:17 10.6 C 74 %
792 07-03-2019 14:19:17 10.5 C 74 %
793 07-03-2019 14:31:17 10.5 C 74 %
794 07-03-2019 14:43:17 10.6 C 74 %
795 07-03-2019 14:55:17 10.6 C 74 %
796 07-03-2019 15:06:17 10.6 C 74 %
797 07-03-2019 15:19:17 10.6 C 74 %
798 07-03-2019 15:31:17 10.6 C 74 %
799 07-03-2019 15:43:17 10.6 C 74 %
800 07-03-2019 15:55:17 10.6 C 74 %
Sensor: Nr:Datum:Temp:Feuchte:
G-T/H 801 07-03-2019 16:07:17 10.6 C 74 %
802 07-03-2019 16:19:17 10.6 C 74 %
803 07-03-2019 16:31:17 10.6 C 74 %
804 07-03-2019 16:43:17 10.6 C 74 %
805 07-03-2019 16:55:17 10.6 C 74 %
806 07-03-2019 17:07:18 10.6 C 74 %
807 07-03-2019 17:19:17 10.6 C 74 %
808 07-03-2019 17:31:17 10.6 C 74 %
809 07-03-2019 17:43:18 10.6 C 74 %
810 07-03-2019 17:55:17 10.6 C 74 %
811 07-03-2019 18:06:18 10.6 C 74 %
812 07-03-2019 18:19:17 10.6 C 74 %
813 07-03-2019 18:31:17 10.5 C 74 %
814 07-03-2019 18:43:17 10.5 C 74 %
815 07-03-2019 18:55:17 10.5 C 73 %
816 07-03-2019 19:07:17 10.5 C 73 %
817 07-03-2019 19:19:17 10.5 C 72 %
818 07-03-2019 19:31:17 10.5 C 72 %
819 07-03-2019 19:43:17 10.5 C 72 %
820 07-03-2019 19:55:17 10.5 C 73 %
821 07-03-2019 20:06:18 10.5 C 73 %
822 07-03-2019 20:19:17 10.5 C 73 %
823 07-03-2019 20:31:17 10.5 C 73 %
824 07-03-2019 20:43:17 10.4 C 72 %
825 07-03-2019 20:55:18 10.4 C 72 %
Sensor: Nr:Datum:Temp:Feuchte:
G-T/H 826 07-03-2019 21:07:17 10.4 C 72 %
827 07-03-2019 21:19:17 10.4 C 72 %
828 07-03-2019 21:31:17 10.4 C 72 %
829 07-03-2019 21:43:18 10.4 C 72 %
830 07-03-2019 21:55:17 10.4 C 72 %
831 07-03-2019 22:07:17 10.4 C 72 %
832 07-03-2019 22:19:18 10.4 C 72 %
833 07-03-2019 22:31:17 10.4 C 72 %
834 07-03-2019 22:43:17 10.4 C 72 %
835 07-03-2019 22:55:17 10.4 C 72 %
836 07-03-2019 23:07:17 10.4 C 72 %
837 07-03-2019 23:19:17 10.4 C 72 %
838 07-03-2019 23:31:17 10.3 C 72 %
839 07-03-2019 23:43:17 10.4 C 72 %
840 07-03-2019 23:55:18 10.3 C 72 %
841 08-03-2019 00:07:17 10.3 C 73 %
842 08-03-2019 00:19:17 10.3 C 73 %
843 08-03-2019 00:31:18 10.3 C 73 %
844 08-03-2019 00:43:18 10.3 C 73 %
845 08-03-2019 00:55:17 10.2 C 73 %
846 08-03-2019 01:07:17 10.2 C 73 %
847 08-03-2019 01:19:17 10.2 C 73 %
848 08-03-2019 01:31:17 10.2 C 73 %
849 08-03-2019 01:43:17 10.2 C 73 %
850 08-03-2019 01:55:17 10.2 C 73 %
Sensor: Nr:Datum:Temp:Feuchte:
G-T/H 851 08-03-2019 02:07:17 10.2 C 73 %
852 08-03-2019 02:19:17 10.2 C 73 %
853 08-03-2019 02:31:17 10.2 C 73 %
854 08-03-2019 02:43:17 10.2 C 73 %
855 08-03-2019 02:55:18 10.2 C 73 %
856 08-03-2019 03:07:17 10.2 C 73 %
857 08-03-2019 03:19:17 10.2 C 73 %
858 08-03-2019 03:31:17 10.2 C 73 %
859 08-03-2019 03:43:17 10.1 C 73 %
860 08-03-2019 03:55:17 10.1 C 73 %
861 08-03-2019 04:07:17 10.1 C 73 %
862 08-03-2019 04:19:17 10.1 C 73 %
863 08-03-2019 04:31:17 10.1 C 72 %
864 08-03-2019 04:43:17 10.1 C 72 %
865 08-03-2019 04:55:17 10.1 C 72 %
866 08-03-2019 05:07:17 10 C 72 %
867 08-03-2019 05:19:17 10 C 71 %
868 08-03-2019 05:31:17 10 C 71 %
869 08-03-2019 05:43:18 10 C 71 %
870 08-03-2019 05:55:18 10 C 71 %
871 08-03-2019 06:07:17 10 C 71 %
872 08-03-2019 06:19:17 10 C 71 %
873 08-03-2019 06:31:17 10 C 71 %
874 08-03-2019 06:43:17 10 C 71 %
875 08-03-2019 06:55:17 10 C 71 %
Sensor: Nr:Datum:Temp:Feuchte:
G-T/H 876 08-03-2019 07:07:17 10 C 72 %
877 08-03-2019 07:19:17 10 C 72 %
878 08-03-2019 07:31:17 10 C 72 %
879 08-03-2019 07:43:17 10 C 72 %
880 08-03-2019 07:55:17 10 C 72 %
881 08-03-2019 08:07:18 10 C 72 %
882 08-03-2019 08:19:17 9.9 C 73 %
883 08-03-2019 08:31:17 9.9 C 73 %
884 08-03-2019 08:43:17 9.9 C 73 %
885 08-03-2019 08:55:17 9.9 C 73 %
886 08-03-2019 09:07:18 9.9 C 73 %
887 08-03-2019 09:19:17 9.9 C 73 %
888 08-03-2019 09:31:17 9.9 C 73 %
889 08-03-2019 09:43:17 9.9 C 73 %
890 08-03-2019 09:55:17 9.9 C 73 %
891 08-03-2019 10:07:18 9.9 C 73 %
892 08-03-2019 10:19:17 9.9 C 73 %
893 08-03-2019 10:31:17 9.9 C 73 %
894 08-03-2019 10:43:17 9.9 C 73 %
895 08-03-2019 10:55:17 9.9 C 73 %
896 08-03-2019 11:07:18 9.9 C 73 %
897 08-03-2019 11:19:17 9.9 C 73 %
898 08-03-2019 11:31:17 9.9 C 73 %
899 08-03-2019 11:43:17 9.9 C 73 %
900 08-03-2019 11:55:17 9.9 C 73 %
Sensor: Nr:Datum:Temp:Feuchte:
G-T/H 901 08-03-2019 12:07:18 9.9 C 73 %
902 08-03-2019 12:19:17 9.9 C 73 %
903 08-03-2019 12:31:17 9.9 C 73 %
904 08-03-2019 12:43:17 9.9 C 73 %
905 08-03-2019 12:55:17 9.9 C 73 %
906 08-03-2019 13:07:17 9.9 C 73 %
907 08-03-2019 13:19:17 10 C 72 %
908 08-03-2019 13:31:17 9.9 C 73 %
909 08-03-2019 13:43:17 9.9 C 73 %
910 08-03-2019 13:55:17 9.9 C 73 %
911 08-03-2019 14:07:17 10 C 72 %
912 08-03-2019 14:19:17 10 C 72 %
913 08-03-2019 14:31:17 10 C 72 %
914 08-03-2019 14:43:17 10 C 72 %
915 08-03-2019 14:55:17 10 C 73 %
916 08-03-2019 15:07:17 10 C 73 %
917 08-03-2019 15:19:17 10 C 73 %
918 08-03-2019 15:31:17 10 C 73 %
919 08-03-2019 15:43:17 10.1 C 73 %
920 08-03-2019 15:55:17 10.1 C 73 %
921 08-03-2019 16:07:17 10.1 C 73 %
922 08-03-2019 16:19:17 10.1 C 73 %
923 08-03-2019 16:31:17 10.1 C 73 %
924 08-03-2019 16:43:18 10.1 C 73 %
925 08-03-2019 16:55:17 10.1 C 73 %
Sensor: Nr:Datum:Temp:Feuchte:
G-T/H 926 08-03-2019 17:07:17 10.1 C 73 %
927 08-03-2019 17:19:17 10.1 C 73 %
928 08-03-2019 17:31:17 10.1 C 73 %
929 08-03-2019 17:43:17 10.1 C 73 %
930 08-03-2019 17:55:17 10.1 C 73 %
931 08-03-2019 18:07:17 10.1 C 73 %
932 08-03-2019 18:19:17 10.1 C 73 %
933 08-03-2019 18:31:17 10.1 C 73 %
934 08-03-2019 18:43:17 10.1 C 73 %
935 08-03-2019 18:55:18 10.2 C 73 %
936 08-03-2019 19:07:17 10.2 C 73 %
937 08-03-2019 19:19:17 10.2 C 73 %
938 08-03-2019 19:31:18 10.1 C 73 %
939 08-03-2019 19:43:18 10.2 C 73 %
940 08-03-2019 19:55:17 10.2 C 73 %
941 08-03-2019 20:07:17 10.1 C 73 %
942 08-03-2019 20:19:18 10.2 C 73 %
943 08-03-2019 20:31:17 10.2 C 73 %
944 08-03-2019 20:43:17 10.2 C 73 %
945 08-03-2019 20:55:17 10.1 C 73 %
946 08-03-2019 21:07:17 10.2 C 73 %
947 08-03-2019 21:19:18 10.1 C 73 %
948 08-03-2019 21:31:17 10.1 C 73 %
949 08-03-2019 21:43:17 10.1 C 73 %
950 08-03-2019 21:55:17 10.1 C 73 %
Sensor: Nr:Datum:Temp:Feuchte:
G-T/H 951 08-03-2019 22:07:17 10.1 C 73 %
952 08-03-2019 22:19:18 10.1 C 73 %
953 08-03-2019 22:31:17 10.1 C 73 %
954 08-03-2019 22:43:17 10.1 C 73 %
955 08-03-2019 22:55:17 10.1 C 73 %
956 08-03-2019 23:07:17 10.1 C 73 %
957 08-03-2019 23:19:17 10.1 C 73 %
958 08-03-2019 23:31:18 10.1 C 73 %
959 08-03-2019 23:43:18 10.1 C 73 %
960 08-03-2019 23:55:17 10 C 73 %
961 09-03-2019 00:07:17 10 C 73 %
962 09-03-2019 00:19:17 10.1 C 73 %
963 09-03-2019 00:31:18 10 C 73 %
964 09-03-2019 00:43:18 10.1 C 73 %
965 09-03-2019 00:55:17 10 C 73 %
966 09-03-2019 01:07:17 10 C 73 %
967 09-03-2019 01:19:17 10 C 73 %
968 09-03-2019 01:31:17 10 C 73 %
969 09-03-2019 01:43:17 10 C 73 %
970 09-03-2019 01:55:17 10 C 73 %
971 09-03-2019 02:07:17 10 C 73 %
972 09-03-2019 02:19:17 10 C 73 %
973 09-03-2019 02:31:17 10 C 73 %
974 09-03-2019 02:43:17 10 C 73 %
975 09-03-2019 02:55:17 10 C 73 %
Sensor: Nr:Datum:Temp:Feuchte:
G-T/H 976 09-03-2019 03:07:17 10 C 73 %
977 09-03-2019 03:19:17 10 C 73 %
978 09-03-2019 03:31:17 10 C 73 %
979 09-03-2019 03:43:17 10 C 73 %
980 09-03-2019 03:55:17 10 C 73 %
981 09-03-2019 04:07:17 10 C 73 %
982 09-03-2019 04:19:17 10 C 73 %
983 09-03-2019 04:31:17 10 C 73 %
984 09-03-2019 04:43:17 10 C 73 %
985 09-03-2019 04:55:17 10 C 73 %
986 09-03-2019 05:07:17 9.9 C 74 %
987 09-03-2019 05:19:17 9.9 C 74 %
988 09-03-2019 05:31:17 9.9 C 74 %
989 09-03-2019 05:43:17 9.9 C 74 %
990 09-03-2019 05:55:17 9.9 C 74 %
991 09-03-2019 06:07:17 9.9 C 74 %
992 09-03-2019 06:19:17 9.9 C 74 %
993 09-03-2019 06:31:17 9.9 C 74 %
994 09-03-2019 06:43:17 9.9 C 74 %
995 09-03-2019 06:55:17 9.9 C 74 %
996 09-03-2019 07:07:18 9.9 C 74 %
997 09-03-2019 07:19:17 9.9 C 74 %
998 09-03-2019 07:31:17 9.9 C 74 %
999 09-03-2019 07:43:17 9.9 C 74 %
1000 09-03-2019 07:55:17 9.9 C 74 %
Sensor: Nr:Datum:Temp:Feuchte:
G-T/H 1001 09-03-2019 08:07:17 9.9 C 74 %
1002 09-03-2019 08:19:17 9.9 C 74 %
1003 09-03-2019 08:31:17 9.9 C 74 %
1004 09-03-2019 08:43:17 9.9 C 74 %
1005 09-03-2019 08:55:17 9.9 C 74 %
1006 09-03-2019 09:07:17 9.9 C 74 %
1007 09-03-2019 09:19:17 9.9 C 74 %
1008 09-03-2019 09:31:17 10 C 73 %
1009 09-03-2019 09:43:18 9.9 C 74 %
1010 09-03-2019 09:55:17 9.9 C 74 %
1011 09-03-2019 10:07:17 10 C 73 %
1012 09-03-2019 10:19:17 10 C 73 %
1013 09-03-2019 10:31:18 9.9 C 74 %
1014 09-03-2019 10:43:18 9.9 C 74 %
1015 09-03-2019 10:55:17 10 C 73 %
1016 09-03-2019 11:07:17 10 C 73 %
1017 09-03-2019 11:19:17 9.9 C 74 %
1018 09-03-2019 11:31:18 10 C 73 %
1019 09-03-2019 11:43:18 10 C 73 %
1020 09-03-2019 11:55:17 10 C 74 %
1021 09-03-2019 12:07:17 10 C 74 %
1022 09-03-2019 12:19:17 10 C 74 %
1023 09-03-2019 12:31:17 10 C 74 %
1024 09-03-2019 12:43:18 10.1 C 74 %
1025 09-03-2019 12:55:17 10.1 C 74 %
Sensor: Nr:Datum:Temp:Feuchte:
G-T/H 1026 09-03-2019 13:07:17 10.1 C 74 %
1027 09-03-2019 13:19:17 10.1 C 74 %
1028 09-03-2019 13:31:17 10.1 C 74 %
1029 09-03-2019 13:43:17 10.1 C 74 %
1030 09-03-2019 13:55:18 10.2 C 74 %
1031 09-03-2019 14:07:17 10.1 C 74 %
1032 09-03-2019 14:19:17 10.1 C 74 %
1033 09-03-2019 14:31:18 10.2 C 74 %
1034 09-03-2019 14:43:18 10.2 C 74 %
1035 09-03-2019 14:55:17 10.2 C 74 %
1036 09-03-2019 15:07:17 10.3 C 74 %
1037 09-03-2019 15:19:17 10.3 C 74 %
1038 09-03-2019 15:31:18 10.3 C 74 %
1039 09-03-2019 15:43:18 10.3 C 74 %
1040 09-03-2019 15:55:17 10.3 C 74 %
1041 09-03-2019 16:07:17 10.3 C 74 %
1042 09-03-2019 16:19:17 10.4 C 74 %
1043 09-03-2019 16:31:17 10.3 C 74 %
1044 09-03-2019 16:43:17 10.4 C 74 %
1045 09-03-2019 16:55:17 10.4 C 74 %
1046 09-03-2019 17:07:17 10.4 C 74 %
1047 09-03-2019 17:19:17 10.4 C 74 %
1048 09-03-2019 17:31:17 10.4 C 74 %
1049 09-03-2019 17:43:17 10.4 C 74 %
1050 09-03-2019 17:55:17 10.4 C 74 %
Sensor: Nr:Datum:Temp:Feuchte:
G-T/H 1051 09-03-2019 18:07:17 10.4 C 73 %
1052 09-03-2019 18:19:17 10.5 C 73 %
1053 09-03-2019 18:31:17 10.5 C 73 %
1054 09-03-2019 18:43:17 10.5 C 73 %
1055 09-03-2019 18:55:17 10.5 C 73 %
1056 09-03-2019 19:07:18 10.5 C 73 %
1057 09-03-2019 19:19:17 10.5 C 73 %
1058 09-03-2019 19:31:17 10.5 C 72 %
1059 09-03-2019 19:43:17 10.5 C 72 %
1060 09-03-2019 19:55:17 10.5 C 72 %
1061 09-03-2019 20:07:18 10.5 C 72 %
1062 09-03-2019 20:19:17 10.5 C 72 %
1063 09-03-2019 20:31:17 10.5 C 72 %
1064 09-03-2019 20:43:17 10.5 C 73 %
1065 09-03-2019 20:55:17 10.5 C 73 %
1066 09-03-2019 21:07:17 10.5 C 73 %
1067 09-03-2019 21:19:17 10.6 C 73 %
1068 09-03-2019 21:31:18 10.5 C 73 %
1069 09-03-2019 21:43:18 10.6 C 73 %
1070 09-03-2019 21:55:17 10.6 C 73 %
1071 09-03-2019 22:07:17 10.6 C 73 %
1072 09-03-2019 22:19:17 10.6 C 73 %
1073 09-03-2019 22:31:17 10.6 C 73 %
1074 09-03-2019 22:43:17 10.6 C 73 %
1075 09-03-2019 22:55:17 10.6 C 73 %
Sensor: Nr:Datum:Temp:Feuchte:
G-T/H 1076 09-03-2019 23:07:18 10.6 C 73 %
1077 09-03-2019 23:19:17 10.6 C 73 %
1078 09-03-2019 23:31:17 10.6 C 73 %
1079 09-03-2019 23:43:17 10.6 C 73 %
1080 09-03-2019 23:55:17 10.6 C 73 %
1081 10-03-2019 00:07:17 10.6 C 73 %
1082 10-03-2019 00:19:17 10.6 C 73 %
1083 10-03-2019 00:31:17 10.6 C 73 %
1084 10-03-2019 00:43:17 10.6 C 73 %
1085 10-03-2019 00:55:17 10.6 C 73 %
1086 10-03-2019 01:07:17 10.6 C 73 %
1087 10-03-2019 01:19:17 10.6 C 73 %
1088 10-03-2019 01:31:17 10.6 C 73 %
1089 10-03-2019 01:43:17 10.6 C 73 %
1090 10-03-2019 01:55:17 10.6 C 73 %
1091 10-03-2019 02:07:17 10.6 C 73 %
1092 10-03-2019 02:19:18 10.6 C 73 %
1093 10-03-2019 02:31:17 10.6 C 73 %
1094 10-03-2019 02:43:17 10.6 C 73 %
1095 10-03-2019 02:55:17 10.6 C 73 %
1096 10-03-2019 03:07:17 10.6 C 74 %
1097 10-03-2019 03:19:17 10.6 C 74 %
1098 10-03-2019 03:31:17 10.6 C 74 %
1099 10-03-2019 03:43:17 10.6 C 74 %
1100 10-03-2019 03:55:17 10.6 C 74 %
Sensor: Nr:Datum:Temp:Feuchte:
G-T/H 1101 10-03-2019 04:07:17 10.6 C 74 %
1102 10-03-2019 04:19:17 10.6 C 74 %
1103 10-03-2019 04:31:17 10.6 C 74 %
1104 10-03-2019 04:43:17 10.6 C 74 %
1105 10-03-2019 04:55:17 10.6 C 74 %
1106 10-03-2019 05:07:17 10.6 C 74 %
1107 10-03-2019 05:19:17 10.6 C 74 %
1108 10-03-2019 05:31:17 10.6 C 74 %
1109 10-03-2019 05:43:17 10.5 C 74 %
1110 10-03-2019 05:55:18 10.5 C 74 %
1111 10-03-2019 06:07:17 10.5 C 74 %
1112 10-03-2019 06:19:18 10.5 C 74 %
1113 10-03-2019 06:31:17 10.5 C 74 %
1114 10-03-2019 06:43:17 10.5 C 74 %
1115 10-03-2019 06:55:17 10.5 C 74 %
1116 10-03-2019 07:07:18 10.5 C 74 %
1117 10-03-2019 07:19:17 10.5 C 74 %
1118 10-03-2019 07:31:17 10.5 C 74 %
1119 10-03-2019 07:43:17 10.5 C 74 %
1120 10-03-2019 07:55:17 10.5 C 74 %
1121 10-03-2019 08:07:17 10.5 C 74 %
1122 10-03-2019 08:19:17 10.5 C 74 %
1123 10-03-2019 08:31:17 10.5 C 74 %
1124 10-03-2019 08:43:17 10.5 C 74 %
1125 10-03-2019 08:55:17 10.5 C 74 %
Sensor: Nr:Datum:Temp:Feuchte:
G-T/H 1126 10-03-2019 09:07:17 10.5 C 74 %
1127 10-03-2019 09:19:17 10.5 C 74 %
1128 10-03-2019 09:31:17 10.5 C 74 %
1129 10-03-2019 09:43:17 10.5 C 74 %
1130 10-03-2019 09:55:17 10.5 C 74 %
1131 10-03-2019 10:07:18 10.6 C 74 %
1132 10-03-2019 10:19:17 10.5 C 74 %
1133 10-03-2019 10:31:17 10.6 C 74 %
1134 10-03-2019 10:43:17 10.6 C 74 %
1135 10-03-2019 10:55:17 10.6 C 74 %
1136 10-03-2019 11:07:17 10.6 C 74 %
1137 10-03-2019 11:19:17 10.6 C 74 %
1138 10-03-2019 11:31:17 10.6 C 74 %
1139 10-03-2019 11:43:17 10.6 C 74 %
1140 10-03-2019 11:55:18 10.6 C 74 %
1141 10-03-2019 12:07:17 10.6 C 74 %
1142 10-03-2019 12:19:17 10.7 C 74 %
1143 10-03-2019 12:31:18 10.7 C 74 %
1144 10-03-2019 12:43:18 10.7 C 74 %
1145 10-03-2019 12:55:17 10.7 C 74 %
1146 10-03-2019 13:07:17 10.7 C 74 %
1147 10-03-2019 13:19:17 10.7 C 74 %
1148 10-03-2019 13:31:17 10.7 C 74 %
1149 10-03-2019 13:43:17 10.8 C 74 %
1150 10-03-2019 13:55:17 10.8 C 74 %
Sensor: Nr:Datum:Temp:Feuchte:
G-T/H 1151 10-03-2019 14:07:17 10.8 C 74 %
1152 10-03-2019 14:19:17 10.8 C 74 %
1153 10-03-2019 14:31:17 10.8 C 74 %
1154 10-03-2019 14:43:17 10.8 C 74 %
1155 10-03-2019 14:55:17 10.8 C 74 %
1156 10-03-2019 15:07:17 10.9 C 74 %
1157 10-03-2019 15:19:17 10.9 C 73 %
1158 10-03-2019 15:31:17 10.9 C 73 %
1159 10-03-2019 15:43:17 10.9 C 73 %
1160 10-03-2019 15:55:17 10.9 C 72 %
1161 10-03-2019 16:07:18 10.9 C 72 %
1162 10-03-2019 16:19:17 10.9 C 71 %
1163 10-03-2019 16:31:18 10.9 C 71 %
1164 10-03-2019 16:43:18 10.9 C 71 %
1165 10-03-2019 16:55:17 10.9 C 71 %
1166 10-03-2019 17:07:17 10.8 C 70 %
1167 10-03-2019 17:19:17 10.8 C 69 %
1168 10-03-2019 17:31:17 10.8 C 68 %
1169 10-03-2019 17:43:17 10.8 C 67 %
1170 10-03-2019 17:55:17 10.8 C 67 %
1171 10-03-2019 18:07:18 10.8 C 67 %
1172 10-03-2019 18:19:17 10.8 C 68 %
1173 10-03-2019 18:31:18 10.8 C 68 %
1174 10-03-2019 18:43:18 10.8 C 68 %
1175 10-03-2019 18:55:17 10.8 C 69 %
Sensor: Nr:Datum:Temp:Feuchte:
G-T/H 1176 10-03-2019 19:07:17 10.8 C 69 %
1177 10-03-2019 19:19:17 10.8 C 69 %
1178 10-03-2019 19:31:18 10.7 C 69 %
1179 10-03-2019 19:43:18 10.7 C 68 %
1180 10-03-2019 19:55:17 10.7 C 68 %
1181 10-03-2019 20:07:17 10.6 C 67 %
1182 10-03-2019 20:19:17 10.6 C 67 %
1183 10-03-2019 20:31:17 10.6 C 66 %
1184 10-03-2019 20:43:17 10.5 C 66 %
1185 10-03-2019 20:55:17 10.5 C 66 %
1186 10-03-2019 21:07:17 10.5 C 65 %
1187 10-03-2019 21:19:17 10.4 C 65 %
1188 10-03-2019 21:31:17 10.4 C 65 %
1189 10-03-2019 21:43:17 10.4 C 65 %
1190 10-03-2019 21:55:17 10.4 C 64 %
1191 10-03-2019 22:07:17 10.4 C 64 %
1192 10-03-2019 22:19:17 10.3 C 64 %
1193 10-03-2019 22:31:17 10.3 C 64 %
1194 10-03-2019 22:43:17 10.3 C 64 %
1195 10-03-2019 22:55:17 10.3 C 64 %
1196 10-03-2019 23:07:17 10.2 C 64 %
1197 10-03-2019 23:19:17 10.3 C 64 %
1198 10-03-2019 23:31:17 10.2 C 64 %
1199 10-03-2019 23:43:17 10.2 C 64 %
1200 10-03-2019 23:55:17 10.2 C 64 %
Sensor: Nr:Datum:Temp:Feuchte:
G-T/H 1201 11-03-2019 00:07:17 10.1 C 64 %
1202 11-03-2019 00:19:17 10.1 C 63 %
1203 11-03-2019 00:31:17 10.1 C 63 %
1204 11-03-2019 00:43:17 10.1 C 63 %
1205 11-03-2019 00:55:18 10 C 63 %
1206 11-03-2019 01:07:17 10 C 63 %
1207 11-03-2019 01:19:17 10 C 63 %
1208 11-03-2019 01:31:18 10 C 63 %
1209 11-03-2019 01:43:18 10 C 63 %
1210 11-03-2019 01:55:17 9.9 C 63 %
1211 11-03-2019 02:07:17 9.9 C 63 %
1212 11-03-2019 02:19:17 9.9 C 63 %
1213 11-03-2019 02:31:17 9.9 C 63 %
1214 11-03-2019 02:43:17 9.9 C 63 %
1215 11-03-2019 02:55:17 9.8 C 63 %
1216 11-03-2019 03:07:17 9.8 C 63 %
1217 11-03-2019 03:19:17 9.8 C 63 %
1218 11-03-2019 03:31:17 9.8 C 63 %
1219 11-03-2019 03:43:17 9.7 C 63 %
1220 11-03-2019 03:55:17 9.7 C 63 %
1221 11-03-2019 04:07:18 9.7 C 64 %
1222 11-03-2019 04:19:17 9.7 C 64 %
1223 11-03-2019 04:31:17 9.8 C 64 %
1224 11-03-2019 04:43:17 9.8 C 65 %
1225 11-03-2019 04:55:17 9.8 C 65 %
Sensor: Nr:Datum:Temp:Feuchte:
G-T/H 1226 11-03-2019 05:07:17 9.8 C 65 %
1227 11-03-2019 05:19:17 9.8 C 66 %
1228 11-03-2019 05:31:17 9.7 C 66 %
1229 11-03-2019 05:43:17 9.7 C 66 %
1230 11-03-2019 05:55:17 9.7 C 66 %
1231 11-03-2019 06:07:18 9.7 C 66 %
1232 11-03-2019 06:19:17 9.7 C 66 %
1233 11-03-2019 06:31:17 9.7 C 66 %
1234 11-03-2019 06:43:17 9.7 C 67 %
1235 11-03-2019 06:55:17 9.6 C 67 %
1236 11-03-2019 07:07:17 9.6 C 67 %
1237 11-03-2019 07:19:17 9.6 C 67 %
1238 11-03-2019 07:31:17 9.6 C 67 %
1239 11-03-2019 07:43:17 9.5 C 67 %
1240 11-03-2019 07:55:17 9.5 C 67 %
1241 11-03-2019 08:07:17 9.5 C 67 %
1242 11-03-2019 08:19:17 9.5 C 67 %
1243 11-03-2019 08:31:18 9.5 C 67 %
1244 11-03-2019 08:43:18 9.5 C 67 %
1245 11-03-2019 08:55:17 9.5 C 68 %
1246 11-03-2019 09:07:17 9.5 C 68 %
1247 11-03-2019 09:19:18 9.4 C 68 %
1248 11-03-2019 09:31:17 9.4 C 68 %
1249 11-03-2019 09:43:17 9.4 C 68 %
1250 11-03-2019 09:55:17 9.3 C 68 %
Sensor: Nr:Datum:Temp:Feuchte:
G-T/H 1251 11-03-2019 10:07:17 9.4 C 68 %
1252 11-03-2019 10:19:17 9.3 C 68 %
1253 11-03-2019 10:31:17 9.3 C 68 %
1254 11-03-2019 10:43:17 9.3 C 68 %
1255 11-03-2019 10:55:17 9.3 C 68 %
1256 11-03-2019 11:07:18 9.3 C 68 %
1257 11-03-2019 11:19:17 9.3 C 68 %
1258 11-03-2019 11:31:17 9.3 C 68 %
1259 11-03-2019 11:43:17 9.3 C 68 %
1260 11-03-2019 11:55:18 9.3 C 68 %
1261 11-03-2019 12:07:17 9.3 C 68 %
1262 11-03-2019 12:19:17 9.3 C 68 %
1263 11-03-2019 12:31:17 9.3 C 68 %
1264 11-03-2019 12:43:17 9.2 C 69 %
1265 11-03-2019 12:55:17 9.2 C 69 %
1266 11-03-2019 13:07:17 9.2 C 69 %
1267 11-03-2019 13:19:17 9.2 C 69 %
1268 11-03-2019 13:31:17 9.2 C 69 %
1269 11-03-2019 13:43:17 9.2 C 69 %
1270 11-03-2019 13:55:17 9.2 C 69 %
1271 11-03-2019 14:07:17 9.2 C 69 %
1272 11-03-2019 14:19:17 9.2 C 69 %
1273 11-03-2019 14:31:17 9.2 C 69 %
1274 11-03-2019 14:43:17 9.2 C 69 %
1275 11-03-2019 14:55:17 9.2 C 69 %
Sensor: Nr:Datum:Temp:Feuchte:
G-T/H 1276 11-03-2019 15:07:17 9.2 C 69 %
1277 11-03-2019 15:19:17 9.2 C 69 %
1278 11-03-2019 15:31:17 9.2 C 69 %
1279 11-03-2019 15:43:17 9.3 C 69 %
1280 11-03-2019 15:55:17 9.2 C 69 %
1281 11-03-2019 16:07:17 9.2 C 69 %
1282 11-03-2019 16:19:17 9.2 C 69 %
1283 11-03-2019 16:31:17 9.3 C 69 %
1284 11-03-2019 16:43:17 9.3 C 69 %
1285 11-03-2019 16:55:17 9.3 C 69 %
1286 11-03-2019 17:07:17 9.2 C 69 %
1287 11-03-2019 17:19:18 9.3 C 69 %
1288 11-03-2019 17:31:17 9.3 C 69 %
1289 11-03-2019 17:43:17 9.3 C 69 %
1290 11-03-2019 17:55:17 9.3 C 69 %
1291 11-03-2019 18:07:18 9.3 C 69 %
1292 11-03-2019 18:19:17 9.3 C 69 %
1293 11-03-2019 18:31:17 9.3 C 69 %
1294 11-03-2019 18:43:17 9.2 C 69 %
1295 11-03-2019 18:55:17 9.2 C 69 %
1296 11-03-2019 19:07:17 9.3 C 69 %
1297 11-03-2019 19:19:17 9.2 C 69 %
1298 11-03-2019 19:31:17 9.3 C 69 %
1299 11-03-2019 19:43:17 9.3 C 69 %
1300 11-03-2019 19:55:17 9.3 C 69 %
Sensor: Nr:Datum:Temp:Feuchte:
G-T/H 1301 11-03-2019 20:07:17 9.3 C 69 %
1302 11-03-2019 20:19:17 9.3 C 69 %
1303 11-03-2019 20:31:17 9.2 C 69 %
1304 11-03-2019 20:43:18 9.3 C 69 %
1305 11-03-2019 20:55:17 9.2 C 69 %
1306 11-03-2019 21:07:17 9.3 C 69 %
1307 11-03-2019 21:19:17 9.2 C 69 %
1308 11-03-2019 21:31:17 9.2 C 69 %
1309 11-03-2019 21:43:17 9.2 C 70 %
1310 11-03-2019 21:55:17 9.2 C 70 %
1311 11-03-2019 22:07:17 9.2 C 70 %
1312 11-03-2019 22:19:17 9.2 C 70 %
1313 11-03-2019 22:31:17 9.2 C 70 %
1314 11-03-2019 22:43:17 9.2 C 70 %